[[{"header":{"parameterUnit":"m.s-1","parameterCategory":1,"la1":30.6,"la2":29.2853,"lo1":-89.7004,"lo2":-87.6739,"dy":0.0162,"dx":0.0183,"nx":112,"ny":82,"refTime":"2023-05-01T00:00:00:Z","depth":0,"parameterNumber":2,"parameterNumberName":"U-component_of_WINDS"},"data":[0.0,0.0,0.0,0.0,0.0,0.0,0.0,0.0,0.0,0.0,0.0,0.0,0.0,0.0,0.0,0.0,0.0,0.0,0.0,0.0,0.0,0.0,0.0,0.0,0.0,0.0,0.0,0.0,0.0,0.0,0.0,0.0,0.0,0.0,0.0,0.0,0.0,0.0,0.0,0.0,0.0,0.0,0.0,0.0,0.0,0.0,0.0,0.0,0.0,0.0,0.0,0.0,0.0,0.0,0.0,0.0,0.0,0.0,0.0,0.0,0.0,0.0,0.0,0.0,0.0,0.0,0.0,0.0,0.0,0.0,0.0,0.0,0.0,0.0,0.0,0.0,0.0,0.0,0.0,0.0,0.0,0.0,0.0,0.0,0.0,0.0,0.0,0.0,0.0,0.0,0.0,2.4263,2.8281,3.0754,3.0779,2.8911,2.6107,2.223,0.0,0.0,0.0,0.0,0.0,0.0,0.0,0.0,0.0,0.0,0.0,0.0,0.0,0.0,0.0,0.0,0.0,0.0,0.0,0.0,0.0,0.0,0.0,0.0,0.0,0.0,0.0,0.0,0.0,0.0,0.0,0.0,0.0,0.0,0.0,0.0,0.0,0.0,0.0,0.0,0.0,0.0,0.0,0.0,0.0,0.0,0.0,0.0,0.0,0.0,0.0,0.0,0.0,0.0,0.0,0.0,0.0,0.0,0.0,0.0,0.0,0.0,0.0,0.0,0.0,0.0,0.0,0.0,0.0,0.0,0.0,0.0,0.0,0.0,0.0,0.0,0.0,0.0,0.0,0.0,0.0,0.0,0.0,0.0,0.0,0.0,0.0,0.0,0.0,0.0,0.0,0.0,0.0,0.0,0.0,0.0,0.0,0.0,0.0,0.0,0.0,0.0,0.0,0.0,2.0648,2.5652,2.7402,2.8274,2.8521,2.5644,2.2982,2.0895,0.0,0.0,0.0,0.0,0.0,0.0,0.0,0.0,0.0,0.0,0.0,0.0,0.0,0.0,0.0,0.0,0.0,0.0,0.0,0.0,0.0,0.0,0.0,0.0,0.0,0.0,0.0,0.0,0.0,0.0,0.0,0.0,0.0,0.0,0.0,0.0,0.0,0.0,0.0,0.0,0.0,0.0,0.0,0.0,0.0,0.0,0.0,0.0,0.0,0.0,0.0,0.0,0.0,0.0,0.0,0.0,0.0,0.0,0.0,0.0,0.0,0.0,0.0,0.0,0.0,0.0,0.0,0.0,0.0,0.0,0.0,0.0,0.0,0.0,0.0,0.0,0.0,0.0,0.0,0.0,0.0,0.0,0.0,0.0,0.0,0.0,0.0,0.0,0.0,0.0,0.0,0.0,0.0,0.0,0.0,0.0,0.0,0.0,0.0,0.0,0.0,0.0,0.0,1.917,2.1919,2.5104,2.614,2.67,2.687,2.4199,2.1889,2.0565,1.9133,0.0,0.0,0.0,0.0,0.0,0.0,0.0,0.0,0.0,0.0,0.0,0.0,0.0,0.0,0.0,0.0,0.0,0.0,0.0,0.0,0.0,0.0,0.0,0.0,0.0,0.0,0.0,0.0,0.0,0.0,0.0,0.0,0.0,0.0,0.0,0.0,0.0,0.0,0.0,0.0,0.0,0.0,0.0,0.0,0.0,0.0,0.0,0.0,0.0,0.0,0.0,0.0,0.0,0.0,0.0,0.0,0.0,0.0,0.0,0.0,0.0,0.0,0.0,0.0,0.0,0.0,0.0,0.0,0.0,0.0,0.0,0.0,0.0,0.0,0.0,0.0,0.0,0.0,0.0,0.0,0.0,0.0,0.0,0.0,0.0,0.0,0.0,0.0,0.0,0.0,0.0,0.0,0.0,0.0,0.0,0.0,0.0,0.0,0.0,0.0,0.0,0.0,2.0519,2.207,2.3408,2.4286,2.4696,2.4496,2.2335,2.0358,1.9039,1.6868,0.0,0.0,0.0,0.0,0.0,0.0,0.0,0.0,0.0,0.0,0.0,0.0,0.0,0.0,0.0,0.0,0.0,0.0,0.0,0.0,0.0,0.0,0.0,0.0,0.0,0.0,0.0,0.0,0.0,0.0,0.0,0.0,0.0,0.0,0.0,0.0,0.0,0.0,0.0,0.0,0.0,0.0,0.0,0.0,0.0,0.0,0.0,0.0,0.0,0.0,0.0,0.0,0.0,0.0,0.0,0.0,0.0,0.0,0.0,0.0,0.0,0.0,0.0,0.0,0.0,0.0,0.0,0.0,0.0,0.0,0.0,0.0,0.0,0.0,0.0,0.0,0.0,0.0,0.0,0.0,0.0,0.0,0.0,0.0,0.0,0.0,0.0,0.0,0.0,0.0,0.0,0.0,0.0,0.0,0.0,0.0,0.0,0.0,0.0,0.0,0.0,0.0,1.738,1.9307,2.0562,2.1142,2.1055,2.0226,1.8795,1.6892,1.4576,1.3548,0.0,0.0,0.0,0.0,0.0,0.0,0.0,0.0,0.0,0.0,0.0,0.0,0.0,0.0,0.0,0.0,0.0,0.0,0.0,0.0,0.0,0.0,0.0,0.0,0.0,0.0,0.0,0.0,0.0,0.0,0.0,0.0,0.0,0.0,0.0,0.0,0.0,0.0,0.0,0.0,0.0,0.0,0.0,0.0,0.0,0.0,0.0,0.0,0.0,0.0,0.0,0.0,0.0,0.0,0.0,0.0,0.0,0.0,0.0,0.0,0.0,0.0,0.0,0.0,0.0,0.0,0.0,0.0,0.0,0.0,0.0,0.0,0.0,0.0,0.0,0.0,0.0,0.0,0.0,0.0,0.0,0.0,0.0,0.0,0.0,0.0,0.0,0.0,0.0,0.0,0.0,0.0,0.0,0.0,0.0,0.0,0.0,0.0,0.0,0.0,0.0,0.0,1.6203,1.7623,0.0,1.9381,1.9347,1.8881,1.7665,1.6137,1.4103,0.0,0.0,0.0,0.0,0.0,0.0,0.0,0.0,0.0,0.0,0.0,0.0,0.0,0.0,0.0,0.0,0.0,0.0,0.0,0.0,0.0,0.0,0.0,0.0,0.0,0.0,0.0,0.0,0.0,0.0,0.0,0.0,0.0,0.0,0.0,0.0,0.0,0.0,0.0,0.0,0.0,0.0,0.0,0.0,0.0,0.0,0.0,0.0,0.0,0.0,0.0,0.0,0.0,0.0,0.0,0.0,0.0,0.0,0.0,0.0,0.0,0.0,0.0,0.0,0.0,0.0,0.0,0.0,0.0,0.0,0.0,0.0,0.0,0.0,0.0,0.0,0.0,0.0,0.0,0.0,0.0,0.0,0.0,0.0,0.0,0.0,0.0,0.0,0.0,0.0,0.0,0.0,0.0,0.0,0.0,0.0,0.0,0.0,0.0,0.0,0.0,0.0,1.3235,1.4585,1.5755,0.0,1.6562,1.6555,1.6132,1.5154,1.3931,1.231,0.0,0.0,0.0,0.0,0.0,0.0,0.0,0.0,0.0,0.0,0.0,0.0,0.0,0.0,0.0,0.0,0.0,0.0,0.0,0.0,0.0,0.0,0.0,0.0,0.0,0.0,0.0,0.0,0.0,0.0,0.0,0.0,0.0,0.0,0.0,0.0,0.0,0.0,0.0,0.0,0.0,0.0,0.0,0.0,0.0,0.0,0.0,0.0,0.0,0.0,0.0,0.0,0.0,0.0,0.0,0.0,0.0,0.0,0.0,0.0,0.0,0.0,0.0,0.0,0.0,0.0,0.0,0.0,0.0,0.0,0.0,0.0,0.0,0.0,0.0,0.0,0.0,0.0,0.0,0.0,0.0,0.0,0.0,0.0,0.0,0.0,0.0,0.0,0.0,0.0,0.0,0.0,0.0,0.0,0.0,0.0,0.0,0.0,0.0,0.0,0.0,0.0,1.0451,1.2342,1.3297,1.2212,1.2275,1.2096,1.1251,1.0621,0.971,0.0,0.0,0.0,0.0,0.0,0.0,0.0,0.0,0.0,0.0,0.0,0.0,0.0,0.0,0.0,0.0,0.0,0.0,0.0,0.0,0.0,0.0,0.0,0.0,0.0,0.0,0.0,0.0,0.0,0.0,0.0,0.0,0.0,0.0,0.0,0.0,0.0,0.0,0.0,0.0,0.0,0.0,0.0,0.0,0.0,0.0,0.0,0.0,0.0,0.0,0.0,0.0,0.0,0.0,0.0,0.0,0.0,0.0,0.0,0.0,0.0,0.0,0.0,0.0,0.0,0.0,0.0,0.0,0.0,0.0,0.0,0.0,0.0,0.0,0.0,0.0,0.0,0.0,0.0,0.0,0.0,0.0,0.0,0.0,0.0,0.0,0.0,0.0,0.0,0.0,0.0,0.0,0.0,0.0,0.0,0.0,0.0,0.0,0.0,0.0,0.0,0.0,0.0,0.9876,1.0396,1.0693,1.0721,1.0724,1.0543,1.007,0.9672,0.8993,0.7967,0.0,0.0,0.0,0.0,0.0,0.0,0.0,0.0,0.0,0.0,0.0,0.0,0.0,0.0,0.0,0.0,0.0,0.0,0.0,0.0,0.0,0.0,0.0,0.0,0.0,0.0,0.0,0.0,0.0,0.0,0.0,0.0,0.0,0.0,0.0,0.0,0.0,0.0,0.0,0.0,0.0,0.0,0.0,0.0,0.0,0.0,0.0,0.0,0.0,0.0,0.0,0.0,0.0,0.0,0.0,0.0,0.0,0.0,0.0,0.0,0.0,0.0,0.0,0.0,0.0,0.0,0.0,0.0,0.0,0.0,0.0,0.0,0.0,0.0,0.0,0.0,0.0,0.0,0.0,0.0,0.0,0.0,0.0,0.0,0.0,0.0,0.0,0.0,0.0,0.0,0.0,0.0,0.0,0.0,0.0,0.0,0.0,0.0,0.0,0.0,0.0,0.0,0.827,0.8535,0.8717,0.8746,0.898,0.8886,0.8524,0.8324,0.7939,0.7183,0.0,0.0,0.0,0.0,0.0,0.0,0.0,0.0,0.0,0.0,0.0,0.0,0.0,0.0,0.0,0.0,0.0,0.0,0.0,0.0,0.0,0.0,0.0,0.0,0.0,0.0,0.0,0.0,0.0,0.0,0.0,0.0,0.0,0.0,0.0,0.0,0.0,0.0,0.0,0.0,0.0,0.0,0.0,0.0,0.0,0.0,0.0,0.0,0.0,0.0,0.0,0.0,0.0,0.0,0.0,0.0,0.0,0.0,0.0,0.0,0.0,0.0,0.0,0.0,0.0,0.0,0.0,0.0,0.0,0.0,0.0,0.0,0.0,0.0,0.0,0.0,0.0,0.0,0.0,0.0,0.0,0.0,0.0,0.0,0.0,0.0,0.0,0.0,0.0,0.0,0.0,0.0,0.0,0.0,0.0,0.0,0.0,0.0,0.0,0.0,0.0,0.0,0.6078,0.6765,0.7042,0.6477,0.6884,0.7021,0.6449,0.6615,0.6542,0.6046,0.0,0.0,0.0,0.0,0.0,0.0,0.0,0.0,0.0,0.0,0.0,0.0,0.0,0.0,0.0,0.0,0.0,0.0,0.0,0.0,0.0,0.0,0.0,0.0,0.0,0.0,0.0,0.0,0.0,0.0,0.0,0.0,0.0,0.0,0.0,0.0,0.0,0.0,0.0,0.0,0.0,0.0,0.0,0.0,0.0,0.0,0.0,0.0,0.0,0.0,0.0,0.0,0.0,0.0,0.0,0.0,0.0,0.0,0.0,0.0,-0.217,0.0,0.0,0.0,0.0,0.0,0.0,0.0,0.0,0.0,0.0,0.0,0.0,0.0,0.0,0.0,0.0,0.0,0.0,0.0,0.0,0.0,0.0,0.0,0.0,0.0,0.0,0.0,0.0,0.0,0.0,0.0,0.0,0.0,0.0,0.0,0.0,0.0,0.0,0.0,0.0,0.0,0.4453,0.4403,0.4227,0.3823,0.407,0.4014,0.3372,0.3589,0.3958,0.438,0.3485,0.0,0.0,0.0,0.0,0.0,0.0,0.0,0.0,0.0,0.0,0.0,0.0,0.0,0.0,0.0,0.0,0.0,0.0,0.0,0.0,0.0,0.0,0.0,0.0,0.0,0.0,0.0,0.0,0.0,0.0,0.0,0.0,0.0,0.0,0.0,0.0,0.0,0.0,0.0,0.0,0.0,0.0,0.0,0.0,0.0,0.0,0.0,0.0,0.0,0.0,0.0,0.0,0.0,0.0,0.0,0.0,0.0,0.0,0.0,0.0,-0.5136,0.0,0.0,0.0,0.0,0.0,0.0,0.0,0.0,0.0,0.0,0.0,0.0,0.0,0.0,0.0,0.0,0.0,0.0,0.0,0.0,0.0,0.0,0.0,0.0,0.0,0.0,0.0,0.0,0.0,0.0,0.0,0.0,0.0,0.0,0.0,0.0,0.0,0.0,0.0,0.0,0.2785,0.2767,0.2715,0.254,0.2487,0.2415,0.2594,0.195,0.1637,0.2035,0.1937,0.0,0.0,0.0,0.0,0.0,0.0,0.0,0.0,0.0,0.0,0.0,0.0,0.0,0.0,0.0,0.0,0.0,0.0,0.0,0.0,0.0,0.0,0.0,0.0,0.0,0.0,0.0,0.0,0.0,0.0,0.0,0.0,0.0,0.0,0.0,0.0,0.0,0.0,0.0,0.0,0.0,0.0,0.0,0.0,0.0,0.0,0.0,0.0,0.0,0.0,0.0,0.0,0.0,-1.2175,-1.3333,-1.4265,-1.5736,-1.6708,-1.6908,-1.3113,-1.108,-1.0455,0.0,0.0,0.0,0.0,0.0,0.0,0.0,0.0,0.0,0.0,0.0,0.0,0.0,0.0,0.0,0.0,0.0,0.0,0.0,0.0,0.0,0.0,0.0,0.0,0.0,-0.0347,-0.0137,0.0,0.0,0.0,0.0,0.0,0.0,0.0,0.0,0.0,0.0,0.0,0.0,0.1018,0.1118,0.1284,0.1424,0.1073,0.1253,0.2239,0.0806,-0.0088,-0.0085,0.0569,0.0698,0.0,0.0,0.0,0.0,0.0,0.0,0.0,0.0,0.0,0.0,0.0,0.0,0.0,0.0,0.0,0.0,0.0,0.0,0.0,0.0,0.0,0.0,0.0,0.0,0.0,0.0,0.0,0.0,0.0,0.0,0.0,0.0,0.0885,-0.2332,0.0,0.0,0.0,0.0,0.0,0.0,0.0,0.0,0.0,0.0,0.0,0.0,0.0,0.0,-2.0134,-1.9775,-2.0079,-2.0986,-1.9791,-1.9898,-2.1247,-2.1864,-2.1771,-2.1107,-1.9747,0.0,-1.3811,-1.3151,0.0,0.0,0.0,0.0,0.0,0.0,0.0,0.0,0.0,0.0,0.0,0.0,0.0,0.0,0.0,0.0,0.0,0.0,0.0,0.0,0.0,0.0,-0.126,-0.2026,-0.1685,-0.1654,0.0,-0.1543,0.0319,0.0392,0.0,0.0,0.0,0.0,0.0,0.0,0.0,0.0,-0.1073,-0.1489,-0.1746,-0.1431,-0.1165,-0.0807,-0.009,-0.0359,-0.0533,-0.0434,-0.0085,0.0405,0.1134,0.0539,0.0,0.0,0.0,0.0,0.0,0.0,0.0,0.0,0.0,0.0,0.0,0.0,0.0,0.0,0.0,0.0,0.0,0.0,0.0,0.0,0.0,0.0,0.0,0.0,0.0,0.0,0.0,0.0,0.0,-0.0311,-0.4981,-0.8942,-0.8817,-0.8539,0.0,0.0,0.0,0.0,0.0,0.0,0.0,0.0,0.0,-1.6892,-1.7367,-1.9388,-2.3292,-2.3885,-2.4589,-2.5392,-2.4752,-2.483,-2.5623,-2.5593,-2.5428,-2.5252,-2.4098,-2.2629,-2.0643,-1.7074,-1.5747,-1.5716,0.0,0.0,0.0,0.0,0.0,-0.7096,-0.6814,-0.6781,0.0,0.0,0.0,0.0,0.0,0.0,0.0,0.0,0.0,0.0,0.0,0.0,0.0,-0.5448,-0.5448,-0.5563,-0.6701,-0.5781,-0.4262,0.0,-0.2159,-0.1621,-0.1113,0.0,0.0,0.0,0.0,0.0,-0.3609,-0.3752,-0.3772,-0.368,-0.3424,-0.2634,-0.1142,-0.16,-0.1689,-0.1046,-0.069,-0.0251,0.0237,0.0398,0.0935,0.0,0.0,0.0,0.0,0.0,0.0,0.0,0.0,0.0,0.0,0.0,0.0,0.0,0.0,0.0,0.0,0.0,0.0,0.0,0.0,0.0,0.0,0.0,0.0,0.0,0.0,0.0,0.0,-0.5898,-1.0503,-1.4261,-1.4194,-1.4144,0.0,0.0,0.0,0.0,0.0,0.0,-1.7097,-1.8419,-1.9668,-2.0958,-2.3053,-2.4609,-2.5402,-2.6715,-2.7688,-2.8392,-2.8567,-2.8817,-2.9234,-2.8869,-2.8625,-2.8413,-2.7477,-2.6801,-2.5951,-2.0997,-1.9154,-1.9222,-1.7204,-1.5471,-1.3929,-1.2334,-1.1354,-1.071,-1.003,-1.0018,-1.0175,-0.9436,0.0,-0.7483,-0.6616,0.0,0.0,0.0,0.0,-0.554,-0.6324,-0.6729,-0.7221,-0.8284,-0.8534,-0.8682,-0.9196,-0.8788,-0.7729,0.0,-0.4667,-0.3879,-0.345,0.0,0.0,0.0,0.0,-0.5339,-0.5612,-0.5388,-0.5215,-0.5217,-0.4967,-0.4118,-0.2417,-0.2724,-0.2648,-0.1828,-0.1211,-0.0932,-0.0815,-0.0081,0.0634,0.1374,0.0,0.0,0.0,0.0,0.0,0.0,0.0,0.0,0.0,0.0,0.0,0.0,0.0,0.0,0.0,0.0,0.0,0.0,0.0,0.0,0.0,0.0,0.0,0.0,0.0,0.0,0.0,0.0,0.0,-1.7952,-2.1421,0.0,0.0,0.0,0.0,-2.0447,-2.0946,-2.215,-2.4029,-2.4025,-2.5206,-2.7844,-2.844,-2.8877,-2.9288,-2.9825,-3.0485,-3.119,-3.1319,-3.1729,-3.2253,-3.2425,-3.1613,-3.003,-3.0057,-2.9117,-2.7424,-2.5141,-2.4012,-2.3371,-2.0407,-1.8933,-1.821,-1.5534,-1.4396,-1.4034,-1.3221,-1.3178,-1.3201,-1.1875,-1.0179,-0.856,-0.7539,-0.7084,0.0,0.0,-0.7766,-0.8354,-0.8346,-0.9086,-0.9769,-0.9561,-0.9525,-0.9651,-1.0144,-0.9504,-0.8684,0.0,-0.7415,-0.6805,-0.6627,0.0,-0.66,-0.6448,-0.6442,-0.6537,-0.6725,-0.6173,-0.5767,-0.5773,-0.5349,-0.4974,-0.4567,-0.3723,-0.3123,-0.2777,-0.1876,-0.1336,-0.1385,-0.1275,-0.0393,0.1255,0.1272,0.0,0.0,0.0,0.0,0.0,0.0,0.0,0.0,0.0,0.0,0.0,0.0,0.0,0.0,0.0,0.0,0.0,0.0,0.0,0.0,0.0,0.0,0.0,0.0,0.0,0.0,0.0,0.0,-2.3003,-2.519,0.0,-2.5359,-2.5493,-2.5606,-2.5479,-2.7434,-2.9015,-3.0059,-3.0716,-3.1736,-3.3345,-3.3727,-3.4351,-3.5253,-3.5281,-3.5487,-3.5948,-3.5928,-3.5953,-3.5932,-3.5363,-3.4289,-3.2851,-3.2236,-3.1211,-2.9949,-2.8874,-2.7379,-2.548,-2.3573,-2.241,-2.1577,-1.9217,-1.8351,-1.8057,-1.6851,-1.6468,-1.6141,-1.4093,-1.2215,-1.057,-1.0271,-0.9942,-0.9691,-0.9796,-1.0143,-1.0595,-1.0674,-1.1128,-1.1634,-1.1975,-1.2083,-1.2145,-1.2656,-1.2218,-1.1678,-1.1353,-1.0121,-0.9106,-0.9101,-0.9488,-0.9591,-0.867,-0.8841,-0.9089,-0.9002,-0.8462,-0.807,-0.807,-0.75,-0.6912,-0.6152,-0.5483,-0.4524,-0.3181,-0.2605,-0.2041,-0.1333,-0.1058,-0.0638,0.0079,0.054,0.1185,0.0,0.0,0.0,0.0,0.0,0.0,0.0,0.0,0.0,0.0,0.0,0.0,0.0,0.0,0.0,0.0,0.0,0.0,0.0,0.0,0.0,0.0,0.0,0.0,0.0,0.0,-2.5578,-2.805,-2.9986,-3.1034,-3.0605,-3.0877,-3.109,-3.1153,-3.3119,-3.4457,-3.4818,-3.5331,-3.596,-3.6724,-3.6983,-3.7487,-3.8265,-3.8169,-3.8158,-3.8416,-3.8711,-3.8545,-3.7977,-3.7683,-3.6201,-3.3997,-3.3795,-3.2624,-3.0783,-3.0873,-2.9867,-2.7957,-2.6351,-2.5256,-2.4356,-2.2549,-2.1518,-2.0699,-1.8862,-1.7966,-1.7245,-1.5431,-1.3916,-1.2798,-1.2478,-1.2218,-1.2031,-1.2073,-1.2324,-1.2656,-1.3072,-1.3169,-1.3379,-1.4055,-1.3977,-1.3815,-1.4075,-1.3664,-1.3361,-1.3374,-1.1924,-1.0634,-1.039,-1.076,-1.0657,-0.9649,-0.9707,-0.9739,-0.9367,-0.9079,-0.8856,-0.8623,-0.8576,-0.8188,-0.733,-0.6397,-0.5144,-0.3628,-0.2782,-0.1988,-0.1318,-0.1038,-0.0857,-0.0767,0.0226,0.102,0.1587,0.0,0.0,0.0,0.0,0.0,0.0,0.0,0.0,0.0,0.0,0.0,0.0,0.0,0.0,0.0,0.0,0.0,0.0,0.0,0.0,0.0,0.0,0.0,-2.1787,-2.7288,-3.1804,-3.2942,-3.6101,-3.7791,-3.6786,-3.7955,-3.8403,-3.7532,-3.8046,-3.8296,-3.8195,-3.7603,-3.7521,-3.7805,-3.805,-3.8094,-3.8108,-3.8202,-3.8352,-3.8505,-3.9285,-3.9285,-3.8505,-3.9285,-3.7317,-3.3449,-3.464,-3.3183,-3.0049,-3.1303,-3.1598,-3.104,-2.8768,-2.7508,-2.6674,-2.5259,-2.3654,-2.1812,-1.9305,-1.7719,-1.6632,-1.5849,-1.5316,-1.4849,-1.4001,-1.3901,-1.3988,-1.3995,-1.4135,-1.4603,-1.54,-1.516,-1.4894,-1.5538,-1.513,-1.4475,-1.4223,-1.377,-1.3454,-1.4025,-1.2858,-1.1526,-1.0714,-1.0268,-0.9867,-0.9513,-0.9034,0.0,-0.7771,-0.8054,-0.8108,-0.7325,-0.8268,-0.8695,-0.8074,-0.6393,-0.5037,-0.4364,-0.2409,-0.1304,-0.1335,-0.1276,-0.1169,-0.1096,0.0347,0.0969,0.0801,0.0,0.0,0.0,0.0,0.0,0.0,0.0,0.0,0.0,0.0,0.0,0.0,0.0,0.0,0.0,0.0,0.0,0.0,0.0,0.0,0.0,0.0,-3.1435,-3.0236,-3.3436,-3.6684,-3.8733,-4.0176,-4.0934,-4.0642,-4.1196,-4.1409,-4.1178,-4.1848,-4.2069,-4.1575,-3.9834,-3.8819,-3.8625,-3.8619,-3.8776,-3.9002,-4.0621,-4.138,-4.131,-4.1506,-4.1254,-4.0546,-4.0533,-3.9327,-3.7205,-3.6339,-3.5303,-3.4121,-3.3078,-3.2504,-3.2114,-2.9945,-2.8579,-2.7569,-2.5317,-2.3158,-2.1272,-1.967,-1.862,-1.788,-1.7063,-1.6333,-1.5702,-1.5318,-1.5418,-1.5682,-1.5623,-1.5763,-1.5895,-1.5746,-1.6039,-1.6273,-1.5951,-1.6198,-1.6519,-1.6437,-1.6288,-1.6061,-1.5662,-1.5418,-1.4692,-1.3054,-1.2241,-1.1721,-1.149,-1.0845,0.0,-0.9957,-0.9637,-0.934,-0.8971,-0.8335,-0.8056,-0.8239,-0.6863,-0.5874,-0.5451,-0.4038,-0.3033,-0.2572,-0.172,-0.1232,-0.1078,0.0146,0.0788,0.0,0.0,0.0,0.0,0.0,0.0,0.0,0.0,0.0,0.0,0.0,0.0,0.0,0.0,0.0,0.0,0.0,0.0,0.0,0.0,0.0,0.0,-3.3487,-3.8248,-3.912,-4.0164,-4.159,-4.3603,-4.3898,-4.3877,-4.3623,-4.3789,-4.3714,-4.3152,-4.3762,-4.3913,-4.3304,-4.1907,-4.0474,-3.915,-3.9959,-3.9964,-3.9171,-4.1404,-4.2408,-4.2144,-4.1901,-4.1657,-4.1396,-4.0651,-3.9467,0.0,-3.7099,-3.5856,-3.4313,-3.3979,-3.3365,0.0,0.0,0.0,0.0,0.0,-2.3671,-2.216,-2.0693,-1.9946,-1.9369,-1.8082,-1.7381,-1.6937,-1.6654,-1.63,-1.6049,-1.5864,-1.5413,-1.5158,-1.5834,-1.6165,-1.6532,-1.7311,-1.7672,-1.7804,-1.7804,-1.7326,-1.6847,-1.6715,0.0,0.0,-1.4085,-1.3376,-1.2693,-1.1991,-1.1213,-1.0527,-0.9824,-0.9721,-0.9414,-0.8764,-0.841,-0.8227,-0.8179,-0.7064,0.0,0.0,0.0,-0.3102,-0.2252,-0.1458,0.0,0.0,0.0,0.064,0.0873,0.0,0.0,0.0,0.2781,0.4079,0.0,0.0,0.0,0.0,0.0,0.0,0.0,0.0,0.0,0.0,0.0,0.0,0.0,0.0,0.0,0.0,-3.8795,-4.3538,-4.7279,-4.6675,-4.6234,-4.7375,-4.7036,-4.6507,-4.5943,-4.6048,-4.5608,-4.4402,-4.4765,-4.4781,-4.4129,0.0,0.0,0.0,0.0,-4.1381,-3.9269,-4.145,-4.229,-4.1858,-4.1339,-4.1164,-4.1309,-4.0314,-3.8839,-3.7041,-3.7447,-3.5733,-3.293,-3.4419,-3.406,-3.2358,-3.1367,-3.0016,-2.8282,-2.6042,-2.4646,-2.3656,-2.2064,0.0,0.0,-1.9142,-1.8574,-1.8443,-1.8039,-1.7149,-1.6215,-1.5907,-1.4872,-1.4319,-1.6271,-1.6481,-1.6685,-1.903,-1.9195,-1.882,-1.8769,-1.7785,-1.7013,-1.7431,-1.627,-1.5133,-1.4644,-1.4005,-1.3097,-1.1693,-1.0891,-0.9985,-0.8769,-0.9073,-0.9033,-0.7902,0.0,0.0,-0.8181,-0.7124,-0.6245,-0.5767,-0.3898,-0.2345,-0.1176,-0.0808,-0.0503,-0.0274,-0.0,0.0282,0.0738,0.0681,-0.0,-0.1179,0.1546,0.3429,0.0,0.0,0.0,0.0,0.0,0.0,0.0,0.0,0.0,0.0,0.0,0.0,0.0,0.0,0.0,-3.9688,-4.4079,-4.7664,-4.996,-4.9788,-4.9203,-4.868,-4.8488,-4.8404,-4.8419,-4.8102,-4.7721,-4.7324,-4.7053,-4.655,-4.5825,-4.4008,0.0,-4.1694,-4.2015,-4.2007,-4.1596,-4.2732,-4.3183,-4.288,0.0,0.0,-4.0793,-4.0412,-4.0051,-3.959,-3.8525,-3.7695,-3.6953,-3.5803,-3.4039,-3.2095,-3.0855,-2.9096,-2.7186,-2.5977,-2.4847,-2.377,-2.2321,-2.1911,-2.1906,-2.1086,-2.0546,-2.0187,-2.0207,-1.9938,0.0,-1.9366,-1.9254,-1.9075,-1.8834,-1.9275,-1.9719,-1.9197,-1.9787,-2.0391,-2.0033,-1.9766,-1.938,-1.9023,-1.891,-1.833,-1.6531,-1.4764,-1.3201,-1.2196,-1.1642,-1.114,-1.0439,-1.0374,-1.0082,-0.9486,-0.8658,-0.8272,-0.8559,-0.7223,-0.6521,-0.663,-0.4719,-0.27,-0.0772,-0.1006,-0.1157,-0.1069,-0.0623,-0.0395,-0.0319,0.0408,0.0168,-0.069,0.2375,0.3688,0.0,0.0,0.0,0.0,0.0,0.0,0.0,0.0,0.0,0.0,0.0,-2.3984,0.0,0.0,-3.8299,-4.2942,-4.6307,-4.8977,-5.0907,-5.1139,-5.0733,-4.9786,-4.9529,-4.9436,-4.9481,-4.9129,-4.8832,-4.8709,-4.8303,-4.7852,-4.744,-4.5384,-4.3595,-4.2166,-4.2459,-4.206,-4.0982,-4.2536,-4.3164,-4.2878,-4.1908,-4.1334,-4.0875,-4.0234,-3.9993,-3.9905,-3.885,-3.7914,-3.7084,-3.5311,-3.3966,-3.2854,-3.1202,-2.9378,-2.7577,-2.6783,-2.6171,-2.5455,-2.4193,-2.3875,-2.3829,-2.2987,-2.2224,-2.1605,-2.1748,-2.0811,-1.9687,-1.9446,-1.8902,-1.8344,-1.8546,-1.9196,-1.9786,-1.9861,-2.0439,-2.0959,-2.0771,-2.0306,-1.9828,-1.9488,-1.9402,-1.8785,-1.7167,-1.5968,-1.4736,-1.3323,-1.2682,-1.2032,-1.1215,-1.0892,-1.0563,-0.999,-0.9055,-0.8528,-0.8769,-0.756,-0.6633,-0.6244,-0.5479,-0.4075,-0.1881,-0.102,-0.0869,-0.1279,-0.1052,-0.0737,-0.0331,0.0169,-0.0,-0.0609,0.0704,0.1597,0.0,0.0,0.0,0.0,0.0,0.0,0.0,0.0,-1.769,-2.1558,-2.5181,-2.9057,-3.3517,-3.7492,-4.1452,-4.5838,-4.8008,-4.9756,-5.15,-5.1892,-5.1714,-5.0893,-5.0457,-5.0233,-5.0233,-4.9861,-4.9595,-4.9578,-4.9163,-4.8809,-4.8673,-4.6928,-4.5049,-4.3035,-4.3333,-4.2721,-4.1035,-4.2464,-4.3037,-4.2687,-4.2056,-4.1511,-4.1091,-4.0117,-3.9619,-3.9534,-3.8618,-3.7463,-3.604,-3.4663,-3.3945,-3.3629,-3.181,-3.0098,-2.8647,-2.7987,-2.7529,-2.7194,-2.6323,-2.5947,-2.5712,-2.4701,-2.3645,-2.2783,-2.2961,-2.1298,-1.9277,-1.9025,-1.8035,-1.7243,-1.8113,-1.8749,-1.9386,-2.0407,-2.0835,-2.0854,-2.0854,-2.0162,-1.9618,-1.9543,-1.9135,-1.8421,-1.7225,-1.7083,-1.6349,-1.4337,-1.3598,-1.2794,-1.1467,-1.1131,-1.0815,-1.0223,-0.9455,-0.8955,-0.8751,-0.7816,-0.685,-0.6094,-0.6149,-0.5202,-0.302,-0.1419,-0.0796,-0.1311,-0.1311,-0.0912,-0.0,-0.0,-0.0175,-0.0526,-0.0892,-0.0449,0.3016,0.1644,-0.0247,-0.4028,-0.6908,-1.0172,0.0,0.0,-2.5073,-2.8847,-3.3574,-3.8279,-4.2402,-4.4949,-4.7503,-5.0802,-5.1461,-5.1907,-5.2931,-5.284,-5.2535,-5.2141,-5.1601,-5.1384,-5.147,-5.1105,-5.0733,-5.0572,-5.0223,-4.9686,-4.8825,-4.8106,-4.7369,-4.653,-4.5818,-4.5445,-4.5305,-4.3881,-4.3197,-4.3298,-4.1803,-4.1034,-4.0982,-4.02,-3.9864,-3.9753,-3.8164,-3.6807,-3.5638,-3.5119,-3.4411,-3.3494,-3.2187,-3.1154,-3.0202,-2.888,-2.8186,-2.7839,-2.7132,-2.6736,-2.6493,-2.6253,-2.496,-2.3522,-2.4374,-2.2908,-2.0974,-2.0957,-2.0796,-2.0598,-2.0349,-2.0451,-2.055,-2.0279,-2.0301,-2.0235,-1.986,-1.9659,-1.9534,-1.9401,-1.931,-1.8828,-1.7483,-1.7317,-1.6561,-1.4371,-1.3931,-1.3237,-1.1541,-1.1284,-1.1107,-1.0656,-0.9798,-0.9026,-0.8412,-0.7752,-0.7385,-0.7457,-0.6486,-0.5023,-0.3147,-0.2882,-0.2325,-0.1425,-0.1343,-0.0848,-0.0,-0.0,-0.0,-0.009,-0.009,-0.0359,0.0461,-0.2242,-0.4942,0.0,-1.1377,-1.5463,-2.0081,-2.4518,-2.8881,-3.335,-3.7327,-4.1144,-4.5135,-4.6694,-4.8426,0.0,-5.1777,-5.16,-5.252,-5.2264,-5.1501,-5.0108,-4.8792,-4.8362,-4.9447,-5.0392,-5.0222,-4.8572,-4.9027,-4.9223,-4.8837,-4.7485,-4.6431,-4.5866,-4.4549,-4.3893,-4.3833,-4.3096,-4.2837,-4.3228,-4.2525,-4.1997,-4.1623,-4.1343,-4.0585,-3.9489,-3.8347,-3.7285,-3.6216,-3.5784,-3.5195,-3.4411,-3.3417,-3.2591,-3.1696,-2.9471,-2.8512,-2.824,-2.8004,-2.7861,-2.7705,-2.7684,-2.6764,-2.5675,-2.6097,-2.5081,-2.372,-2.2932,-2.2534,-2.2053,-2.0843,-2.0589,-2.0492,-2.0116,-2.0058,-1.9947,-1.9848,-1.9565,-1.9423,-1.9325,-1.927,-1.9009,-1.8215,-1.8169,-1.7529,-1.5869,-1.4706,-1.3535,-1.2254,-1.166,-1.0982,-0.9951,-0.9493,-0.9051,-0.8381,-0.7966,-0.7772,-0.7687,-0.7086,-0.5969,-0.4508,-0.2419,-0.105,-0.0577,-0.1073,-0.0919,-0.0,-0.0,-0.0,-0.0,-0.1161,-0.1525,-0.2077,-0.5048,0.0,-1.1583,-1.5292,-1.941,-2.4616,-2.8293,-3.2014,-3.6709,-3.977,-4.2736,-4.6336,-4.7296,-4.8536,-5.1767,-5.1538,-5.125,-5.2065,-5.1481,-5.0145,-4.8015,-4.592,-4.4701,-4.4882,-4.7716,-4.9044,-4.7768,-4.8526,-4.8923,-4.8478,-4.6882,-4.5646,-4.4716,-4.3225,-4.2532,-4.2708,-4.236,-4.2485,-4.3174,-4.3052,-4.2629,-4.1949,-4.1613,-4.0497,-3.8892,-3.8242,-3.7293,-3.6115,-3.5813,-3.5395,-3.4848,-3.4058,-3.3393,-3.2635,-3.0291,-2.9263,-2.8882,-2.8816,-2.8657,-2.8578,-2.8578,-2.7877,-2.7125,-2.7266,-2.6551,-2.5486,-2.4458,-2.3656,-2.2877,-2.1814,-2.1021,-2.0531,-2.0484,-2.0172,-1.9897,-1.9787,-1.9522,-1.9301,-1.9301,-1.9301,-1.9222,-1.8851,-1.878,-1.8325,-1.7335,-1.5845,-1.4298,-1.2851,-1.1746,-1.0554,-0.9432,-0.9384,-0.9127,-0.8451,-0.8195,-0.803,-0.7915,-0.7594,-0.6847,-0.5688,-0.2933,-0.1221,-0.0901,-0.0979,-0.0823,-0.0421,-0.0086,-0.026,-0.087,-0.2209,-0.2499,-0.4197,0.0,-0.6862,-1.4738,-1.7629,-2.0522,-2.8281,-3.2022,-3.5035,-3.9066,-4.1711,-4.4085,-4.6952,-4.7907,-4.8949,-5.0991,-5.1372,-5.1578,-5.214,-5.0775,-4.892,-4.6731,-4.423,-4.1213,0.0,-4.2641,-4.7248,-4.9631,-4.9857,-4.9189,-4.7619,-4.6934,-4.5853,-4.4251,-4.2894,-4.2712,-4.3727,-4.2444,-4.2365,-4.3372,-4.2867,-4.2261,-4.1581,-4.0366,-3.9155,-3.7977,-3.7306,-3.6197,-3.4762,-3.4821,-3.4677,-3.4361,-3.3548,-3.3087,-3.2791,-3.1576,-3.0607,-2.9922,-2.9484,-2.9106,-2.8803,-2.8803,-2.8023,-2.7195,-2.7622,-2.6688,-2.5451,-2.5256,-2.4175,-2.3296,-2.3958,-2.2276,-2.0764,-2.1661,-2.086,-1.9815,-1.9402,-1.9311,-1.9301,-1.9301,-1.9301,-1.9222,-1.9002,-1.8851,-1.8672,-1.8554,-1.7584,-1.5823,-1.3045,-1.1316,-1.0033,-0.9345,-0.9515,-0.9336,-0.8644,-0.839,-0.8357,-0.854,-0.7873,-0.7087,-0.6383,-0.5397,-0.4269,-0.311,-0.107,-0.0494,-0.1348,-0.0421,-0.0937,-0.2783,-0.2873,-0.2905,-0.4274,0.0,-1.1185,-1.6096,-2.0197,-2.459,-3.0266,-3.301,-3.5355,-3.9113,-3.8397,-3.7821,-4.0232,-4.0341,-4.128,-4.4864,-4.5699,-4.7151,-5.0813,-4.7429,-4.4982,-4.6073,-4.2632,0.0,0.0,0.0,0.0,-4.3396,-4.5438,-4.665,-4.6699,-4.5633,-4.4599,-4.3624,-4.2736,-4.2324,-4.2482,-4.1704,-4.1655,-4.2259,-4.1655,-4.114,-4.0853,-4.0566,-3.9797,-3.8645,-3.7698,-3.6469,-3.5215,-3.4922,-3.4454,-3.3911,-3.4157,-3.3987,-3.3493,-3.269,-3.1784,-3.091,-3.0403,-2.9781,-2.9184,-2.9328,-2.8893,-2.8234,-2.8414,-2.7981,-2.721,-2.6651,-2.5689,-2.4792,-2.4505,-2.3468,-2.2392,-2.1869,-2.1289,-2.0514,-1.9543,-1.9301,-1.9301,-1.9301,-1.9222,-1.9083,-1.8938,-1.8909,-1.8622,-1.8191,-1.647,-1.4798,-1.3224,-1.1521,-1.0168,-0.9376,-0.946,-0.92,-0.8316,-0.8369,-0.8446,-0.839,-0.7943,-0.74,-0.683,-0.5811,-0.4383,-0.2792,-0.0963,-0.0159,-0.0483,-0.0163,-0.0666,-0.1874,-0.2246,-0.2374,-0.6716,-1.0432,-1.4642,-1.9617,-2.3335,-2.7014,-3.196,-3.3734,-3.5095,-3.7732,-3.6557,-3.5232,-3.5864,-3.586,-3.686,-4.0248,-4.1224,-4.3379,-4.8556,-4.5193,-4.3026,-4.5281,-4.1792,-4.0056,0.0,0.0,0.0,-4.0817,-4.2843,-4.4119,-4.4209,-4.3281,-4.2779,-4.2935,-4.2378,-4.212,-4.2146,-4.1543,-4.1422,-4.1605,-4.073,-4.0372,-4.048,-4.0112,-3.8889,-3.7169,-3.725,-3.6006,-3.4038,-3.4603,-3.4557,-3.4088,-3.4366,-3.4225,-3.3799,-3.3114,-3.2347,-3.1666,-3.1082,-3.0327,-2.9593,-2.9718,-2.9347,-2.8848,-2.8743,-2.8305,-2.787,-2.7693,-2.671,-2.5704,-2.578,-2.485,-2.365,-2.2929,-2.2349,-2.156,-2.0046,-1.9799,-1.9832,-1.9602,-1.937,-1.921,-1.9059,-1.8967,-1.8752,-1.8451,-1.6616,-1.4823,-1.3393,-1.1876,-1.0597,-0.9463,-0.9389,-0.9009,-0.8142,-0.8333,-0.839,-0.8203,-0.8163,-0.7752,-0.6932,-0.6161,-0.4974,-0.3408,-0.1189,-0.0,-0.0,-0.0322,-0.0741,-0.118,-0.1808,-0.2023,-1.1118,-1.4034,-1.7152,-2.4784,-2.6509,-2.7739,-3.3018,-3.4059,-3.414,-3.5052,-3.5729,-3.5544,0.0,0.0,-3.5237,-3.7071,-3.8004,-4.0321,-4.551,-4.4053,-4.2962,0.0,0.0,0.0,0.0,0.0,0.0,-4.1841,0.0,-4.198,-4.0672,-4.036,-4.087,-4.2274,-4.1941,-4.2036,-4.2658,-4.1964,-4.1563,-4.145,-4.0278,-3.9984,-4.0394,-3.8974,-3.6678,-3.3892,-3.6009,-3.4886,-3.1588,-3.3839,-3.4809,-3.4787,-3.4109,-3.3811,-3.3754,-3.2826,-3.2286,-3.1931,-3.1586,-3.0857,-2.9991,-2.9821,-2.9403,-2.8913,-2.8609,-2.7871,-2.7381,-2.8216,-2.7113,-2.6086,-2.7699,-2.6265,-2.441,-2.4746,-2.3971,-2.2683,-2.0977,-2.0889,-2.0861,-2.0116,-1.9798,-1.956,-1.9321,-1.8982,-1.8916,-1.9348,-1.7905,-1.5945,-1.3683,-1.2411,-1.116,-0.9519,-0.9176,-0.8798,-0.8348,-0.8272,-0.8199,-0.8024,-0.8353,-0.8053,-0.6805,-0.6533,-0.5967,-0.5036,-0.1901,-0.0157,-0.0,-0.0883,-0.1151,-0.0757,-0.1547,-0.2019,-1.1754,-1.5826,-2.0044,-2.367,-2.6422,-2.8986,-3.1707,-3.2391,-3.2264,-3.1422,-2.8728,-2.5941,0.0,0.0,0.0,-3.1656,-3.3747,0.0,-4.3331,-4.2545,0.0,-4.3723,0.0,-4.2209,-4.4049,-4.4158,0.0,0.0,-4.2216,-4.3123,-4.3378,-4.2418,-4.2095,-4.2512,-4.2387,-4.2353,-4.2406,-4.1788,-4.1212,-4.0663,-3.9979,-3.9624,-3.9648,-3.8193,-3.7109,-3.6325,-3.5395,-3.4335,-3.3224,-3.3304,-3.3516,-3.3716,-3.3077,-3.3107,-3.3374,-3.2055,-3.1202,-3.0815,-3.1007,-3.0707,-3.0408,-3.0887,-3.0368,-2.9349,-2.876,-2.7903,-2.7247,-2.7291,-2.6735,-2.6359,-2.7184,-2.661,-2.5665,-2.4757,-2.4048,-2.3257,-2.2247,-2.1491,-2.1189,-2.1366,-2.0434,-1.9531,-1.9183,-1.8953,-1.8961,-1.943,-1.8247,-1.6884,-1.5742,-1.3543,-1.1693,-1.0487,-0.9639,-0.8836,-0.8012,-0.8012,-0.8065,-0.8016,-0.8231,-0.7975,-0.6949,-0.692,-0.6466,-0.5531,-0.4367,-0.2507,-0.0,-0.0237,-0.0803,-0.1644,-0.2018,-0.1976,-1.482,-1.8761,-2.2504,-2.5475,-2.7574,-2.9191,-2.9828,-2.975,-2.8965,-2.6977,-2.4662,0.0,-1.9231,0.0,0.0,0.0,0.0,0.0,-4.0583,-4.0656,-4.0956,0.0,-4.2928,0.0,-4.6315,-4.6142,-4.5036,0.0,-4.24,-4.2137,-4.2337,-4.143,-4.1393,-4.2454,-4.2486,-4.2445,-4.2287,-4.1727,-4.122,-4.0814,-4.0235,-3.9749,-3.9368,-3.8454,-3.701,-3.5198,0.0,-3.4444,-3.2782,-3.3403,-3.3765,-3.3804,-3.3117,-3.2849,-3.2825,-3.1768,-3.0876,-3.0183,-3.0516,-3.0324,-3.0134,-3.0863,-3.0685,-3.0025,-2.9479,-2.831,-2.7192,-2.7569,-2.6911,-2.6297,-2.6677,-2.6761,-2.6436,-2.5058,-2.4759,-2.4437,-2.3158,-2.2829,-2.2473,-2.1632,-2.0677,-1.9739,-1.8954,-1.8685,-1.8783,-1.9126,-1.8314,-1.7342,-1.6558,-1.4248,-1.213,-1.0997,-0.9781,-0.8791,-0.8145,-0.7975,-0.7866,-0.7784,-0.8101,-0.7877,-0.7058,-0.7037,-0.6713,-0.5932,-0.5404,-0.3841,-0.1096,-0.1268,-0.1526,-0.1711,-0.2105,-0.215,-1.8031,-2.1262,-2.4249,-2.8099,-2.8985,-2.8811,-2.8232,-2.7122,-2.5462,-2.2781,0.0,-2.1015,-1.7661,-1.9008,-2.1737,-2.5149,0.0,-3.1927,-3.7366,-3.8765,-4.0233,-4.2914,-4.2762,-4.3729,-4.7004,-4.6349,-4.577,-4.5918,-4.2922,-4.0851,-4.0272,-3.9714,-4.0339,-4.2274,-4.2405,-4.2405,-4.2287,-4.1813,-4.149,-4.1366,-4.0767,-4.0085,-3.9443,-3.8941,-3.6604,-3.3072,0.0,0.0,-3.1734,-3.3764,-3.4556,-3.443,-3.3487,-3.2924,-3.2489,-3.1892,-3.0979,-3.0002,-3.0132,-2.9862,-2.9592,-3.0325,-3.0601,-3.0623,-3.0319,-2.8915,-2.7519,-2.8363,-2.7434,-2.6163,-2.6328,-2.6523,-2.636,-2.5164,-2.537,-2.5453,-2.3951,-2.4233,-2.4084,-2.1611,-2.0735,-1.9983,-1.8818,-1.8465,-1.8398,-1.854,-1.8018,-1.7337,-1.6684,-1.4555,-1.2681,-1.1322,-0.9848,-0.8804,-0.8478,-0.804,-0.7711,-0.7598,-0.8008,-0.7863,-0.6995,-0.7037,-0.6781,-0.6051,-0.5704,-0.4623,-0.2895,-0.2801,-0.2186,-0.1136,-0.1945,-0.2244,-1.5922,-1.9865,-2.4143,-2.7546,-2.8496,-2.8694,-2.9148,-2.7165,0.0,0.0,-1.9088,-1.7753,-1.8204,-1.8146,-2.0298,-2.7221,0.0,0.0,0.0,0.0,-4.0649,0.0,0.0,0.0,0.0,0.0,0.0,0.0,0.0,0.0,-4.3014,-4.2539,-4.2334,-4.2445,-4.2387,-4.2287,-4.2145,-4.2012,-4.1841,-4.1719,-4.1174,-4.0474,-3.962,-3.8003,-3.6503,-3.5102,0.0,0.0,-3.346,-3.3646,-3.4026,-3.4376,-3.2967,-3.2719,-3.3099,-3.1897,-3.0835,-2.9998,-2.9998,-2.9798,-2.9591,-3.0241,-3.0527,-3.0527,-2.9865,-2.9526,-2.9245,-2.8911,-2.7705,-2.653,-2.655,-2.5581,-2.448,-2.4236,-2.439,-2.4657,-2.4815,-2.4811,-2.4229,-2.2497,-2.1332,-2.039,-1.9453,-1.8543,-1.7882,-1.7699,-1.7062,-1.648,-1.6335,-1.5092,-1.362,-1.2242,-1.0895,-0.9661,-0.8662,-0.8106,-0.7793,-0.7803,-0.7848,-0.7458,-0.6743,-0.7015,-0.6728,-0.5983,-0.6048,-0.5805,-0.5021,-0.2044,-0.0473,-0.0237,-0.1787,-0.2576,-1.7958,-2.1722,-2.5635,-2.8608,-2.8951,-2.8092,-2.6214,0.0,0.0,0.0,-1.5936,-1.4984,-1.5272,-1.5784,0.0,0.0,0.0,0.0,0.0,0.0,0.0,0.0,0.0,0.0,0.0,0.0,0.0,0.0,0.0,0.0,-4.3862,-4.3248,-4.2828,-4.2652,-4.2432,-4.2287,-4.2187,-4.2079,-4.2012,-4.1934,-4.1569,-4.1,-4.025,-3.9205,-3.7836,-3.6188,-3.5573,0.0,-3.2077,-3.3093,-3.2954,-3.2132,-3.2516,-3.2724,-3.2629,-3.1528,-3.0646,-2.995,-2.9428,-2.916,-2.9062,-2.9374,-2.9943,-3.046,-3.0115,-2.9894,-2.9588,-2.9164,-2.8138,-2.7042,-2.6721,-2.5816,-2.4832,-2.4348,-2.4379,-2.4681,-2.5367,-2.5103,-2.4252,-2.2782,-2.1694,-2.0578,-1.9207,-1.8414,-1.7827,-1.7086,-1.6604,-1.6182,-1.5848,-1.5259,-1.4482,-1.336,-1.14,-1.0083,-0.962,-0.8444,-0.7833,-0.7839,-0.7773,-0.7449,-0.6955,-0.6862,-0.6558,-0.6103,-0.5873,-0.5808,-0.5983,-0.282,-0.0862,-0.0,-0.0804,-0.1728,-1.9979,-2.3517,-2.6881,-2.9961,-2.9678,-2.7768,-2.4183,-2.1727,0.0,-1.554,-1.3935,-1.3209,-1.3427,0.0,-1.7097,0.0,-2.5677,0.0,0.0,0.0,0.0,0.0,0.0,0.0,0.0,0.0,0.0,0.0,0.0,0.0,-4.4028,-4.3387,-4.2978,-4.2922,-4.2634,-4.2432,-4.2391,-4.2026,-4.1961,-4.2079,-4.1573,-4.1051,-4.0504,-3.9989,-3.8597,-3.6555,-3.6406,0.0,0.0,-3.278,-3.2196,-3.0094,-3.228,-3.2812,-3.2312,-3.1597,-3.0906,-3.0254,-2.9345,-2.8931,-2.8753,-2.8573,-2.9319,-3.0215,-3.0215,-3.0008,-2.9794,-2.9676,-2.866,-2.7566,-2.7152,-2.6493,-2.5695,-2.4911,-2.4756,-2.4952,-2.5605,-2.5163,-2.4302,-2.3073,-2.212,-2.0857,-1.9208,-1.8599,-1.8029,-1.6891,-1.6469,-1.6124,-1.546,-1.5347,-1.5082,-1.4398,-1.2218,-1.0661,-1.0437,-0.9032,-0.8129,-0.7841,-0.7679,-0.7423,-0.7036,-0.6669,-0.6337,-0.6187,-0.5634,-0.5649,-0.6152,-0.3763,-0.1723,-0.0,-0.0,-0.0984,-1.9107,-2.2734,-2.628,-3.0667,-3.0149,-2.8241,-2.6905,0.0,-1.9908,-1.7562,-1.4581,-1.3384,-1.6604,-1.679,-1.839,0.0,0.0,-2.4957,0.0,0.0,0.0,0.0,0.0,0.0,0.0,0.0,0.0,0.0,0.0,0.0,0.0,-4.3772,-4.3542,-4.3353,-4.3087,-4.2846,-4.2673,-4.1631,-4.1422,-4.1987,-4.0518,-3.9746,-3.9581,-3.8338,-3.7172,-3.6129,0.0,0.0,0.0,-3.3356,-3.2545,-3.0094,-3.228,-3.3043,-3.2989,-3.292,-3.2327,-3.1422,-3.0725,-2.995,-2.9164,-2.8532,-2.8876,-2.9564,-2.9564,-2.9957,-3.0375,-3.0774,-2.9363,-2.7819,-2.816,-2.7175,-2.6022,-2.5929,-2.5572,-2.5131,-2.5292,-2.5231,-2.487,-2.3907,-2.2788,-2.1767,-2.0487,-1.9566,-1.8451,-1.7172,-1.6754,-1.6335,-1.5514,-1.5257,-1.509,-1.4999,-1.3833,-1.236,-1.0433,-0.979,-0.9056,-0.7937,-0.7603,-0.7156,-0.662,-0.6377,-0.6051,-0.564,-0.5637,-0.5572,-0.5671,-0.3921,-0.1958,-0.0,-0.0,-0.0969,-1.8824,-2.3643,-2.8251,-3.1446,-3.0783,-2.8401,-2.4856,0.0,-1.9189,-1.5914,-1.418,-1.3719,-1.5198,-1.5687,-1.7173,0.0,0.0,0.0,0.0,0.0,0.0,0.0,0.0,0.0,0.0,0.0,0.0,0.0,0.0,0.0,0.0,-4.3639,-4.3664,-4.305,-4.2787,-4.2209,-4.1379,-4.0887,-4.0617,-4.0554,-3.9852,-3.9429,-3.9228,-3.8709,-3.7837,-3.6774,0.0,0.0,0.0,-3.2692,-3.1565,-2.7967,-3.1555,-3.2904,-3.2726,-3.2144,-3.182,-3.1422,-3.0522,-2.9704,-2.9136,-2.8852,-2.8714,-2.8702,-2.8926,-2.9374,-2.9835,-2.9736,-2.914,-2.8486,-2.8395,-2.7654,-2.6639,-2.5966,-2.5618,-2.544,-2.526,-2.4753,-2.4101,-2.3419,-2.2715,-2.175,-2.04,-1.9668,-1.9036,-1.8078,-1.7115,-1.6468,-1.6221,-1.5401,-1.4824,-1.4657,-1.3728,-1.2512,-1.1214,-1.0254,-0.9226,-0.8166,-0.759,-0.7051,-0.6702,-0.6054,-0.5547,-0.5401,-0.5326,-0.5254,-0.526,-0.3528,-0.1803,-0.0,-0.0,-0.04,-1.812,-2.3391,-2.8514,-3.1339,-2.9979,-2.6943,0.0,0.0,-1.7844,-1.4526,-1.3888,-1.4015,-1.4326,-1.5155,-1.6719,0.0,0.0,-2.5156,-3.103,0.0,0.0,0.0,0.0,0.0,0.0,0.0,0.0,0.0,0.0,0.0,0.0,-4.3194,-4.3334,-4.266,-4.2363,-4.176,-4.0848,-4.0427,-4.0095,-3.9878,-3.9334,-3.8677,-3.7976,-3.8374,-3.7676,-3.6131,0.0,0.0,0.0,-3.2992,-3.1676,-2.7719,-3.1632,-3.2897,-3.2508,-3.1793,-3.1591,-3.158,-3.0513,-2.99,-2.961,-2.9428,-2.8876,-2.8349,-2.847,-2.8787,-2.9053,-2.8905,-2.8795,-2.8814,-2.8695,-2.801,-2.72,-2.6498,-2.6078,-2.5712,-2.5137,-2.4388,-2.3622,-2.2959,-2.249,-2.1797,-2.0469,-2.0157,-1.9766,-1.8877,-1.7844,-1.7115,-1.6617,-1.5718,-1.4894,-1.4482,-1.3708,-1.2828,-1.2066,-1.082,-0.9705,-0.8756,-0.7716,-0.7005,-0.6756,-0.5949,-0.5373,-0.5246,-0.5093,-0.5018,-0.5021,-0.3843,-0.2117,-0.0,-0.0,-0.0,-1.668,-2.1209,-2.5908,-2.9923,-2.7219,-2.3391,0.0,0.0,-1.5943,-1.425,-1.3944,-1.4257,-1.5132,-1.6044,-1.7801,-2.1213,0.0,0.0,0.0,0.0,0.0,0.0,0.0,0.0,0.0,0.0,0.0,0.0,0.0,0.0,0.0,-4.25,-4.245,-4.2295,-4.1908,-4.1698,-4.1689,-4.0436,-4.0042,-4.0454,-3.8862,-3.7088,-3.5278,-3.6754,-3.5985,0.0,0.0,0.0,0.0,-3.4803,-3.3556,-3.0384,-3.2841,-3.33,-3.2561,-3.2413,-3.2287,-3.2064,-3.1243,-3.0908,-3.0689,-3.0182,-2.9442,-2.8702,-2.8284,-2.8135,-2.8212,-2.8596,-2.8559,-2.8508,-2.9118,-2.8311,-2.7543,-2.8028,-2.7162,-2.5858,-2.4836,-2.4244,-2.3639,-2.2677,-2.2343,-2.1886,-2.1053,-2.1061,-2.0722,-1.9204,-1.9134,-1.8487,-1.6378,-1.6041,-1.5545,-1.4475,-1.4237,-1.3737,-1.279,-1.1655,-1.0641,-0.9754,-0.8193,-0.7025,-0.6488,-0.615,-0.558,-0.5021,-0.5018,-0.5021,-0.5031,-0.4953,-0.3295,-0.0,-0.0,-0.0,-1.3508,-1.7426,-2.1342,-2.3582,-2.2686,-2.057,-1.8019,-1.6933,-1.5829,-1.3543,-1.4526,-1.5679,-1.5368,-1.6483,-1.8011,-1.9734,-2.1252,0.0,0.0,0.0,0.0,0.0,0.0,0.0,0.0,0.0,0.0,0.0,0.0,0.0,0.0,-4.0978,-4.109,-4.1468,-4.1444,-4.0998,-4.0083,-3.9666,-3.933,-3.9132,-3.8398,-3.6522,-3.3831,-3.6167,0.0,0.0,0.0,0.0,0.0,-3.4601,-3.325,-2.9854,-3.2582,-3.3232,-3.257,-3.2252,-3.2083,-3.1966,-3.1522,-3.101,-3.0616,-3.0569,-2.9954,-2.9251,-2.91,-2.8498,-2.7895,-2.808,-2.7891,-2.7686,-2.79,-2.7868,-2.7657,-2.7242,-2.639,-2.5566,-2.4815,-2.3741,-2.2763,-2.2158,-2.2038,-2.1738,-2.1063,-2.0984,-2.0819,-2.0391,-1.9599,-1.8807,-1.7917,-1.6601,-1.5538,-1.488,-1.423,-1.3483,-1.2534,-1.2186,-1.117,-0.9495,-0.8533,-0.768,-0.6857,-0.6363,-0.5924,-0.5613,-0.5454,-0.5332,-0.5171,-0.5104,-0.3295,-0.0,-0.0,-0.0,0.0,-1.4513,-1.7835,-1.9643,-1.8857,0.0,0.0,-1.469,-1.4057,-1.277,-1.4656,-1.6329,-1.5672,-1.7045,-1.8445,-1.9008,-2.1418,0.0,0.0,0.0,0.0,0.0,0.0,0.0,0.0,0.0,0.0,0.0,0.0,0.0,0.0,0.0,-4.0306,-4.0321,-4.0558,-4.0306,-3.9502,-3.9464,-3.9223,-3.8762,-3.8431,-3.6653,-3.3695,-3.5776,0.0,0.0,0.0,0.0,0.0,-3.4384,-3.3354,-3.0854,-3.2625,-3.295,-3.2382,-3.2028,-3.1925,-3.1894,-3.1324,-3.1021,-3.0893,-3.0792,-3.0221,-2.9511,-2.9282,-2.8648,-2.7908,-2.7656,-2.7469,-2.732,-2.754,-2.7644,-2.7538,-2.7114,-2.6372,-2.5529,-2.4554,-2.3468,-2.2428,-2.1648,-2.145,-2.1213,-2.079,-2.0741,-2.0741,-2.0411,-1.9923,-1.9283,-1.8479,-1.709,-1.5861,-1.5123,-1.4139,-1.3313,-1.2711,-1.2363,-1.1429,-0.9814,-0.8888,-0.799,-0.7055,-0.6567,-0.6213,-0.5994,-0.5784,-0.5535,-0.5404,-0.5101,-0.3608,-0.0943,-0.0314,-0.0,0.0,-1.2214,-1.4927,-1.7304,0.0,0.0,0.0,-1.2678,0.0,-1.2213,-1.4627,-1.6471,-1.6157,-1.7791,-1.9109,-1.8847,-2.2527,0.0,0.0,0.0,0.0,0.0,0.0,0.0,0.0,0.0,0.0,0.0,0.0,0.0,0.0,0.0,-3.9908,-3.8946,-3.933,-3.9607,-3.9709,-3.9717,-3.9438,-3.8864,-3.8738,-3.7026,-3.4081,-3.5435,0.0,0.0,0.0,0.0,0.0,-3.4241,-3.3665,-3.284,-3.289,-3.256,-3.2035,-3.1781,-3.1814,-3.183,-3.0885,-3.0998,-3.1435,-3.0975,-3.0357,-2.9696,-2.9053,-2.8542,-2.8036,-2.7458,-2.7204,-2.7333,-2.7795,-2.7519,-2.7193,-2.7417,-2.6761,-2.5657,-2.4169,-2.3296,-2.2428,-2.1168,-2.0789,-2.0566,-2.0342,-2.0489,-2.0411,-1.9794,-2.0186,-1.9923,-1.8318,-1.7496,-1.6593,-1.5206,-1.4139,-1.3392,-1.3137,-1.2277,-1.1413,-1.0631,-0.9327,-0.8119,-0.7022,-0.6754,-0.6518,-0.6136,-0.5987,-0.5772,-0.5494,-0.5176,-0.4238,-0.2673,-0.0864,-0.0,-0.7742,0.0,-0.9319,-1.0625,-1.0527,-1.0202,0.0,0.0,0.0,0.0,0.0,-1.796,-1.7271,-1.9257,-2.033,-1.8311,-2.1146,-2.3154,0.0,0.0,0.0,0.0,0.0,0.0,0.0,0.0,0.0,0.0,0.0,0.0,0.0,0.0,-3.8531,-3.8092,-3.8148,-3.8385,-3.8877,-3.9567,-3.8496,-3.5698,-3.7412,-3.5144,-2.9596,-3.375,0.0,0.0,0.0,0.0,-3.3517,-3.3977,-3.3414,-3.2236,-3.2727,-3.2508,-3.1951,-3.1743,-3.1636,-3.1605,-3.1362,-3.139,-3.1452,-3.123,-3.0982,-3.0528,-2.9813,-2.8195,-2.6711,-2.6984,-2.6608,-2.613,-2.6257,-2.6339,-2.6457,-2.6527,-2.5802,-2.494,-2.4539,-2.3649,-2.2671,-2.1787,-2.1461,-2.1165,-2.0644,-2.0566,-2.0566,-2.0411,-2.0177,-1.9784,-1.9054,-1.8238,-1.7172,-1.5696,-1.4873,-1.3957,-1.2875,-1.2796,-1.2009,-1.0188,-0.9753,-0.886,-0.7176,-0.6897,-0.6823,-0.6705,-0.6201,-0.561,-0.5098,-0.5018,-0.4781,-0.4314,-0.1412,-0.0,-0.6823,-0.6915,-0.7636,-0.9699,-0.9662,-0.9431,-1.0517,0.0,0.0,0.0,0.0,-1.6914,-1.7113,-1.8455,-1.9326,-1.8679,-1.9882,0.0,0.0,0.0,0.0,0.0,0.0,0.0,0.0,0.0,0.0,0.0,0.0,0.0,0.0,0.0,-3.8002,-3.7411,-3.7642,-3.8072,-3.8639,-3.8778,-3.7444,-3.4703,-3.6639,-3.496,-3.0302,-3.3707,-3.4172,0.0,0.0,0.0,-3.2755,-3.1878,-3.1651,-3.1862,-3.2131,-3.1998,-3.1526,-3.113,-3.0974,-3.0784,-3.0188,-3.0149,-3.049,-3.091,-3.0793,-3.0368,-2.982,-2.8256,-2.6891,-2.7624,-2.6987,-2.6217,-2.6606,-2.6443,-2.6213,-2.6213,-2.5535,-2.4862,-2.4409,-2.3779,-2.2916,-2.1614,-2.1308,-2.1011,-2.0255,-2.0255,-2.0255,-2.001,-2.002,-1.9863,-1.9231,-1.8407,-1.7334,-1.5861,-1.4866,-1.3873,-1.2705,-1.2705,-1.21,-1.0621,-1.0096,-0.9231,-0.7841,-0.7087,-0.6691,-0.6559,-0.615,-0.5686,-0.5249,-0.5096,-0.5018,-0.494,-0.3171,-0.1438,-0.6601,-0.6837,-0.8049,-1.12,-1.0588,-0.9773,-1.1958,0.0,0.0,0.0,0.0,0.0,-1.6856,-1.7742,0.0,0.0,0.0,0.0,0.0,0.0,0.0,0.0,0.0,0.0,0.0,0.0,0.0,0.0,0.0,0.0,0.0,0.0,0.0,-3.6767,-3.729,-3.7847,-3.8404,-3.7813,-3.6482,-3.4449,-3.6036,-3.5338,-3.2646,-3.4146,-3.4631,0.0,0.0,0.0,-3.2298,-2.9916,-2.9989,-3.1579,-3.15,-3.1321,-3.1018,-3.0491,-3.019,-2.9877,-2.8806,-2.8733,-2.9339,-3.0367,-3.0338,-2.9886,-2.9478,-2.8479,-2.7698,-2.8464,-2.7595,-2.6635,-2.738,-2.6786,-2.605,-2.6062,-2.5688,-2.5016,-2.4192,-2.3863,-2.3224,-2.1614,-2.1242,-2.0867,-1.9872,-1.9863,-1.9775,-1.9381,-1.9706,-1.9794,-1.9082,-1.8247,-1.7253,-1.5779,-1.4789,-1.3704,-1.2448,-1.2369,-1.2106,-1.1413,-1.0361,-0.9291,-0.8202,-0.7146,-0.6434,-0.6131,-0.5904,-0.5765,-0.5637,-0.5171,-0.4937,-0.5018,-0.497,-0.3327,-0.7475,-0.7789,-0.8653,-1.0945,-1.0334,-0.9746,-1.1769,0.0,0.0,0.0,0.0,0.0,0.0,-2.148,-2.2287,0.0,0.0,0.0,0.0,0.0,0.0,0.0,0.0,0.0,0.0,0.0,0.0,0.0,0.0,0.0,0.0,0.0,0.0,-3.5981,-3.6064,-3.6434,-3.7095,-3.7485,-3.5987,-3.2713,-3.5249,-3.4624,-3.1278,-3.3478,-3.4357,0.0,0.0,-3.2606,-3.2666,-3.1742,-3.1401,-3.1504,-3.1389,-3.1009,-3.0615,-3.0754,-3.0291,-2.9577,-2.9433,-2.9363,-2.9464,-3.0141,-3.0208,-2.9915,-2.9177,-2.8403,-2.779,-2.8076,-2.7037,-2.597,-2.6257,-2.5779,-2.5241,-2.5606,-2.5265,-2.4849,-2.4897,-2.4622,-2.4116,-2.3106,-2.2681,-2.2004,-2.0624,-2.0245,-1.9932,-1.9381,-1.9082,-1.894,-1.8772,-1.8523,-1.744,-1.5372,-1.5115,-1.4371,-1.2203,-1.2037,-1.2037,-1.1866,-1.0284,-0.8398,-0.6437,-0.6357,-0.6142,-0.5677,-0.5618,-0.561,-0.5637,-0.5012,-0.4854,-0.5007,-0.4964,-0.3949,-0.716,-0.7976,-0.959,-1.2737,-1.1541,-1.0731,0.0,0.0,0.0,0.0,0.0,0.0,0.0,0.0,0.0,0.0,0.0,0.0,0.0,0.0,0.0,0.0,0.0,0.0,0.0,0.0,0.0,0.0,0.0,0.0,0.0,0.0,0.0,0.0,-3.5821,-3.5704,-3.5512,-3.5747,-3.475,-3.2542,-3.474,-3.4156,-3.1199,-3.3677,-3.4593,-3.4149,0.0,-3.2073,-3.2906,-3.0964,-3.0733,-3.16,-3.1449,-3.1021,-3.0392,-2.9987,-2.9344,-2.8817,-2.9529,-2.944,-2.9215,-3.0294,-2.9798,-2.8742,-2.8495,-2.7923,-2.7342,-2.7385,-2.6337,-2.537,-2.6233,-2.5468,-2.4601,-2.5169,-2.4754,-2.4345,-2.455,-2.4334,-2.3813,-2.2979,-2.2692,-2.2004,-2.045,-2.0148,-1.9854,-1.8984,-1.8754,-1.8594,-1.8193,-1.8193,-1.7277,-1.5123,-1.5039,-1.4196,-1.1849,-1.178,-1.1693,-1.1251,-0.9937,-0.8377,-0.6709,-0.6263,-0.5891,-0.5485,-0.5378,-0.5378,-0.5243,-0.5012,-0.4776,-0.4696,-0.4609,-0.4323,-0.6824,-0.7892,-0.9878,-1.3444,0.0,0.0,0.0,0.0,0.0,0.0,0.0,0.0,0.0,0.0,0.0,0.0,0.0,0.0,0.0,0.0,0.0,0.0,0.0,0.0,0.0,0.0,0.0,0.0,0.0,0.0,0.0,0.0,0.0,0.0,-3.5244,-3.4872,-3.4144,-3.4082,-3.3606,-3.2799,-3.4127,-3.367,-3.1718,-3.3868,-3.4623,-3.4137,-3.2017,-3.1992,-3.3208,-3.0681,-3.0453,-3.1694,-3.1542,-3.1038,-3.0258,-2.9212,-2.8559,-2.8342,-2.9213,-2.9079,-2.8749,-2.9897,-2.9159,-2.7749,-2.7526,-2.7085,-2.658,-2.637,-2.5365,-2.4745,-2.6446,-2.5303,-2.3955,-2.4862,-2.429,-2.3677,-2.402,-2.3824,-2.3446,-2.2777,-2.2628,-2.2155,-2.0672,-2.0304,-1.9844,-1.8745,-1.8425,-1.8184,-1.77,-1.7789,-1.7123,-1.5115,-1.4873,-1.386,-1.1499,-1.1375,-1.1177,-1.0646,-0.9775,-0.8589,-0.712,-0.6414,-0.5872,-0.5323,-0.5243,-0.5165,-0.5162,-0.5012,-0.4779,-0.4465,-0.4314,-0.4435,-0.7107,-0.7652,-0.8723,-1.0951,-1.07,0.0,-1.8789,-1.4555,0.0,-1.8534,0.0,0.0,0.0,0.0,0.0,0.0,0.0,0.0,0.0,0.0,0.0,0.0,0.0,0.0,0.0,0.0,0.0,0.0,0.0,0.0,0.0,0.0,0.0,0.0,0.0,-3.3456,-3.3375,-3.3302,-3.3186,-3.2977,-3.3111,-3.3013,-3.2722,-3.3671,-3.4002,-3.3838,-3.4011,-3.3971,-3.3678,-3.2775,-3.2122,-3.1694,-3.1559,-3.0998,-3.0166,-2.9088,-2.8591,-2.8475,-2.8441,-2.8314,-2.8135,-2.8111,-2.8053,-2.7723,-2.6294,-2.581,-2.5662,-2.4909,-2.4112,-2.4026,-2.6417,-2.5028,-2.3372,-2.4919,-2.3941,-2.2889,-2.3722,-2.3751,-2.3593,-2.3519,-2.3372,-2.299,-2.2059,-2.0971,-1.9894,-1.9116,-1.8103,-1.7473,-1.7392,-1.7392,-1.6968,-1.5786,-1.4949,-1.3613,-1.1516,-1.0884,-1.0674,-1.0674,-0.9986,-0.8703,-0.6857,-0.6556,-0.6013,-0.5323,-0.509,-0.5171,-0.5559,-0.5012,-0.4701,-0.4698,-0.4472,-0.4245,-0.6908,-0.7717,-0.9321,-1.2675,-1.1569,0.0,0.0,-1.5631,-1.4068,-2.0101,-1.8176,0.0,0.0,0.0,0.0,0.0,0.0,0.0,0.0,0.0,0.0,0.0,0.0,0.0,0.0,0.0,0.0,0.0,0.0,0.0,0.0,0.0,0.0,-3.2441,-3.1994,-3.1758,-3.1753,-3.1131,-3.0816,-3.0788,-3.2376,-3.3045,-3.2928,-3.3238,-3.3615,-3.4045,-3.3952,-3.4072,-3.4311,-3.3732,-3.2979,-3.209,-3.1167,-3.0551,-3.0011,-2.9241,-2.8842,-2.8763,-2.8904,-2.8637,-2.8216,-2.866,-2.8155,-2.7178,-2.6224,-2.5673,-2.5219,-2.4332,-2.3826,-2.391,-2.5482,-2.4091,-2.268,-2.446,-2.3466,-2.2255,-2.3114,-2.3075,-2.2927,-2.3001,-2.3001,-2.2692,-2.1842,-2.1451,-2.0827,-1.9737,-1.8592,-1.7734,-1.7505,-1.7125,-1.6237,-1.4656,-1.3244,-1.204,-1.1145,-1.0528,-1.0173,-1.0115,-0.9601,-0.8686,-0.7285,-0.6659,-0.6004,-0.5096,-0.5015,-0.5015,-0.5012,-0.4937,-0.4779,-0.4543,-0.4453,-0.437,-0.6757,-0.7562,-0.9178,-1.2642,0.0,0.0,-1.6876,-1.5842,-1.5185,-2.0562,-1.9421,0.0,0.0,0.0,0.0,0.0,0.0,0.0,0.0,0.0,0.0,0.0,0.0,0.0,0.0,0.0,0.0,0.0,0.0,0.0,0.0,0.0,0.0,0.0,-2.981,-2.9427,-2.9408,-2.8571,-2.8164,-2.8154,-3.0174,-3.1246,-3.1475,-3.2,-3.2542,-3.3076,-3.3325,-3.378,-3.4374,-3.4271,-3.364,-3.259,-3.1261,-3.0319,-2.9603,-2.8952,-2.8341,-2.7969,-2.8376,-2.8168,-2.7773,-2.8201,-2.77,-2.6794,-2.5825,-2.5154,-2.4525,-2.367,-2.3205,-2.3132,-2.4048,-2.3103,-2.2355,-2.4034,-2.2931,-2.1668,-2.2444,-2.2187,-2.1819,-2.1966,-2.2157,-2.2179,-2.1569,-2.1521,-2.1058,-1.9885,-1.8713,-1.7726,-1.6988,-1.662,-1.5637,-1.3877,-1.2319,-1.1226,-1.0653,-1.0008,-0.9548,-0.9485,-0.9242,-0.8608,-0.7342,-0.6734,-0.5877,-0.4626,-0.4779,-0.4779,-0.4621,-0.4859,-0.4779,-0.4387,-0.4492,-0.4423,-0.6753,-0.7114,-0.7914,-0.9987,0.0,0.0,-1.6652,-1.4934,-1.369,-1.9577,0.0,-2.2483,0.0,0.0,0.0,0.0,0.0,0.0,0.0,0.0,0.0,0.0,0.0,0.0,0.0,0.0,0.0,0.0,0.0,0.0,0.0,0.0,0.0,0.0,-2.6823,-2.6449,-2.6387,-2.579,-2.5446,-2.5398,-2.6254,-2.7173,-2.8145,-2.9803,-3.0586,-3.0676,-3.2261,-3.3229,-3.3734,-3.4367,-3.4061,-3.3078,-3.1898,-3.0438,-2.8854,-2.8069,-2.6887,-2.5785,-2.6336,-2.6561,-2.6534,-2.637,-2.6573,-2.6558,-2.4811,-2.4013,-2.3535,-2.2827,-2.2034,-2.1606,-2.2056,-2.2151,-2.2428,-2.3668,-2.2382,-2.0959,-2.1647,-2.1069,-2.0512,-2.0512,-2.1031,-2.1492,-2.1502,-2.109,-2.043,-1.9386,-1.8381,-1.7154,-1.5774,-1.5866,-1.5394,-1.3607,-1.2512,-1.1416,-1.0119,-0.9171,-0.8779,-0.9104,-0.9053,-0.8394,-0.6918,-0.662,-0.5616,-0.3841,-0.4229,-0.4384,-0.4384,-0.4779,-0.4779,-0.4387,-0.4492,-0.4302,-0.8208,-0.8167,0.0,-1.0264,0.0,0.0,0.0,-1.4527,0.0,0.0,0.0,0.0,0.0,0.0,0.0,0.0,0.0,0.0,0.0,0.0,0.0,0.0,0.0,0.0,0.0,0.0,0.0,0.0,0.0,0.0,0.0,0.0,0.0,0.0,-2.5454,-2.5431,-2.5561,-2.4726,-2.436,-2.4491,-2.4706,-2.5615,-2.7142,-2.8301,-2.9184,-2.9787,-3.0268,-3.0866,-3.1484,-3.1174,-3.1143,-3.1036,-2.8298,-2.6738,-2.5914,-2.4564,-2.3769,-2.3495,-2.4332,-2.4681,-2.4831,-2.5183,-2.5336,-2.5221,-2.4205,-2.3478,-2.2888,-2.1971,-2.1317,-2.0797,-2.0798,-2.0818,-2.1188,-2.2229,-2.1187,-1.9951,-2.0223,-1.9854,-1.9475,-1.9615,-1.9788,-2.0124,-2.0504,-2.0607,-2.047,-2.0156,-1.8798,-1.7167,-1.5467,-1.5025,-1.4377,-1.3106,-1.233,-1.1197,-0.9468,-0.876,-0.8404,-0.8203,-0.844,-0.7957,-0.6457,-0.649,-0.5616,-0.3841,-0.3919,-0.3997,-0.3997,-0.4387,-0.454,-0.4387,-0.4492,-0.4423,-0.8982,-0.9007,0.0,-1.2099,-1.218,-1.1906,-1.3206,0.0,0.0,0.0,0.0,0.0,0.0,0.0,0.0,0.0,0.0,0.0,0.0,0.0,0.0,0.0,0.0,0.0,0.0,0.0,0.0,0.0,0.0,0.0,0.0,0.0,0.0,0.0,-2.3347,-2.3297,-2.3417,-2.2569,-2.2228,-2.2402,-2.2708,-2.3448,-2.4617,-2.6279,-2.7331,-2.7891,-2.8615,-2.9184,-2.9541,-2.8714,-2.8549,-2.8591,-2.6213,-2.4663,-2.3634,-2.2683,-2.1865,-2.1355,-2.2236,-2.2655,-2.2859,-2.3554,-2.3889,-2.3827,-2.2679,-2.202,-2.143,-2.0298,-1.9748,-1.9376,-1.9223,-1.9471,-1.9999,-2.1033,-2.0392,-1.9454,-1.9179,-1.8713,-1.8342,-1.814,-1.8269,-1.8614,-1.8933,-1.9353,-1.9414,-1.9043,-1.7505,-1.5931,-1.4802,-1.4207,-1.3508,-1.2636,-1.1682,-1.0506,-0.9094,-0.8271,-0.7754,-0.765,-0.7944,-0.7322,-0.5777,-0.6002,-0.5226,-0.3292,-0.345,-0.353,-0.353,-0.3919,-0.4073,-0.3995,-0.4092,-0.4107,-0.9372,-0.9691,-1.0752,-1.4296,-1.3587,0.0,-1.4856,-1.5828,-1.7173,-2.0279,0.0,0.0,0.0,0.0,0.0,0.0,0.0,0.0,0.0,0.0,0.0,0.0,0.0,0.0,0.0,0.0,0.0,0.0,0.0,0.0,0.0,0.0,0.0,0.0,-2.1087,-2.0763,-2.0696,-2.0001,-1.9712,0.0,-2.0558,-2.102,-2.1246,-2.394,-2.5157,-2.5256,-2.6971,-2.7688,-2.7573,-2.6637,-2.6152,-2.5902,-2.4835,-2.3351,-2.1784,-2.1666,-2.0606,-1.9334,-2.0164,-2.0563,-2.0808,-2.1589,-2.2167,-2.2271,-2.0761,-2.0035,-1.9501,-1.8276,-1.785,-1.7725,-1.7506,-1.8066,-1.891,-1.9859,-1.9785,-1.9222,-1.8371,-1.7747,-1.7079,-1.6262,-1.6632,-1.7041,-1.7069,-1.7617,-1.7629,-1.654,-1.5168,-1.4106,-1.3783,-1.3433,-1.2882,-1.2094,-1.0773,-0.9669,-0.8917,-0.7702,-0.7096,-0.7403,-0.748,-0.6707,-0.5004,-0.5381,-0.4603,-0.251,-0.2826,-0.3062,-0.3062,-0.353,-0.3606,-0.3372,-0.3527,-0.3561,-1.0712,-1.047,0.0,-1.1044,-1.1355,-1.2539,-1.697,-1.7093,-1.7049,-1.9793,0.0,0.0,0.0,0.0,0.0,0.0,0.0,0.0,0.0,0.0,0.0,0.0,0.0,0.0,0.0,0.0,0.0,0.0,0.0,0.0,0.0,0.0,0.0,-2.073,-2.1165,-2.1143,-2.0618,-2.0365,-2.0,0.0,-1.9704,-1.9846,-2.012,-2.2288,-2.2998,-2.2571,-2.36,-2.4098,-2.4115,-2.3218,-2.3162,-2.3353,-2.0496,-1.9056,-1.8536,-1.8171,-1.7571,-1.7195,-1.8751,-1.9125,-1.9031,-1.9628,-1.9889,-2.0016,-2.0032,-1.9287,-1.8439,-1.8492,-1.7991,-1.7276,-1.6586,-1.7082,-1.7746,-1.7591,-1.807,-1.8231,-1.7022,-1.6665,-1.6323,-1.5709,-1.5723,-1.5946,-1.6332,-1.6529,-1.6234,-1.5052,-1.4494,-1.3797,-1.2762,-1.2692,-1.2336,-1.1319,-1.0787,-0.9895,-0.8609,-0.7783,-0.7249,-0.7019,-0.7326,-0.663,-0.4616,-0.5076,-0.445,-0.251,-0.2589,-0.2668,-0.2668,-0.3061,-0.3217,-0.3139,-0.3388,-0.3396,-1.0171,0.0,0.0,-1.2172,0.0,-1.4952,-1.6771,-1.738,-1.7873,0.0,0.0,0.0,0.0,0.0,0.0,0.0,0.0,0.0,0.0,0.0,0.0,0.0,0.0,0.0,0.0,0.0,0.0,0.0,0.0,0.0,0.0,-2.0441,-2.0409,-1.9596,-2.0118,-2.0206,-1.9855,-1.9735,-1.9549,-1.9298,-1.8945,-1.8901,-1.9176,-2.1187,-2.1663,-2.0992,-2.1917,-2.1893,-2.1111,-2.0304,-2.0194,-2.0281,-1.8088,-1.7079,-1.6881,-1.7239,-1.6989,-1.6673,-1.786,-1.8023,-1.7772,-1.806,-1.8208,-1.823,-1.8078,-1.7576,-1.7074,-1.6995,-1.6715,-1.635,-1.5837,-1.6266,-1.6742,-1.638,-1.7013,-1.749,-1.6877,-1.6275,-1.5742,-1.5355,-1.5042,-1.4934,-1.5269,-1.5368,-1.4989,-1.3793,-1.3614,-1.3162,-1.1832,-1.1866,-1.1736,-1.0912,-1.0136,-0.929,-0.8533,-0.7465,-0.6742,-0.659,-0.6824,-0.617,-0.43,-0.456,-0.3943,-0.2277,-0.2276,-0.2353,-0.2353,-0.2668,-0.2826,-0.2826,-0.2979,-0.2979,-0.907,-1.0318,-1.21,-1.4438,-1.6064,0.0,-1.5944,-1.7077,-1.8276,0.0,0.0,0.0,0.0,0.0,0.0,0.0,0.0,0.0,0.0,0.0,0.0,0.0,0.0,0.0,0.0,0.0,0.0,0.0,0.0,0.0,-1.8519,-1.9222,-1.9357,-1.8698,-1.8878,-1.8984,-1.8949,-1.8896,-1.8877,-1.8832,-1.8155,-1.8042,-1.8459,-1.9991,-2.0307,-1.9701,-2.0764,-2.0333,-1.8831,-1.8079,-1.7818,-1.7794,-1.6771,-1.6171,-1.6036,-1.7171,-1.7154,-1.6638,-1.7319,-1.7177,-1.6725,-1.6918,-1.6916,-1.6743,-1.6222,-1.6055,-1.593,-1.5478,-1.5452,-1.5509,-1.5254,-1.5546,-1.5811,-1.5521,-1.5957,-1.6464,-1.6787,-1.5886,-1.4999,-1.4926,-1.4449,-1.4082,-1.4019,-1.4173,-1.3872,-1.2602,-1.2515,-1.2131,-1.0894,-1.094,-1.1022,-1.0678,-0.9354,-0.8508,-0.8429,-0.6995,-0.615,-0.6127,-0.6234,-0.5539,-0.3934,-0.4015,-0.3258,-0.1706,-0.1954,-0.2118,-0.2118,-0.2354,-0.2431,-0.2431,-0.2353,-0.2353,-0.8704,0.0,-1.2093,0.0,-1.3808,-1.3554,0.0,0.0,0.0,0.0,0.0,0.0,0.0,0.0,0.0,0.0,0.0,0.0,0.0,0.0,0.0,0.0,0.0,0.0,0.0,0.0,0.0,0.0,0.0,0.0,-1.908,-1.8564,-1.8347,-1.8524,-1.8548,-1.8624,-1.8734,-1.8806,-1.8467,-1.7789,-1.7106,-1.722,-1.7983,-1.7898,-1.7852,-1.7901,-1.8853,-1.8799,-1.7991,-1.7148,-1.7222,-1.7746,-1.6101,-1.5474,-1.5558,-1.6181,-1.6187,-1.5996,-1.7052,-1.6555,-1.5599,-1.6588,-1.6224,-1.5543,-1.6473,-1.6292,-1.5846,-1.6296,-1.6094,-1.5593,-1.4963,-1.4883,-1.4857,-1.4481,-1.4228,-1.4324,-1.5185,-1.4459,-1.3646,-1.3551,-1.3361,-1.3093,-1.2781,-1.3103,-1.292,-1.1603,-1.1045,-1.0578,-1.0179,-0.9792,-0.9775,-1.0422,-0.9063,-0.8123,-0.8144,-0.6932,-0.6036,-0.562,-0.5813,-0.5017,-0.3154,-0.3218,-0.2561,-0.081,-0.1538,-0.1964,-0.1964,-0.2119,-0.2275,-0.2196,-0.1724,-0.1332,-0.9562,-1.0026,-1.0824,0.0,-1.3294,-1.1998,-1.5691,0.0,0.0,0.0,0.0,0.0,0.0,0.0,0.0,0.0,0.0,0.0,0.0,0.0,0.0,0.0,0.0,0.0,0.0,0.0,0.0,0.0,0.0,-1.8035,-1.8178,-1.7957,-1.7883,-1.7975,-1.8149,-1.8235,-1.8238,-1.8391,-1.7946,-1.6917,-1.6624,-1.6514,-1.6555,-1.6527,-1.6619,-1.6825,-1.7805,-1.7806,-1.7096,-1.6704,-1.6795,-1.7051,-1.5795,-1.5326,-1.5416,-1.6073,-1.6075,-1.587,-1.668,-1.627,-1.5539,-1.6231,-1.5992,-1.5587,-1.6314,-1.6338,-1.6098,-1.6113,-1.5784,-1.5234,-1.4319,-1.4075,-1.3926,-1.3266,-1.2883,-1.2824,-1.3542,-1.3646,-1.3542,-1.3212,-1.2788,-1.2417,-1.2376,-1.2599,-1.2287,-1.0872,-1.0451,-0.9983,-0.9069,-0.8849,-0.8944,-0.937,-0.8436,-0.7634,-0.7391,-0.6493,-0.5777,-0.539,-0.4896,-0.4077,-0.2973,-0.2579,-0.1791,-0.0364,-0.1193,-0.1747,-0.1848,-0.1924,-0.2092,-0.2195,-0.1332,-0.0862,0.0,0.0,-0.9538,-1.372,-1.2294,-1.0641,0.0,0.0,0.0,0.0,0.0,0.0,0.0,0.0,0.0,0.0,0.0,0.0,0.0,0.0,0.0,0.0,0.0,0.0,0.0,0.0,0.0,0.0,0.0,-1.7166,-1.7281,-1.7425,-1.7526,-1.7612,-1.7783,-1.7876,-1.7837,-1.7855,-1.7507,-1.6817,-1.6302,-1.5916,-1.5699,-1.5521,-1.5575,-1.5875,-1.6906,-1.7029,-1.6488,-1.6281,-1.6347,-1.6472,-1.5388,-1.51,-1.534,-1.5647,-1.5716,-1.5725,-1.6279,-1.5951,-1.5384,-1.5957,-1.578,-1.542,-1.5823,-1.5905,-1.5794,-1.5594,-1.5313,-1.4857,-1.4053,-1.3763,-1.3472,-1.2709,-1.2265,-1.2058,-1.2173,-1.2833,-1.3192,-1.2509,-1.2152,-1.1944,-1.1806,-1.1982,-1.1724,-1.0457,-0.9988,-0.9452,-0.8503,-0.8282,-0.8259,-0.8451,-0.7654,-0.6941,-0.6613,-0.5797,-0.5213,-0.4931,-0.4002,-0.3171,-0.2603,-0.1881,-0.1049,-0.0,-0.0715,-0.1239,-0.1515,-0.1677,-0.1774,-0.1724,-0.0705,-0.0157,0.0,-0.8344,0.0,-1.0386,-0.9682,0.0,0.0,0.0,0.0,0.0,0.0,0.0,0.0,0.0,0.0,0.0,0.0,0.0,0.0,0.0,0.0,0.0,0.0,0.0,0.0,0.0,0.0,0.0,0.0,-1.6591,-1.6901,-1.6952,-1.715,-1.7589,-1.7612,-1.7641,-1.771,-1.7232,-1.7325,-1.7994,-1.6011,-1.5479,-1.6209,-1.4819,-1.4407,-1.4832,-1.5906,-1.6418,-1.6451,-1.5675,-1.5802,-1.6341,-1.4707,-1.4573,-1.5206,-1.434,-1.4547,-1.5319,-1.5931,-1.5405,-1.4659,-1.5881,-1.5419,-1.4446,-1.4847,-1.4662,-1.4437,-1.4964,-1.4893,-1.4608,-1.4483,-1.43,-1.3982,-1.332,-1.2743,-1.2138,-1.1287,-1.1786,-1.2004,-1.0859,-1.1294,-1.152,-1.0581,-1.078,-1.0937,-1.0514,-0.9463,-0.8817,-0.9088,-0.8229,-0.7714,-0.8069,-0.6871,-0.6042,-0.5957,-0.4731,-0.3943,-0.3904,-0.3231,-0.2445,-0.1615,-0.1128,-0.0472,0.0339,0.0068,-0.0281,-0.0757,-0.1318,-0.1176,-0.0392,0.0235,0.1019,0.0,0.0,0.0,-0.9919,-0.8404,-0.6966,0.0,0.0,0.0,0.0,0.0,0.0,0.0,0.0,0.0,0.0,0.0,0.0,0.0,0.0,0.0,0.0,0.0,0.0,0.0,0.0,0.0,0.0,0.0,0.0,-1.647,-1.5812,-1.5903,-1.6994,-1.7224,-1.737,-1.7439,-1.7196,-1.7076,-1.6995,-1.6439,-1.5796,-1.5142,-1.4859,-1.4581,-1.4336,-1.477,-1.5213,-1.5648,-1.5312,-1.538,-1.5594,-1.4956,-1.4929,-1.5195,-1.481,-1.4895,-1.5216,-1.5354,-1.4991,-1.46,-1.5455,-1.5172,-1.4585,-1.5024,-1.4913,-1.46,-1.4393,-1.4227,-1.3979,-1.3221,-1.2975,-1.2641,-1.1641,-1.1265,-1.093,-1.0354,-1.1136,-1.1713,-1.0867,-1.0928,-1.0847,-1.0045,-1.0073,-0.9903,-0.886,-0.808,-0.7464,-0.7092,-0.6711,-0.6696,-0.7144,-0.6379,-0.5739,-0.5487,-0.4556,-0.3925,-0.3854,-0.2424,-0.1732,-0.1992,-0.0463,0.0538,0.0877,0.0274,-0.0353,-0.1035,-0.0223,0.0076,-0.0078,0.1488,0.2272,-0.7111,0.0,0.0,0.0,0.0,-0.5607,0.0,0.0,0.0,0.0,0.0,0.0,0.0,0.0,0.0,0.0,0.0,0.0,0.0,0.0,0.0,0.0,0.0,0.0,0.0,0.0,0.0,0.0,0.0,0.0,-1.6342,-1.5474,-1.5462,-1.656,-1.6779,-1.6949,-1.7076,-1.7126,-1.6978,-1.6623,-1.6617,-1.6004,-1.4893,-1.4882,-1.4596,-1.4108,-1.4147,-1.4505,-1.5024,-1.4976,-1.5021,-1.5095,-1.4815,-1.4895,-1.5157,-1.4824,-1.4917,-1.5187,-1.5068,-1.4867,-1.4729,-1.5114,-1.4895,-1.4525,-1.4762,-1.4527,-1.4137,-1.3891,-1.3735,-1.3485,-1.2639,-1.2387,-1.2101,-1.1245,-1.091,-1.0673,-1.0188,-1.0878,-1.1394,-1.0687,-1.0632,-1.0428,-0.9704,-0.9496,-0.913,-0.8239,-0.7485,-0.6855,-0.6278,-0.6005,-0.591,-0.6201,-0.5914,-0.546,-0.489,-0.4367,-0.39,-0.3501,-0.1833,-0.1151,-0.1774,0.0132,0.1144,0.1079,0.0548,-0.0,-0.0719,0.0584,0.1204,0.1175,0.2427,0.2976,0.0,0.0,0.0,0.0,0.0,0.0,0.0,0.0,0.0,0.0,0.0,0.0,0.0,0.0,0.0,0.0,0.0,0.0,0.0,0.0,0.0,0.0,0.0,0.0,0.0,0.0,0.0,0.0,0.0,-1.6195,-1.6467,-1.5965,-1.5909,-1.6363,-1.634,-1.6409,-1.6596,-1.691,-1.7069,-1.7052,-1.6436,-1.5987,-1.5639,-1.4783,-1.4295,-1.4113,-1.4091,-1.4296,-1.4682,-1.4689,-1.4814,-1.4916,-1.4214,-1.4449,-1.5096,-1.4221,-1.4452,-1.519,-1.5101,-1.5028,-1.497,-1.4919,-1.4612,-1.4223,-1.3984,-1.3417,-1.294,-1.3537,-1.3447,-1.3137,-1.2924,-1.2668,-1.2452,-1.2252,-1.1893,-1.1377,-1.077,-1.0887,-1.0902,-1.0169,-1.0351,-1.0282,-0.9499,-0.8974,-0.8727,-0.8835,-0.7869,-0.7104,-0.6978,-0.6072,-0.5447,-0.5309,-0.5335,-0.5046,-0.4256,-0.4119,-0.3644,-0.2765,-0.141,-0.0698,-0.074,0.0587,0.1279,0.1079,0.1079,0.082,0.028,0.0958,0.1988,0.3374,0.2976,0.329,-0.5688,0.0,0.0,0.0,0.0,0.0,0.0,0.0,0.0,0.0,0.0,0.0,0.0,0.0,0.0,0.0,0.0,0.0,0.0,0.0,0.0,0.0,0.0,0.0,0.0,0.0,0.0,0.0,-1.602,-1.5707,-1.6131,-1.5801,-1.5781,-1.609,-1.6297,-1.6394,-1.6382,-1.6127,-1.5998,-1.5998,-1.5541,-1.5234,-1.5037,-1.4689,-1.4434,-1.423,-1.388,-1.3923,-1.4216,-1.4556,-1.4738,-1.4783,-1.4726,-1.4846,-1.4965,-1.4124,-1.4407,-1.5115,-1.4454,-1.4225,-1.4285,-1.4799,-1.4298,-1.3592,-1.4052,-1.3904,-1.3574,-1.3446,-1.3201,-1.2874,-1.2384,-1.2199,-1.1888,-1.0944,-1.0651,-1.0284,-0.9133,-0.9337,-0.9588,-0.8965,-0.9262,-0.9252,-0.8265,-0.8127,-0.7968,-0.7522,-0.6718,-0.6124,-0.5893,-0.5264,-0.4904,-0.5021,-0.4561,-0.4095,-0.375,-0.3092,-0.2737,-0.2701,-0.1106,-0.0188,-0.0064,0.0923,0.148,0.1346,0.1146,0.0888,0.042,0.0651,0.2012,0.4525,0.4121,0.3995,0.0,0.0,0.0,0.0,0.0,0.0,-0.5224,-0.7014,0.0,0.0,0.0,0.0,0.0,0.0,0.0,0.0,0.0,0.0,0.0,0.0,0.0,0.0,0.0,0.0,0.0,0.0,0.0,-1.6581,-1.5843,-1.543,-1.5413,-1.5219,-1.5315,-1.571,-1.5853,-1.605,-1.6258,-1.5978,-1.5763,-1.5605,-1.5631,-1.5333,-1.4808,-1.4969,-1.4774,-1.4303,-1.404,-1.3899,-1.3906,-1.4283,-1.4508,-1.46,-1.4804,-1.4866,-1.4832,-1.4449,-1.445,-1.4589,-1.4077,-1.3685,-1.3467,-1.3868,-1.3507,-1.2969,-1.3346,-1.326,-1.2973,-1.2678,-1.2466,-1.2189,-1.1712,-1.1737,-1.1688,-1.101,-1.0668,-1.0153,-0.8959,-0.884,-0.8876,-0.8665,-0.8697,-0.8549,-0.7877,-0.7547,-0.7223,-0.6925,-0.6165,-0.5624,-0.5507,-0.4906,-0.4411,-0.423,-0.412,-0.3795,-0.3078,-0.2871,-0.2553,-0.2171,-0.0742,0.0126,0.0257,0.1325,0.1681,0.1277,0.1279,0.1433,0.1611,0.1775,0.2918,0.493,0.465,0.4387,0.0,0.0,0.0,0.0,0.0,0.0,-0.535,-0.7644,-0.9852,0.0,0.0,0.0,0.0,0.0,0.0,0.0,0.0,0.0,0.0,0.0,0.0,0.0,0.0,0.0,0.0,-1.6391,-1.6646,-1.6426,-1.5906,-1.5337,-1.4721,-1.4573,-1.4728,-1.5195,-1.5255,-1.5551,-1.6077,-1.6044,-1.584,-1.548,-1.591,-1.5641,-1.4824,-1.5279,-1.5103,-1.4441,-1.445,-1.4194,-1.3775,-1.4026,-1.4208,-1.4387,-1.4585,-1.4671,-1.4682,-1.4698,-1.434,-1.3859,-1.3678,-1.3155,-1.2556,-1.26,-1.2496,-1.2361,-1.2326,-1.2102,-1.185,-1.1682,-1.1537,-1.1391,-1.1042,-1.1248,-1.1544,-1.1587,-1.1132,-1.0432,-0.9451,-0.8855,-0.8553,-0.8804,-0.8374,-0.7956,-0.7846,-0.7114,-0.6593,-0.6709,-0.6047,-0.5533,-0.5602,-0.4824,-0.4016,-0.3369,-0.3832,-0.3698,-0.2518,-0.2861,-0.2613,-0.1343,-0.031,0.0321,0.0451,0.1523,0.1817,0.1143,0.1614,0.2381,0.3413,0.3841,0.4311,0.4914,0.4852,0.4673,0.0,0.0,0.0,0.0,0.0,0.0,-0.5088,-0.55,-0.6292,0.0,0.0,0.0,0.0,0.0,0.0,0.0,0.0,0.0,0.0,0.0,0.0,0.0,0.0,0.0,0.0,-1.5653,-1.6156,-1.5951,-1.58,-1.5553,-1.5254,-1.4871,-1.4668,-1.4672,-1.5074,-1.5315,-1.53,-1.5048,-1.4817,-1.4639,-1.394,-1.4023,-1.4775,-1.4309,-1.4549,-1.5311,-1.4897,-1.4536,-1.4173,-1.4175,-1.417,-1.4177,-1.438,-1.4534,-1.4463,-1.3219,-1.3199,-1.3635,-1.2342,-1.1793,-1.177,-1.2461,-1.2169,-1.165,-1.2274,-1.2414,-1.2274,-1.188,-1.1517,-1.1183,-1.0848,-1.0631,-1.0355,-0.985,-0.9577,-0.9247,-0.8453,-0.7984,-0.7899,-0.8461,-0.755,-0.6707,-0.6775,-0.6546,-0.6358,-0.6392,-0.5895,-0.5493,-0.5533,-0.4622,-0.3932,-0.3784,-0.3283,-0.2825,-0.2411,-0.1526,-0.0985,-0.0901,0.042,0.1067,0.0643,0.1457,0.1749,0.148,0.2753,0.3897,0.4715,0.5251,0.5464,0.537,0.5353,0.5199,0.0,0.0,0.0,-0.5492,0.0,0.0,0.0,-0.5644,-0.6422,-0.7352,0.0,0.0,0.0,0.0,0.0,0.0,0.0,0.0,0.0,0.0,0.0,0.0,0.0,0.0,0.0,-1.507,-1.5504,-1.5255,-1.5205,-1.5093,-1.4974,-1.4752,-1.4549,-1.4379,-1.4779,-1.4952,-1.4892,-1.4877,-1.4702,-1.4407,-1.4272,-1.4255,-1.4362,-1.4702,-1.4758,-1.4613,-1.4726,-1.4332,-1.364,-1.3587,-1.365,-1.3838,-1.4092,-1.4246,-1.4229,-1.3542,-1.3177,-1.288,-1.2123,-1.1395,-1.0876,-1.1262,-1.1111,-1.0816,-1.1158,-1.1237,-1.1104,-1.0684,-1.067,-1.0708,-1.0349,-1.0269,-1.0218,-0.992,-0.9686,-0.9279,-0.8311,-0.7806,-0.7566,-0.7639,-0.6632,-0.5989,-0.6707,-0.657,-0.6222,-0.5807,-0.5364,-0.5031,-0.4875,-0.4185,-0.3569,-0.3208,-0.2873,-0.2392,-0.1613,-0.0771,-0.0215,-0.0,0.1054,0.1598,0.1479,0.1896,0.2321,0.2621,0.3825,0.4686,0.508,0.584,0.6007,0.581,0.5663,0.551,0.0,0.0,0.0,0.0,0.0,-0.5175,0.0,0.0,0.0,-0.7132,0.0,0.0,0.0,0.0,0.0,0.0,0.0,0.0,0.0,0.0,0.0,0.0,0.0,0.0,0.0,-1.3782,-1.4373,-1.4686,-1.4507,-1.4442,-1.4553,-1.4545,-1.4434,-1.4156,-1.4346,-1.4443,-1.4319,-1.4617,-1.4607,-1.4242,-1.4877,-1.4771,-1.4065,-1.5167,-1.4964,-1.3823,-1.4428,-1.4079,-1.3092,-1.302,-1.3135,-1.3396,-1.3736,-1.3927,-1.4015,-1.4083,-1.3374,-1.2385,-1.2301,-1.1456,-1.0386,-1.0334,-1.0265,-1.0175,-1.0044,-0.9977,-0.9867,-0.9511,-0.9806,-1.014,-0.9795,-0.9878,-1.0047,-1.0092,-0.9843,-0.9306,-0.8228,-0.7663,-0.7243,-0.6833,-0.5907,-0.556,-0.6798,-0.6552,-0.5946,-0.5193,-0.4777,-0.4448,-0.4084,-0.3636,-0.3133,-0.2478,-0.2527,-0.2133,-0.0883,-0.0251,0.0319,0.082,0.1661,0.2227,0.234,0.25,0.3136,0.4167,0.4824,0.5286,0.5484,0.6214,0.6372,0.6062,0.5864,0.5785,0.0,0.0,0.0,0.0,-0.5127,0.0,0.0,0.0,-0.5323,-0.5159,0.0,0.0,0.0,0.0,0.0,0.0,0.0,0.0,0.0,0.0,0.0,0.0,0.0,0.0,0.0,0.0,-1.2244,-1.4505,-1.41,-1.4011,-1.4747,-1.4725,-1.4349,-1.363,-1.3668,-1.347,-1.2914,-1.3357,-1.3624,-1.3697,-1.3891,-1.4178,-1.4527,-1.4428,-1.4422,-1.4498,-1.4522,-1.4105,-1.3441,-1.3357,-1.3171,-1.2909,-1.3244,-1.3632,-1.3916,-1.3297,-1.3077,-1.301,-1.2417,-1.1714,-1.1089,-1.1086,-1.0676,-1.0174,-1.0044,-1.0047,-1.004,-0.9873,-0.9722,-0.956,-0.9403,-0.9041,-0.8702,-0.864,-0.838,-0.799,-0.7431,-0.6858,-0.6481,-0.6593,-0.5806,-0.5367,-0.6175,-0.5808,-0.5222,-0.4678,-0.4361,-0.3983,-0.3452,-0.3166,-0.2835,-0.2431,-0.2104,-0.1704,-0.1192,0.0285,0.1215,0.117,0.2345,0.2949,0.2738,0.2945,0.411,0.6378,0.5686,0.5807,0.6937,0.7068,0.6639,0.5851,0.5887,0.5978,0.0,0.0,0.0,0.0,0.0,0.0,-0.6521,0.0,-0.4872,0.0,0.0,0.0,0.0,0.0,0.0,0.0,0.0,0.0,0.0,0.0,0.0,0.0,0.0,0.0,0.0,0.0,0.0,0.0,0.0,-1.2194,-1.2675,-1.3335,-1.3447,-1.2885,-1.2968,-1.2824,-1.2401,-1.3064,-1.3382,-1.3365,-1.3585,-1.3794,-1.4007,-1.409,-1.3981,-1.3675,-1.3662,-1.3297,-1.2673,-1.2418,-1.2343,-1.2411,-1.2729,-1.3108,-1.3534,-1.3475,-1.329,-1.2997,-1.2798,-1.2307,-1.1722,-1.1362,-1.0773,-1.0195,-1.0122,-1.0088,-1.0037,-0.9968,-0.984,-0.9718,-0.9614,-0.9278,-0.8929,-0.8784,-0.8494,-0.8158,-0.7796,-0.7306,-0.6852,-0.6584,-0.5993,-0.5509,-0.5511,-0.5552,-0.5365,-0.4666,-0.4197,-0.3765,-0.3349,-0.2878,-0.232,-0.1718,-0.1965,-0.1719,-0.0672,0.0376,0.1105,0.1305,0.2885,0.3923,0.4207,0.4508,0.5185,0.6129,0.6022,0.6197,0.6605,0.6897,0.6811,0.6321,0.6554,0.6662,-0.9079,0.0,0.0,0.0,0.0,0.0,0.0,0.0,0.0,0.0,0.0,0.0,0.0,0.0,0.0,0.0,0.0,0.0,0.0,0.0,0.0,0.0,0.0,0.0,0.0,0.0,0.0,-1.0672,-1.0489,-1.0526,-1.1191,-1.2257,-1.2683,-1.2283,-1.2479,-1.2351,-1.1799,-1.2722,-1.3087,-1.2859,-1.3216,-1.3415,-1.3391,-1.3728,-1.3448,-1.2719,-1.2869,-1.2512,-1.1822,-1.1506,-1.1637,-1.201,-1.2309,-1.2676,-1.3125,-1.362,-1.3521,-1.3158,-1.3365,-1.2886,-1.2094,-1.1479,-1.0795,-1.0192,-1.0175,-1.0119,-1.0044,-1.0035,-0.9995,-0.9936,-0.9848,-0.9592,-0.9296,-0.9054,-0.879,-0.842,-0.7865,-0.7459,-0.6999,-0.6303,-0.5772,-0.5352,-0.5056,-0.5318,-0.526,-0.4343,-0.3897,-0.3444,-0.293,-0.2335,-0.1703,-0.0993,-0.1517,-0.14,-0.0124,0.0371,0.1096,0.2184,0.3555,0.4699,0.5575,0.5885,0.6048,0.6109,0.6423,0.6559,0.6459,0.7007,0.7229,0.7182,0.7318,0.7403,0.0,0.0,0.0,-1.0451,0.0,0.0,0.0,0.0,-0.7259,0.0,0.0,0.0,0.0,0.0,0.0,0.0,0.0,0.0,0.0,0.0,0.0,0.0,0.0,0.0,0.0,0.0,0.0,-0.8462,-0.8756,-0.9594,-1.1217,-1.2063,-1.2371,-1.2005,-1.2392,-1.1994,-1.0764,-1.2004,-1.2397,-1.1945,-1.2614,-1.2894,-1.2849,-1.3182,-1.2814,-1.1974,-1.2342,-1.2028,-1.1233,-1.1136,-1.1341,-1.1753,-1.2087,-1.2411,-1.2785,-1.3393,-1.3648,-1.3739,-1.4114,-1.3361,-1.2083,-1.1421,-1.0752,-1.0187,-1.0123,-1.0155,-1.0172,-1.0125,-1.0111,-1.0056,-0.9924,-0.9694,-0.9413,-0.9082,-0.8894,-0.8428,-0.7131,-0.6785,-0.6457,-0.5526,-0.4914,-0.4641,-0.494,-0.4953,-0.4544,-0.3431,-0.3229,-0.2867,-0.188,-0.141,-0.0972,-0.0569,-0.0592,-0.0433,0.0157,0.0399,0.1611,0.4247,0.4341,0.5023,0.6615,0.6411,0.6567,0.7136,0.6906,0.6856,0.7046,0.791,0.8326,0.8337,0.8063,0.8166,0.0,0.0,-1.4977,-1.3517,0.0,0.0,0.0,0.0,0.0,0.0,0.0,0.0,0.0,0.0,0.0,0.0,0.0,0.0,0.0,0.0,0.0,0.0,0.0,0.0,0.0,0.0,0.0,-0.63,-0.6248,-0.6514,0.0,-0.9247,-1.0215,-0.9975,-1.1418,-1.1948,-1.1423,-1.2335,-1.267,-1.2435,-1.2506,-1.2603,-1.2638,-1.2567,-1.2365,-1.2146,-1.1869,-1.1523,-1.1147,-1.1401,-1.1538,-1.1696,-1.2396,-1.2841,-1.3129,-1.3314,-1.3428,-1.3492,-1.3845,-1.3369,-1.2594,-1.2603,-1.1812,-1.0867,-1.0887,-1.0534,-1.0136,-1.0154,-1.0133,-1.0094,-1.0048,-0.9934,-0.9736,-0.9365,-0.9099,-0.8745,-0.8013,-0.7737,-0.7338,-0.6414,-0.5911,-0.5472,-0.5022,-0.4792,-0.4646,-0.4431,-0.3714,-0.3155,-0.2987,-0.217,-0.1306,-0.0503,-0.048,-0.0156,0.0861,0.1416,0.2735,0.5182,0.5215,0.591,0.7623,0.7417,0.7305,0.7438,0.7182,0.7027,0.7021,0.7826,0.8244,0.8449,0.9266,0.9462,-1.735,-1.7866,0.0,-1.6381,-1.5389,0.0,-1.3088,0.0,0.0,0.0,0.0,0.0,0.0,0.0,0.0,0.0,0.0,0.0,0.0,-0.3698,0.0,0.0,0.0,0.0,0.0,0.0,-0.3296,-0.4382,-0.4467,-0.4686,0.0,0.0,-0.8727,-0.8727,-1.0781,-1.1542,-1.0925,-1.2055,-1.249,-1.2206,-1.2058,-1.218,-1.2599,-1.2267,-1.2002,-1.1865,-1.1579,-1.1253,-1.0965,-1.1406,-1.1641,-1.1791,-1.2571,-1.3048,-1.3279,-1.3248,-1.3295,-1.3444,-1.3648,-1.3247,-1.2704,-1.3045,-1.2362,-1.1389,-1.1277,-1.0902,-1.047,-1.0262,-1.0175,-1.0127,-1.0108,-1.0047,-0.9896,-0.9471,-0.9251,-0.8954,-0.83,-0.8065,-0.7724,-0.6783,-0.6342,-0.5885,-0.5147,-0.4814,-0.4581,-0.4313,-0.3662,-0.3053,-0.2685,-0.1869,-0.0937,0.0067,0.0404,0.095,0.2007,0.2176,0.3209,0.5489,0.5572,0.6324,0.8043,0.7895,0.7764,0.772,0.7597,0.7514,0.7509,0.8416,0.8884,0.8948,1.0285,1.062]},{"header":{"parameterUnit":"m.s-1","parameterCategory":1,"la1":30.6,"la2":29.2853,"lo1":-89.7004,"lo2":-87.6739,"dy":0.0162,"dx":0.0183,"nx":112,"ny":82,"refTime":"2023-05-01T00:00:00:Z","depth":0,"parameterNumber":3,"parameterNumberName":"V-component_of_WINDS"},"data":[0.0,0.0,0.0,0.0,0.0,0.0,0.0,0.0,0.0,0.0,0.0,0.0,0.0,0.0,0.0,0.0,0.0,0.0,0.0,0.0,0.0,0.0,0.0,0.0,0.0,0.0,0.0,0.0,0.0,0.0,0.0,0.0,0.0,0.0,0.0,0.0,0.0,0.0,0.0,0.0,0.0,0.0,0.0,0.0,0.0,0.0,0.0,0.0,0.0,0.0,0.0,0.0,0.0,0.0,0.0,0.0,0.0,0.0,0.0,0.0,0.0,0.0,0.0,0.0,0.0,0.0,0.0,0.0,0.0,0.0,0.0,0.0,0.0,0.0,0.0,0.0,0.0,0.0,0.0,0.0,0.0,0.0,0.0,0.0,0.0,0.0,0.0,0.0,0.0,0.0,0.0,-2.9433,-3.5554,-3.972,-4.066,-3.8717,-3.4961,-2.9102,0.0,0.0,0.0,0.0,0.0,0.0,0.0,0.0,0.0,0.0,0.0,0.0,0.0,0.0,0.0,0.0,0.0,0.0,0.0,0.0,0.0,0.0,0.0,0.0,0.0,0.0,0.0,0.0,0.0,0.0,0.0,0.0,0.0,0.0,0.0,0.0,0.0,0.0,0.0,0.0,0.0,0.0,0.0,0.0,0.0,0.0,0.0,0.0,0.0,0.0,0.0,0.0,0.0,0.0,0.0,0.0,0.0,0.0,0.0,0.0,0.0,0.0,0.0,0.0,0.0,0.0,0.0,0.0,0.0,0.0,0.0,0.0,0.0,0.0,0.0,0.0,0.0,0.0,0.0,0.0,0.0,0.0,0.0,0.0,0.0,0.0,0.0,0.0,0.0,0.0,0.0,0.0,0.0,0.0,0.0,0.0,0.0,0.0,0.0,0.0,0.0,0.0,0.0,0.0,-2.8815,-3.6806,-3.987,-4.1332,-4.1305,-3.8019,-3.4395,-3.0833,0.0,0.0,0.0,0.0,0.0,0.0,0.0,0.0,0.0,0.0,0.0,0.0,0.0,0.0,0.0,0.0,0.0,0.0,0.0,0.0,0.0,0.0,0.0,0.0,0.0,0.0,0.0,0.0,0.0,0.0,0.0,0.0,0.0,0.0,0.0,0.0,0.0,0.0,0.0,0.0,0.0,0.0,0.0,0.0,0.0,0.0,0.0,0.0,0.0,0.0,0.0,0.0,0.0,0.0,0.0,0.0,0.0,0.0,0.0,0.0,0.0,0.0,0.0,0.0,0.0,0.0,0.0,0.0,0.0,0.0,0.0,0.0,0.0,0.0,0.0,0.0,0.0,0.0,0.0,0.0,0.0,0.0,0.0,0.0,0.0,0.0,0.0,0.0,0.0,0.0,0.0,0.0,0.0,0.0,0.0,0.0,0.0,0.0,0.0,0.0,0.0,0.0,0.0,-2.8156,-3.2804,-3.8657,-4.0639,-4.151,-4.1377,-3.7985,-3.4525,-3.1218,-2.7969,0.0,0.0,0.0,0.0,0.0,0.0,0.0,0.0,0.0,0.0,0.0,0.0,0.0,0.0,0.0,0.0,0.0,0.0,0.0,0.0,0.0,0.0,0.0,0.0,0.0,0.0,0.0,0.0,0.0,0.0,0.0,0.0,0.0,0.0,0.0,0.0,0.0,0.0,0.0,0.0,0.0,0.0,0.0,0.0,0.0,0.0,0.0,0.0,0.0,0.0,0.0,0.0,0.0,0.0,0.0,0.0,0.0,0.0,0.0,0.0,0.0,0.0,0.0,0.0,0.0,0.0,0.0,0.0,0.0,0.0,0.0,0.0,0.0,0.0,0.0,0.0,0.0,0.0,0.0,0.0,0.0,0.0,0.0,0.0,0.0,0.0,0.0,0.0,0.0,0.0,0.0,0.0,0.0,0.0,0.0,0.0,0.0,0.0,0.0,0.0,0.0,0.0,-3.2364,-3.5839,-3.9345,-4.0822,-4.151,-4.1379,-3.8299,-3.4908,-3.1375,-2.8213,0.0,0.0,0.0,0.0,0.0,0.0,0.0,0.0,0.0,0.0,0.0,0.0,0.0,0.0,0.0,0.0,0.0,0.0,0.0,0.0,0.0,0.0,0.0,0.0,0.0,0.0,0.0,0.0,0.0,0.0,0.0,0.0,0.0,0.0,0.0,0.0,0.0,0.0,0.0,0.0,0.0,0.0,0.0,0.0,0.0,0.0,0.0,0.0,0.0,0.0,0.0,0.0,0.0,0.0,0.0,0.0,0.0,0.0,0.0,0.0,0.0,0.0,0.0,0.0,0.0,0.0,0.0,0.0,0.0,0.0,0.0,0.0,0.0,0.0,0.0,0.0,0.0,0.0,0.0,0.0,0.0,0.0,0.0,0.0,0.0,0.0,0.0,0.0,0.0,0.0,0.0,0.0,0.0,0.0,0.0,0.0,0.0,0.0,0.0,0.0,0.0,0.0,-3.2345,-3.6696,-4.0794,-4.1945,-4.223,-4.1701,-3.8749,-3.5416,-3.1799,-2.9219,0.0,0.0,0.0,0.0,0.0,0.0,0.0,0.0,0.0,0.0,0.0,0.0,0.0,0.0,0.0,0.0,0.0,0.0,0.0,0.0,0.0,0.0,0.0,0.0,0.0,0.0,0.0,0.0,0.0,0.0,0.0,0.0,0.0,0.0,0.0,0.0,0.0,0.0,0.0,0.0,0.0,0.0,0.0,0.0,0.0,0.0,0.0,0.0,0.0,0.0,0.0,0.0,0.0,0.0,0.0,0.0,0.0,0.0,0.0,0.0,0.0,0.0,0.0,0.0,0.0,0.0,0.0,0.0,0.0,0.0,0.0,0.0,0.0,0.0,0.0,0.0,0.0,0.0,0.0,0.0,0.0,0.0,0.0,0.0,0.0,0.0,0.0,0.0,0.0,0.0,0.0,0.0,0.0,0.0,0.0,0.0,0.0,0.0,0.0,0.0,0.0,0.0,-3.397,-3.7792,0.0,-4.18,-4.1966,-4.1191,-3.8762,-3.5616,-3.1862,0.0,0.0,0.0,0.0,0.0,0.0,0.0,0.0,0.0,0.0,0.0,0.0,0.0,0.0,0.0,0.0,0.0,0.0,0.0,0.0,0.0,0.0,0.0,0.0,0.0,0.0,0.0,0.0,0.0,0.0,0.0,0.0,0.0,0.0,0.0,0.0,0.0,0.0,0.0,0.0,0.0,0.0,0.0,0.0,0.0,0.0,0.0,0.0,0.0,0.0,0.0,0.0,0.0,0.0,0.0,0.0,0.0,0.0,0.0,0.0,0.0,0.0,0.0,0.0,0.0,0.0,0.0,0.0,0.0,0.0,0.0,0.0,0.0,0.0,0.0,0.0,0.0,0.0,0.0,0.0,0.0,0.0,0.0,0.0,0.0,0.0,0.0,0.0,0.0,0.0,0.0,0.0,0.0,0.0,0.0,0.0,0.0,0.0,0.0,0.0,0.0,0.0,-3.0621,-3.4781,-3.8271,0.0,-4.1252,-4.1234,-4.0436,-3.847,-3.5593,-3.1655,0.0,0.0,0.0,0.0,0.0,0.0,0.0,0.0,0.0,0.0,0.0,0.0,0.0,0.0,0.0,0.0,0.0,0.0,0.0,0.0,0.0,0.0,0.0,0.0,0.0,0.0,0.0,0.0,0.0,0.0,0.0,0.0,0.0,0.0,0.0,0.0,0.0,0.0,0.0,0.0,0.0,0.0,0.0,0.0,0.0,0.0,0.0,0.0,0.0,0.0,0.0,0.0,0.0,0.0,0.0,0.0,0.0,0.0,0.0,0.0,0.0,0.0,0.0,0.0,0.0,0.0,0.0,0.0,0.0,0.0,0.0,0.0,0.0,0.0,0.0,0.0,0.0,0.0,0.0,0.0,0.0,0.0,0.0,0.0,0.0,0.0,0.0,0.0,0.0,0.0,0.0,0.0,0.0,0.0,0.0,0.0,0.0,0.0,0.0,0.0,0.0,0.0,-2.9927,-3.4375,-3.8077,-4.0259,-4.0464,-4.0192,-3.9564,-3.7976,-3.531,0.0,0.0,0.0,0.0,0.0,0.0,0.0,0.0,0.0,0.0,0.0,0.0,0.0,0.0,0.0,0.0,0.0,0.0,0.0,0.0,0.0,0.0,0.0,0.0,0.0,0.0,0.0,0.0,0.0,0.0,0.0,0.0,0.0,0.0,0.0,0.0,0.0,0.0,0.0,0.0,0.0,0.0,0.0,0.0,0.0,0.0,0.0,0.0,0.0,0.0,0.0,0.0,0.0,0.0,0.0,0.0,0.0,0.0,0.0,0.0,0.0,0.0,0.0,0.0,0.0,0.0,0.0,0.0,0.0,0.0,0.0,0.0,0.0,0.0,0.0,0.0,0.0,0.0,0.0,0.0,0.0,0.0,0.0,0.0,0.0,0.0,0.0,0.0,0.0,0.0,0.0,0.0,0.0,0.0,0.0,0.0,0.0,0.0,0.0,0.0,0.0,0.0,0.0,-3.1086,-3.5379,-3.8889,-4.0722,-4.1468,-4.1514,-4.0767,-3.9155,-3.6406,-3.2253,0.0,0.0,0.0,0.0,0.0,0.0,0.0,0.0,0.0,0.0,0.0,0.0,0.0,0.0,0.0,0.0,0.0,0.0,0.0,0.0,0.0,0.0,0.0,0.0,0.0,0.0,0.0,0.0,0.0,0.0,0.0,0.0,0.0,0.0,0.0,0.0,0.0,0.0,0.0,0.0,0.0,0.0,0.0,0.0,0.0,0.0,0.0,0.0,0.0,0.0,0.0,0.0,0.0,0.0,0.0,0.0,0.0,0.0,0.0,0.0,0.0,0.0,0.0,0.0,0.0,0.0,0.0,0.0,0.0,0.0,0.0,0.0,0.0,0.0,0.0,0.0,0.0,0.0,0.0,0.0,0.0,0.0,0.0,0.0,0.0,0.0,0.0,0.0,0.0,0.0,0.0,0.0,0.0,0.0,0.0,0.0,0.0,0.0,0.0,0.0,0.0,0.0,-3.141,-3.5552,-3.8918,-4.0712,-4.136,-4.1361,-4.0539,-3.9583,-3.7349,-3.3436,0.0,0.0,0.0,0.0,0.0,0.0,0.0,0.0,0.0,0.0,0.0,0.0,0.0,0.0,0.0,0.0,0.0,0.0,0.0,0.0,0.0,0.0,0.0,0.0,0.0,0.0,0.0,0.0,0.0,0.0,0.0,0.0,0.0,0.0,0.0,0.0,0.0,0.0,0.0,0.0,0.0,0.0,0.0,0.0,0.0,0.0,0.0,0.0,0.0,0.0,0.0,0.0,0.0,0.0,0.0,0.0,0.0,0.0,0.0,0.0,0.0,0.0,0.0,0.0,0.0,0.0,0.0,0.0,0.0,0.0,0.0,0.0,0.0,0.0,0.0,0.0,0.0,0.0,0.0,0.0,0.0,0.0,0.0,0.0,0.0,0.0,0.0,0.0,0.0,0.0,0.0,0.0,0.0,0.0,0.0,0.0,0.0,0.0,0.0,0.0,0.0,0.0,-3.127,-3.5215,-3.8462,-4.0323,-4.0592,-4.0331,-3.9595,-3.9528,-3.8075,-3.4732,0.0,0.0,0.0,0.0,0.0,0.0,0.0,0.0,0.0,0.0,0.0,0.0,0.0,0.0,0.0,0.0,0.0,0.0,0.0,0.0,0.0,0.0,0.0,0.0,0.0,0.0,0.0,0.0,0.0,0.0,0.0,0.0,0.0,0.0,0.0,0.0,0.0,0.0,0.0,0.0,0.0,0.0,0.0,0.0,0.0,0.0,0.0,0.0,0.0,0.0,0.0,0.0,0.0,0.0,0.0,0.0,0.0,0.0,0.0,0.0,-3.1037,0.0,0.0,0.0,0.0,0.0,0.0,0.0,0.0,0.0,0.0,0.0,0.0,0.0,0.0,0.0,0.0,0.0,0.0,0.0,0.0,0.0,0.0,0.0,0.0,0.0,0.0,0.0,0.0,0.0,0.0,0.0,0.0,0.0,0.0,0.0,0.0,0.0,0.0,0.0,0.0,0.0,-3.2193,-3.5863,-3.8597,-3.9699,-4.0421,-4.076,-4.0583,-4.0015,-3.8469,-3.567,-3.3864,0.0,0.0,0.0,0.0,0.0,0.0,0.0,0.0,0.0,0.0,0.0,0.0,0.0,0.0,0.0,0.0,0.0,0.0,0.0,0.0,0.0,0.0,0.0,0.0,0.0,0.0,0.0,0.0,0.0,0.0,0.0,0.0,0.0,0.0,0.0,0.0,0.0,0.0,0.0,0.0,0.0,0.0,0.0,0.0,0.0,0.0,0.0,0.0,0.0,0.0,0.0,0.0,0.0,0.0,0.0,0.0,0.0,0.0,0.0,0.0,-3.2428,0.0,0.0,0.0,0.0,0.0,0.0,0.0,0.0,0.0,0.0,0.0,0.0,0.0,0.0,0.0,0.0,0.0,0.0,0.0,0.0,0.0,0.0,0.0,0.0,0.0,0.0,0.0,0.0,0.0,0.0,0.0,0.0,0.0,0.0,0.0,0.0,0.0,0.0,0.0,0.0,-3.2655,-3.6164,-3.8831,-4.0095,-4.0666,-4.0944,-4.0953,-4.0598,-3.9458,-3.7269,-3.5474,0.0,0.0,0.0,0.0,0.0,0.0,0.0,0.0,0.0,0.0,0.0,0.0,0.0,0.0,0.0,0.0,0.0,0.0,0.0,0.0,0.0,0.0,0.0,0.0,0.0,0.0,0.0,0.0,0.0,0.0,0.0,0.0,0.0,0.0,0.0,0.0,0.0,0.0,0.0,0.0,0.0,0.0,0.0,0.0,0.0,0.0,0.0,0.0,0.0,0.0,0.0,0.0,0.0,-3.4621,-3.5425,-3.5755,-3.6626,-3.7308,-3.7754,-3.6775,-3.5683,-3.4465,0.0,0.0,0.0,0.0,0.0,0.0,0.0,0.0,0.0,0.0,0.0,0.0,0.0,0.0,0.0,0.0,0.0,0.0,0.0,0.0,0.0,0.0,0.0,0.0,0.0,-3.1834,-3.1347,0.0,0.0,0.0,0.0,0.0,0.0,0.0,0.0,0.0,0.0,0.0,0.0,-3.3305,-3.6604,-3.9237,-4.0776,-4.0982,-4.1016,-4.1013,-4.1066,-4.0449,-3.8926,-3.7281,-3.5559,0.0,0.0,0.0,0.0,0.0,0.0,0.0,0.0,0.0,0.0,0.0,0.0,0.0,0.0,0.0,0.0,0.0,0.0,0.0,0.0,0.0,0.0,0.0,0.0,0.0,0.0,0.0,0.0,0.0,0.0,0.0,0.0,-2.8951,-3.0477,0.0,0.0,0.0,0.0,0.0,0.0,0.0,0.0,0.0,0.0,0.0,0.0,0.0,0.0,-3.3017,-3.6045,-3.7369,-3.7092,-4.0131,-4.0797,-3.9336,-4.0268,-4.0517,-4.0118,-3.939,0.0,-3.7436,-3.5889,0.0,0.0,0.0,0.0,0.0,0.0,0.0,0.0,0.0,0.0,0.0,0.0,0.0,0.0,0.0,0.0,0.0,0.0,0.0,0.0,0.0,0.0,-3.6091,-3.7113,-3.6758,-3.6075,0.0,-3.2131,-2.9217,-2.9919,0.0,0.0,0.0,0.0,0.0,0.0,0.0,0.0,-3.512,-3.79,-3.9981,-4.0971,-4.1077,-4.1086,-4.1094,-4.1092,-4.0719,-3.9783,-3.8789,-3.7127,-3.463,-3.5269,0.0,0.0,0.0,0.0,0.0,0.0,0.0,0.0,0.0,0.0,0.0,0.0,0.0,0.0,0.0,0.0,0.0,0.0,0.0,0.0,0.0,0.0,0.0,0.0,0.0,0.0,0.0,0.0,0.0,-2.8514,-3.1009,-3.1185,-3.1525,-3.0791,0.0,0.0,0.0,0.0,0.0,0.0,0.0,0.0,0.0,-3.2449,-3.4269,-3.5522,-3.6038,-3.8598,-3.9931,-4.0051,-4.2021,-4.279,-4.2434,-4.2384,-4.2529,-4.2656,-4.1115,-4.0201,-3.9656,-3.7465,-3.5577,-3.3897,0.0,0.0,0.0,0.0,0.0,-3.0434,-3.0738,-3.1565,0.0,0.0,0.0,0.0,0.0,0.0,0.0,0.0,0.0,0.0,0.0,0.0,0.0,-3.7576,-3.7576,-3.7223,-3.7055,-3.5014,-3.2928,0.0,-3.0882,-2.9682,-2.8337,0.0,0.0,0.0,0.0,0.0,-3.6639,-3.8097,-3.9174,-4.0046,-4.0147,-4.0187,-4.0257,-4.073,-4.0727,-3.9947,-3.9506,-3.8339,-3.6249,-3.6521,-3.571,0.0,0.0,0.0,0.0,0.0,0.0,0.0,0.0,0.0,0.0,0.0,0.0,0.0,0.0,0.0,0.0,0.0,0.0,0.0,0.0,0.0,0.0,0.0,0.0,0.0,0.0,0.0,0.0,-3.1066,-3.2567,-3.2219,-3.3037,-3.2335,0.0,0.0,0.0,0.0,0.0,0.0,-3.1654,-3.2889,-3.4066,-3.5052,-3.7253,-3.8628,-3.9116,-4.0942,-4.2032,-4.2291,-4.316,-4.3744,-4.396,-4.3616,-4.366,-4.3961,-4.231,-4.1468,-4.113,-3.8671,-3.6599,-3.4856,-3.3584,-3.2437,-3.1469,-3.1311,-3.1409,-3.1779,-3.3063,-3.437,-3.5484,-3.5526,0.0,-3.341,-3.2158,0.0,0.0,0.0,0.0,-3.2242,-3.3709,-3.5023,-3.63,-3.7754,-3.8099,-3.7985,-3.7583,-3.6958,-3.5976,0.0,-3.3209,-3.2169,-3.0882,0.0,0.0,0.0,0.0,-3.4689,-3.6999,-3.7742,-3.8319,-3.8969,-3.9041,-3.9179,-3.9516,-4.022,-4.0401,-3.988,-3.963,-3.8836,-3.7354,-3.709,-3.6323,-3.4973,0.0,0.0,0.0,0.0,0.0,0.0,0.0,0.0,0.0,0.0,0.0,0.0,0.0,0.0,0.0,0.0,0.0,0.0,0.0,0.0,0.0,0.0,0.0,0.0,0.0,0.0,0.0,0.0,0.0,-3.4671,-3.6185,0.0,0.0,0.0,0.0,-3.1038,-3.1949,-3.3307,-3.5126,-3.647,-3.8264,-4.0704,-4.1574,-4.2411,-4.3218,-4.401,-4.415,-4.3727,-4.4521,-4.4278,-4.3192,-4.382,-4.3712,-4.3087,-4.2925,-4.2365,-4.1434,-3.9655,-3.8427,-3.7584,-3.6253,-3.5236,-3.4249,-3.2385,-3.1773,-3.2084,-3.3564,-3.5962,-3.8338,-3.7951,-3.6396,-3.4017,-3.081,-2.9794,0.0,0.0,-3.1438,-3.3505,-3.4433,-3.6443,-3.8466,-3.9444,-3.9673,-3.9442,-3.8531,-3.7768,-3.7243,0.0,-3.6042,-3.5009,-3.4904,0.0,-3.4352,-3.279,-3.476,-3.6152,-3.5422,-3.6889,-3.8022,-3.8061,-3.8063,-3.8429,-3.9325,-3.9571,-3.9682,-3.9708,-3.9056,-3.8258,-3.7337,-3.6501,-3.6013,-3.5935,-3.4293,0.0,0.0,0.0,0.0,0.0,0.0,0.0,0.0,0.0,0.0,0.0,0.0,0.0,0.0,0.0,0.0,0.0,0.0,0.0,0.0,0.0,0.0,0.0,0.0,0.0,0.0,0.0,0.0,-3.4264,-3.5315,0.0,-3.3959,-3.2777,-3.2191,-3.2465,-3.403,-3.5513,-3.6627,-3.7931,-3.9191,-4.0272,-4.1096,-4.1671,-4.2013,-4.2421,-4.2479,-4.209,-4.244,-4.247,-4.2257,-4.1588,-4.1595,-4.2048,-4.0892,-4.0675,-4.1033,-4.0293,-3.9102,-3.7776,-3.718,-3.657,-3.5911,-3.5393,-3.563,-3.6217,-3.5932,-3.6988,-3.8258,-3.6955,-3.5475,-3.4041,-3.2825,-3.2518,-3.2716,-3.3337,-3.4517,-3.5768,-3.6621,-3.7871,-3.8964,-3.9167,-3.9216,-3.9115,-3.8665,-3.8457,-3.8196,-3.7723,-3.6494,-3.5531,-3.5512,-3.5411,-3.5181,-3.4775,-3.5457,-3.612,-3.6444,-3.6653,-3.6781,-3.6781,-3.6862,-3.7294,-3.8298,-3.9011,-3.9704,-4.0422,-3.9739,-3.895,-3.818,-3.7309,-3.6576,-3.6015,-3.5386,-3.3944,0.0,0.0,0.0,0.0,0.0,0.0,0.0,0.0,0.0,0.0,0.0,0.0,0.0,0.0,0.0,0.0,0.0,0.0,0.0,0.0,0.0,0.0,0.0,0.0,0.0,0.0,-3.2013,-3.3727,-3.4801,-3.5078,-3.4441,-3.3696,-3.3632,-3.4448,-3.5985,-3.7275,-3.8164,-3.9412,-4.029,-4.0786,-4.0894,-4.091,-4.0855,-4.1291,-4.1461,-4.1196,-4.0972,-4.1155,-4.1627,-4.041,-4.0205,-4.0695,-3.9921,-3.9753,-4.0117,-4.0417,-3.9635,-3.8304,-3.7985,-3.7621,-3.7327,-3.7901,-3.8227,-3.8322,-3.7626,-3.7457,-3.7408,-3.6353,-3.5327,-3.4458,-3.4284,-3.4502,-3.494,-3.5565,-3.6305,-3.7017,-3.7432,-3.8245,-3.8855,-3.8615,-3.8664,-3.8743,-3.867,-3.832,-3.7993,-3.8029,-3.6972,-3.5899,-3.536,-3.4923,-3.4587,-3.4212,-3.4135,-3.4247,-3.4655,-3.4792,-3.487,-3.4908,-3.5723,-3.6555,-3.7274,-3.7723,-3.8427,-3.9482,-3.8572,-3.7936,-3.7731,-3.6606,-3.5712,-3.5128,-3.455,-3.3383,-3.1601,0.0,0.0,0.0,0.0,0.0,0.0,0.0,0.0,0.0,0.0,0.0,0.0,0.0,0.0,0.0,0.0,0.0,0.0,0.0,0.0,0.0,0.0,0.0,-2.7267,-2.9911,-3.2083,-3.3376,-3.5015,-3.6019,-3.5992,-3.5704,-3.5969,-3.7044,-3.7552,-3.8463,-3.9899,-4.0857,-4.1671,-4.2544,-4.1162,-4.0319,-3.9982,-4.0967,-4.1308,-4.1112,-4.0504,-4.0504,-4.1112,-4.0504,-3.9843,-3.9164,-4.0201,-3.9899,-3.8809,-3.9886,-3.9902,-3.9198,-3.8701,-3.8388,-3.845,-3.9649,-3.9174,-3.797,-3.83,-3.7358,-3.6077,-3.6449,-3.6083,-3.5411,-3.4872,-3.529,-3.597,-3.5988,-3.6583,-3.7071,-3.6726,-3.7522,-3.83,-3.798,-3.8165,-3.846,-3.8554,-3.7326,-3.6714,-3.8273,-3.7609,-3.6279,-3.4773,-3.3848,-3.2786,-3.1117,-3.0995,0.0,-3.0047,-3.1426,-3.252,-3.2705,-3.4773,-3.6217,-3.642,-3.5801,-3.5839,-3.6871,-3.5563,-3.5152,-3.5991,-3.439,-3.3476,-3.3478,-3.1775,-3.1704,-3.3389,0.0,0.0,0.0,0.0,0.0,0.0,0.0,0.0,0.0,0.0,0.0,0.0,0.0,0.0,0.0,0.0,0.0,0.0,0.0,0.0,0.0,0.0,-2.4893,-2.6986,-2.9323,-3.1749,-3.4419,-3.5234,-3.5583,-3.5799,-3.534,-3.5211,-3.5481,-3.59,-3.657,-3.7599,-3.6983,-3.6838,-3.7463,-3.7132,-3.6797,-3.6529,-3.7714,-3.8419,-3.8522,-3.8368,-3.8639,-3.9326,-3.8464,-3.8478,-3.9035,-3.6498,-3.6557,-3.8397,-3.7884,-3.789,-3.8272,-3.938,-3.9156,-3.8296,-3.9171,-3.8925,-3.7984,-3.7189,-3.6742,-3.6457,-3.6178,-3.5634,-3.5062,-3.5019,-3.5039,-3.5221,-3.593,-3.6252,-3.6557,-3.7322,-3.7558,-3.7649,-3.7808,-3.7703,-3.7542,-3.7578,-3.7238,-3.6719,-3.602,-3.6103,-3.6363,-3.6609,-3.5549,-3.453,-3.4092,-3.3626,0.0,-3.3085,-3.3607,-3.4257,-3.5001,-3.4717,-3.5243,-3.7164,-3.6151,-3.6068,-3.7595,-3.6869,-3.6495,-3.6785,-3.5818,-3.5291,-3.5296,-3.3535,-3.2842,0.0,0.0,0.0,0.0,0.0,0.0,0.0,0.0,0.0,0.0,0.0,0.0,0.0,0.0,0.0,0.0,0.0,0.0,0.0,0.0,0.0,0.0,-2.3886,-2.5196,-2.6387,-2.8517,-3.0775,-3.3007,-3.3684,-3.4126,-3.4544,-3.4366,-3.4461,-3.51,-3.5123,-3.5402,-3.6175,-3.5951,-3.5339,-3.4183,-3.5509,-3.5826,-3.4808,-3.647,-3.7191,-3.6959,-3.7234,-3.7508,-3.7766,-3.725,-3.7289,0.0,-3.567,-3.5544,-3.6796,-3.6919,-3.7056,0.0,0.0,0.0,0.0,0.0,-3.6979,-3.6699,-3.6022,-3.5615,-3.5488,-3.568,-3.544,-3.5113,-3.5313,-3.5155,-3.5013,-3.5632,-3.5446,-3.528,-3.62,-3.6738,-3.7131,-3.755,-3.7898,-3.8182,-3.8182,-3.7155,-3.6128,-3.5845,0.0,0.0,-3.6455,-3.5075,-3.3725,-3.3629,-3.3032,-3.2641,-3.2901,-3.3623,-3.4237,-3.451,-3.4698,-3.5284,-3.6517,-3.5515,0.0,0.0,0.0,-3.545,-3.5554,-3.5145,0.0,0.0,0.0,-3.2611,-3.3348,0.0,0.0,0.0,-3.438,-3.4466,0.0,0.0,0.0,0.0,0.0,0.0,0.0,0.0,0.0,0.0,0.0,0.0,0.0,0.0,0.0,0.0,-2.4124,-2.5137,-2.5404,-2.7357,-2.9172,-3.0181,-3.1133,-3.1814,-3.2319,-3.2543,-3.3289,-3.4691,-3.435,-3.4362,-3.5101,0.0,0.0,0.0,0.0,-3.5814,-3.3986,-3.6032,-3.6762,-3.6067,-3.6573,-3.674,-3.6548,-3.6459,-3.6218,-3.5926,-3.6321,-3.5889,-3.4853,-3.6429,-3.6685,-3.6254,-3.7216,-3.7066,-3.6199,-3.4716,-3.4552,-3.5072,-3.4969,0.0,0.0,-3.5256,-3.5492,-3.5428,-3.5789,-3.5553,-3.5173,-3.5313,-3.4616,-3.3939,-3.45,-3.5545,-3.6612,-3.7148,-3.829,-3.9236,-3.913,-3.6872,-3.5271,-3.6544,-3.4111,-3.2639,-3.5137,-3.3604,-3.2014,-3.1909,-3.1407,-3.1195,-3.1619,-3.2994,-3.3713,-3.3234,0.0,0.0,-3.5435,-3.4626,-3.4537,-3.5412,-3.4212,-3.3531,-3.3671,-3.3682,-3.2965,-3.1425,-3.1484,-3.2284,-3.384,-3.4661,-3.6289,-3.8576,-3.5415,-3.5616,0.0,0.0,0.0,0.0,0.0,0.0,0.0,0.0,0.0,0.0,0.0,0.0,0.0,0.0,0.0,-2.2226,-2.3561,-2.4417,-2.4098,-2.5368,-2.6854,-2.8105,-2.8704,-2.8655,-2.7814,-2.9046,-3.011,-3.0586,-3.1143,-3.1993,-3.2989,-3.2268,0.0,-3.1419,-3.2094,-3.2233,-3.1774,-3.3687,-3.4658,-3.4723,0.0,0.0,-3.5775,-3.5911,-3.5905,-3.5804,-3.5147,-3.4693,-3.4459,-3.4424,-3.479,-3.5334,-3.6447,-3.7075,-3.7077,-3.5591,-3.5486,-3.5912,-3.5037,-3.5065,-3.5573,-3.6156,-3.5949,-3.5681,-3.6454,-3.6156,0.0,-3.5668,-3.5462,-3.5314,-3.5797,-3.5872,-3.5942,-3.6488,-3.7215,-3.7556,-3.6705,-3.6028,-3.5326,-3.4318,-3.4648,-3.5025,-3.4853,-3.4365,-3.4389,-3.542,-3.5565,-3.5602,-3.5814,-3.6179,-3.6666,-3.7349,-3.6768,-3.6556,-3.7072,-3.5902,-3.5182,-3.534,-3.5252,-3.5287,-3.5402,-3.5474,-3.5333,-3.5003,-3.5678,-3.6209,-3.6541,-3.74,-3.8418,-3.9525,-3.8834,-3.9202,0.0,0.0,0.0,0.0,0.0,0.0,0.0,0.0,0.0,0.0,0.0,-2.4406,0.0,0.0,-2.37,-2.2953,-2.3467,-2.3888,-2.3603,-2.3847,-2.4744,-2.6472,-2.7032,-2.7121,-2.6587,-2.7514,-2.8193,-2.8406,-2.9167,-2.9901,-3.0514,-3.0756,-3.0667,-3.0216,-3.1275,-3.1551,-3.0742,-3.2345,-3.2972,-3.2605,-3.3186,-3.3621,-3.4147,-3.4211,-3.4612,-3.5305,-3.4523,-3.3988,-3.3537,-3.2928,-3.3233,-3.417,-3.5112,-3.5797,-3.6102,-3.5062,-3.4888,-3.5197,-3.5037,-3.5231,-3.5662,-3.6257,-3.6089,-3.578,-3.6195,-3.5864,-3.5335,-3.5446,-3.5363,-3.5238,-3.5065,-3.5914,-3.7016,-3.775,-3.8239,-3.8403,-3.786,-3.6823,-3.577,-3.4976,-3.4823,-3.496,-3.5197,-3.5243,-3.5796,-3.7364,-3.7359,-3.7307,-3.7561,-3.7676,-3.7769,-3.7945,-3.7356,-3.6938,-3.6882,-3.5952,-3.536,-3.5411,-3.5596,-3.5765,-3.5888,-3.5962,-3.62,-3.6638,-3.7075,-3.7512,-3.7948,-3.8828,-3.9453,-3.9859,-4.0306,-4.0652,0.0,0.0,0.0,0.0,0.0,0.0,0.0,0.0,-2.6351,-2.7968,-2.6885,-2.6048,-2.7384,-2.6374,-2.4907,-2.3356,-2.3156,-2.3069,-2.2526,-2.2161,-2.262,-2.4548,-2.5432,-2.5872,-2.5872,-2.6372,-2.6788,-2.6779,-2.7533,-2.8038,-2.796,-2.9609,-2.9959,-2.8755,-3.0767,-3.1182,-2.9814,-3.1136,-3.1412,-3.073,-3.1262,-3.1853,-3.2394,-3.2486,-3.3244,-3.4366,-3.4166,-3.3437,-3.245,-3.1902,-3.2213,-3.3047,-3.3815,-3.4471,-3.4906,-3.4562,-3.4454,-3.4496,-3.5091,-3.5225,-3.5228,-3.6109,-3.6065,-3.5762,-3.6042,-3.5622,-3.5137,-3.5408,-3.5397,-3.5159,-3.4609,-3.6017,-3.7843,-3.8787,-3.898,-3.9015,-3.9015,-3.7524,-3.6131,-3.5994,-3.5059,-3.4645,-3.5711,-3.6017,-3.672,-3.8345,-3.8136,-3.7961,-3.8403,-3.8501,-3.8348,-3.7822,-3.7921,-3.7661,-3.6806,-3.5997,-3.5656,-3.5932,-3.5784,-3.5875,-3.634,-3.6105,-3.6476,-3.7536,-3.7555,-3.7977,-3.8848,-3.9726,-4.0156,-4.0172,-4.0869,-4.113,-2.4129,-2.2126,-2.2674,-2.8664,-2.7968,-2.6849,0.0,0.0,-3.0688,-3.0003,-2.9314,-2.8584,-2.78,-2.6477,-2.4729,-2.2221,-2.1976,-2.1368,-1.9265,-1.9625,-2.043,-2.1465,-2.2974,-2.3689,-2.3456,-2.4103,-2.4744,-2.4939,-2.559,-2.5865,-2.5824,-2.6941,-2.7211,-2.6594,-2.8215,-2.8812,-2.8447,-2.9737,-3.0247,-2.9897,-3.0651,-3.1062,-3.1163,-3.1977,-3.2426,-3.2624,-3.3322,-3.2852,-3.1669,-3.204,-3.2088,-3.2063,-3.3185,-3.3998,-3.4743,-3.5824,-3.5753,-3.5156,-3.568,-3.5319,-3.4841,-3.5969,-3.5812,-3.5538,-3.6824,-3.6307,-3.5429,-3.6299,-3.6571,-3.6593,-3.671,-3.6519,-3.6508,-3.735,-3.7004,-3.6505,-3.6577,-3.6397,-3.5976,-3.5181,-3.5565,-3.5976,-3.5846,-3.6511,-3.7417,-3.8436,-3.8536,-3.8718,-3.9277,-3.9352,-3.9382,-3.9425,-3.9667,-3.9489,-3.8746,-3.7269,-3.6706,-3.7488,-3.632,-3.6314,-3.7877,-3.6625,-3.6704,-3.8411,-3.8453,-3.8877,-3.9766,-4.0625,-4.1055,-4.1054,-4.1152,-4.1131,-2.6422,-2.6291,-2.733,0.0,-3.1047,-3.1529,-3.3255,-3.2685,-3.1656,-3.0963,-2.9691,-2.841,-2.712,-2.509,-2.3098,0.0,-2.0005,-1.9036,-1.8084,-1.7869,-1.7985,-1.8735,-1.959,-2.0778,-2.2145,-2.2568,-2.2755,-2.265,-2.3516,-2.4008,-2.3952,-2.5515,-2.6136,-2.5424,-2.6768,-2.7427,-2.7523,-2.7987,-2.8488,-2.8748,-2.909,-2.9543,-3.0102,-3.0453,-3.1424,-3.2698,-3.2751,-3.2843,-3.3041,-3.279,-3.2392,-3.2088,-3.2983,-3.331,-3.3547,-3.5593,-3.6167,-3.5984,-3.6168,-3.5982,-3.5782,-3.6242,-3.6005,-3.5665,-3.6251,-3.6323,-3.6179,-3.6522,-3.7135,-3.7627,-3.7217,-3.7336,-3.7545,-3.7438,-3.7136,-3.693,-3.6939,-3.6603,-3.6147,-3.5778,-3.6052,-3.6323,-3.6334,-3.6641,-3.7167,-3.7843,-3.831,-3.8759,-3.9163,-3.9364,-3.9599,-3.9911,-3.954,-3.9203,-3.9012,-3.7882,-3.7364,-3.7781,-3.7322,-3.716,-3.7385,-3.6913,-3.7016,-3.7769,-3.7817,-3.827,-3.9141,-4.0019,-4.0449,-4.0449,-4.0921,-4.1104,-2.795,-2.8997,0.0,-3.1825,-3.3362,-3.4483,-3.467,-3.3421,-3.1874,-3.0939,-2.9294,-2.7357,-2.5421,-2.3324,-2.1357,-1.9484,-1.7998,-1.69,-1.6666,-1.5985,-1.5811,-1.6533,-1.6714,-1.7721,-1.9866,-2.0747,-2.1071,-2.1018,-2.1859,-2.2167,-2.1965,-2.3759,-2.4398,-2.3776,-2.5208,-2.6064,-2.63,-2.6857,-2.7458,-2.7904,-2.8092,-2.8484,-2.9101,-2.9138,-3.0379,-3.2347,-3.2089,-3.2418,-3.3238,-3.296,-3.2434,-3.1932,-3.2604,-3.2673,-3.2635,-3.4846,-3.5816,-3.6148,-3.6226,-3.6352,-3.6414,-3.6414,-3.6167,-3.5833,-3.602,-3.6211,-3.6398,-3.6604,-3.7312,-3.7886,-3.7405,-3.7923,-3.8412,-3.7727,-3.7541,-3.7422,-3.7215,-3.6715,-3.6301,-3.6301,-3.6301,-3.6343,-3.6602,-3.6661,-3.6956,-3.7603,-3.8254,-3.8755,-3.8971,-3.9338,-3.9735,-4.0057,-3.9466,-3.9145,-3.9337,-3.8553,-3.8188,-3.8472,-3.8178,-3.7862,-3.7501,-3.7267,-3.7285,-3.7548,-3.7389,-3.7725,-3.8591,-3.9238,-3.9667,-3.9893,-4.0467,-4.0861,-2.7672,0.0,-2.7778,-3.3695,-3.4046,-3.3489,-3.5554,-3.4339,-3.2104,-2.9842,-2.8134,-2.6098,-2.2647,-2.133,-1.9777,-1.6938,-1.6074,-1.5401,-1.4215,-1.3724,-1.3912,-1.5071,-1.4799,-1.4797,0.0,-1.821,-2.0055,-2.0685,-2.0651,-2.0375,-1.9725,-2.1019,-2.1503,-2.087,-2.3289,-2.4536,-2.4488,-2.6651,-2.7644,-2.7631,-2.8373,-2.8506,-2.8047,-2.8264,-2.9238,-3.0753,-3.1442,-3.1327,-3.089,-3.2048,-3.1915,-3.1075,-3.1836,-3.2232,-3.2506,-3.3713,-3.4595,-3.519,-3.5608,-3.5943,-3.6211,-3.6211,-3.603,-3.5926,-3.6656,-3.6232,-3.5681,-3.6748,-3.7049,-3.7101,-3.7607,-3.8198,-3.8442,-3.7899,-3.7632,-3.7267,-3.649,-3.6318,-3.6301,-3.6301,-3.6301,-3.6343,-3.6502,-3.6602,-3.7045,-3.8041,-3.8584,-3.8918,-3.8989,-3.9464,-3.987,-4.0077,-4.0017,-4.0039,-4.0234,-3.947,-3.9317,-4.0177,-3.8699,-3.8235,-3.9191,-3.78,-3.7472,-3.8449,-3.77,-3.7731,-3.8609,-3.863,-3.9032,-3.9805,-3.9838,-4.0286,-2.6988,0.0,-3.2256,-3.4518,-3.5159,-3.5118,-3.4817,-3.2866,-3.033,-2.726,-2.4462,-2.1836,-1.9406,-1.7332,-1.5743,-1.512,-1.419,-1.3632,-1.3734,-1.2931,-1.2475,-1.2777,-1.3136,0.0,0.0,0.0,0.0,-1.8532,-1.917,-1.9562,-1.9343,-2.0436,-2.0679,-1.9996,-2.1658,-2.2741,-2.3066,-2.4443,-2.5401,-2.6023,-2.7051,-2.7619,-2.7555,-2.7491,-2.8256,-2.9653,-2.9852,-3.0465,-3.1292,-3.214,-3.2128,-3.1622,-3.2131,-3.2112,-3.1923,-3.269,-3.3058,-3.3293,-3.4515,-3.5335,-3.5879,-3.5737,-3.5839,-3.6138,-3.6368,-3.5814,-3.5301,-3.6016,-3.6015,-3.5905,-3.6502,-3.7015,-3.7267,-3.6942,-3.6874,-3.6819,-3.6371,-3.6301,-3.6301,-3.6301,-3.6343,-3.6658,-3.737,-3.7515,-3.8181,-3.9917,-4.0257,-4.0382,-4.0698,-4.1193,-4.1165,-4.021,-4.0572,-4.0251,-3.8707,-3.9374,-3.9737,-3.947,-3.9482,-3.9448,-3.9234,-3.8312,-3.7735,-3.7572,-3.6784,-3.6543,-3.6872,-3.746,-3.8178,-3.9017,-3.9546,-4.0262,-2.9679,-3.259,-3.5349,-3.6509,-3.6452,-3.5525,-3.3241,-3.0777,-2.7916,-2.427,-2.1213,-1.8439,-1.5968,-1.3945,-1.2512,-1.2113,-1.1626,-1.1522,-1.2332,-1.1688,-1.1328,-1.1816,-1.1984,-1.2342,0.0,0.0,0.0,-1.6907,-1.8186,-1.8728,-1.8312,-1.9044,-1.9495,-1.9341,-2.0441,-2.123,-2.1823,-2.2909,-2.4036,-2.5371,-2.6324,-2.6975,-2.7304,-2.6802,-2.7104,-2.7882,-2.8326,-2.9028,-2.9851,-3.1156,-3.1527,-3.1373,-3.1907,-3.1915,-3.1656,-3.1839,-3.1926,-3.2083,-3.3772,-3.4582,-3.4957,-3.526,-3.5443,-3.5624,-3.6134,-3.5584,-3.4881,-3.5766,-3.5607,-3.5379,-3.6142,-3.667,-3.6946,-3.634,-3.647,-3.6602,-3.6163,-3.6277,-3.6526,-3.6672,-3.6817,-3.7099,-3.7812,-3.8251,-3.9095,-4.0722,-4.1126,-4.1287,-4.1526,-4.1417,-4.0976,-4.019,-4.0267,-3.9814,-3.8304,-3.9202,-3.947,-3.8591,-3.9677,-3.9879,-3.8819,-3.8356,-3.7779,-3.709,-3.6309,-3.5918,-3.5976,-3.6854,-3.7747,-3.8615,-3.9431,-4.0281,-3.4995,-3.6559,-3.6783,-3.928,-3.7684,-3.4562,-3.1061,-2.8201,-2.5147,-2.0958,-1.85,-1.6012,0.0,0.0,-1.0187,-0.8388,-0.8774,-0.9587,-1.0298,-1.0272,-1.0712,0.0,0.0,0.0,0.0,0.0,0.0,-1.5748,0.0,-1.7819,-1.6847,-1.7236,-1.7877,-1.8711,-1.9446,-2.0163,-2.0805,-2.1961,-2.3515,-2.54,-2.5908,-2.6465,-2.7118,-2.6289,-2.5801,-2.5772,-2.6889,-2.7012,-2.6741,-2.9157,-3.0126,-3.024,-3.1119,-3.1529,-3.1476,-3.1151,-3.1178,-3.1653,-3.314,-3.3528,-3.3602,-3.4916,-3.4887,-3.461,-3.5966,-3.5355,-3.4422,-3.5953,-3.5817,-3.5414,-3.6426,-3.7163,-3.7408,-3.6174,-3.6388,-3.6655,-3.579,-3.618,-3.6871,-3.7438,-3.7629,-3.7775,-3.792,-3.8918,-3.9882,-4.0563,-4.1178,-4.1537,-4.1494,-4.028,-3.957,-4.0036,-3.9354,-3.888,-3.8859,-3.8916,-3.8572,-3.775,-3.9298,-3.958,-3.8108,-3.8017,-3.7675,-3.7003,-3.6278,-3.5898,-3.5898,-3.6806,-3.7678,-3.8547,-3.9364,-4.0203,-3.3423,-3.5756,-3.7698,-3.788,-3.5383,-3.1772,-2.7562,-2.4519,-2.1355,-1.7239,-1.4559,-1.2166,0.0,0.0,0.0,-0.8408,-0.928,0.0,-1.1005,-1.1003,0.0,-1.1206,0.0,-1.1508,-1.2112,-1.2871,0.0,0.0,-1.547,-1.6878,-1.6978,-1.7787,-1.8195,-1.8265,-1.8651,-1.8968,-1.9325,-2.0494,-2.1797,-2.3241,-2.4022,-2.464,-2.4895,-2.5279,-2.5385,-2.5317,-2.5481,-2.5639,-2.5841,-2.7089,-2.7999,-2.867,-2.9522,-3.0073,-3.0448,-3.0686,-3.0528,-3.0281,-3.1279,-3.2358,-3.333,-3.4004,-3.4024,-3.4061,-3.4889,-3.4152,-3.32,-3.4618,-3.5,-3.5138,-3.591,-3.6458,-3.6654,-3.619,-3.5821,-3.5642,-3.5776,-3.6303,-3.6886,-3.7572,-3.8839,-3.9824,-3.9993,-4.0878,-4.1606,-4.1669,-4.0985,-4.0762,-4.1551,-4.1375,-4.0778,-3.9834,-3.9766,-3.9052,-3.7294,-3.7693,-3.7941,-3.7712,-3.8725,-3.9197,-3.8916,-3.8266,-3.7632,-3.7011,-3.6222,-3.585,-3.5898,-3.6191,-3.6788,-3.7659,-3.8502,-3.9345,-3.4914,-3.6232,-3.7085,-3.588,-3.2571,-2.8561,-2.4918,-2.1221,-1.7663,-1.4495,-1.1763,0.0,-0.7721,0.0,0.0,0.0,0.0,0.0,-0.9837,-0.9948,-1.0117,0.0,-1.0604,0.0,-1.187,-1.2148,-1.2278,0.0,-1.46,-1.607,-1.604,-1.7161,-1.7998,-1.835,-1.8473,-1.8566,-1.8827,-1.9903,-2.0889,-2.1587,-2.2648,-2.3531,-2.4125,-2.4735,-2.4729,-2.4304,0.0,-2.4796,-2.4258,-2.5864,-2.6858,-2.7496,-2.8409,-2.9191,-2.9686,-2.9624,-2.9686,-2.9921,-3.0251,-3.1128,-3.2174,-3.3097,-3.3341,-3.3493,-3.4515,-3.3739,-3.284,-3.4197,-3.4445,-3.4426,-3.5241,-3.5837,-3.6054,-3.5457,-3.5524,-3.5723,-3.566,-3.6357,-3.7218,-3.7848,-3.8888,-3.9808,-4.0188,-4.0765,-4.1215,-4.1487,-4.0655,-4.0123,-4.0474,-4.0517,-4.0304,-3.9656,-3.9229,-3.8461,-3.7125,-3.7122,-3.7005,-3.6623,-3.8113,-3.8718,-3.8082,-3.7967,-3.7589,-3.6929,-3.6161,-3.5791,-3.5862,-3.6306,-3.6785,-3.7324,-3.8556,-3.9375,-3.697,-3.6641,-3.5283,-3.3636,-2.9624,-2.5266,-2.2457,-1.8294,-1.4332,-1.2113,0.0,-0.7649,-0.6297,-0.5766,-0.542,-0.5117,0.0,-0.7224,-0.7857,-0.8417,-0.9012,-0.9907,-0.9872,-1.0196,-1.1285,-1.0914,-1.0988,-1.1768,-1.4154,-1.5274,-1.4757,-1.6146,-1.7435,-1.8711,-1.8658,-1.8658,-1.8827,-1.972,-2.0348,-2.0512,-2.1676,-2.2795,-2.37,-2.4333,-2.3998,-2.305,0.0,0.0,-2.2845,-2.5098,-2.6158,-2.6419,-2.7482,-2.8244,-2.8744,-2.8092,-2.8637,-2.9742,-2.9611,-2.9993,-3.0777,-3.2236,-3.2673,-3.2839,-3.412,-3.3558,-3.2796,-3.4102,-3.403,-3.379,-3.4623,-3.5357,-3.5624,-3.4636,-3.5403,-3.6182,-3.5509,-3.6613,-3.7804,-3.8197,-3.859,-3.9008,-3.9453,-3.9598,-3.9909,-4.0682,-4.0232,-3.9636,-3.9067,-3.893,-3.9027,-3.9483,-3.8426,-3.7757,-3.7851,-3.7028,-3.6279,-3.5744,-3.7674,-3.8223,-3.6842,-3.751,-3.7497,-3.6652,-3.6016,-3.5718,-3.5781,-3.6612,-3.7064,-3.717,-3.8721,-3.9526,-3.3952,-3.3225,-3.2332,-3.141,-2.7399,-2.2722,-1.902,-1.5684,0.0,0.0,-0.7761,-0.6726,-0.5177,-0.4482,-0.4454,-0.5415,0.0,0.0,0.0,0.0,-0.9385,0.0,0.0,0.0,0.0,0.0,0.0,0.0,0.0,0.0,-1.4916,-1.6223,-1.7427,-1.8566,-1.8651,-1.8827,-1.9096,-1.9479,-1.9845,-2.0011,-2.0979,-2.152,-2.1624,-2.2948,-2.3255,-2.2905,0.0,0.0,-2.3212,-2.3999,-2.4608,-2.509,-2.5757,-2.6259,-2.6565,-2.6646,-2.74,-2.8343,-2.8343,-2.9282,-3.0642,-3.1453,-3.1612,-3.1612,-3.245,-3.2364,-3.2197,-3.2966,-3.3759,-3.4419,-3.4601,-3.4888,-3.5123,-3.4936,-3.4995,-3.5214,-3.5604,-3.7308,-3.8775,-3.877,-3.9289,-3.9589,-3.9231,-3.954,-3.9929,-4.0224,-3.9713,-3.9302,-3.9193,-3.8809,-3.873,-3.9125,-3.863,-3.8393,-3.8671,-3.7333,-3.7061,-3.8355,-3.8146,-3.7926,-3.7762,-3.7851,-3.7209,-3.5753,-3.5663,-3.5644,-3.5723,-3.5997,-3.6169,-3.6249,-3.7203,-3.8038,-3.1579,-3.0879,-3.0015,-2.8236,-2.4293,-1.9946,-1.654,0.0,0.0,0.0,-0.6117,-0.5196,-0.4128,-0.3608,0.0,0.0,0.0,0.0,0.0,0.0,0.0,0.0,0.0,0.0,0.0,0.0,0.0,0.0,0.0,0.0,-1.4358,-1.617,-1.7304,-1.7885,-1.845,-1.8827,-1.9004,-1.9288,-1.9479,-1.9554,-2.0275,-2.0891,-2.1401,-2.2407,-2.296,-2.3277,-2.3434,0.0,-2.2565,-2.3496,-2.3724,-2.356,-2.4614,-2.5338,-2.5839,-2.599,-2.6876,-2.8051,-2.8542,-2.9287,-3.0094,-3.0417,-3.0872,-3.1405,-3.1735,-3.1917,-3.2148,-3.2533,-3.3092,-3.3693,-3.4048,-3.4104,-3.4178,-3.4452,-3.4979,-3.5744,-3.6909,-3.7747,-3.8253,-3.8103,-3.815,-3.8298,-3.8524,-3.8823,-3.9118,-3.9532,-3.9355,-3.9066,-3.8739,-3.8492,-3.8478,-3.8799,-3.8178,-3.7961,-3.8584,-3.7318,-3.6852,-3.7689,-3.7783,-3.745,-3.6631,-3.7026,-3.6724,-3.5515,-3.5573,-3.5663,-3.5753,-3.5827,-3.5908,-3.6016,-3.6866,-3.7695,-2.907,-2.8402,-2.7474,-2.4698,-2.0781,-1.685,-1.4245,-1.0832,0.0,-0.6004,-0.4764,-0.3819,-0.3224,0.0,-0.267,0.0,-0.3666,0.0,0.0,0.0,0.0,0.0,0.0,0.0,0.0,0.0,0.0,0.0,0.0,0.0,-1.3776,-1.5792,-1.6821,-1.7016,-1.7878,-1.845,-1.8542,-1.8932,-1.9123,-1.9288,-1.9496,-2.0133,-2.1085,-2.1599,-2.2172,-2.2842,-2.297,0.0,0.0,-2.3059,-2.3072,-2.2472,-2.3886,-2.4838,-2.5358,-2.5473,-2.6396,-2.7723,-2.8712,-2.9184,-2.9387,-2.9588,-3.0361,-3.1288,-3.1288,-3.1622,-3.209,-3.2385,-3.2537,-3.2706,-3.353,-3.3456,-3.3336,-3.3975,-3.5192,-3.6648,-3.814,-3.8199,-3.7781,-3.7286,-3.6997,-3.7053,-3.7495,-3.7714,-3.8011,-3.8616,-3.8798,-3.8688,-3.8264,-3.8225,-3.8289,-3.851,-3.7883,-3.7803,-3.8614,-3.7622,-3.7048,-3.729,-3.7742,-3.7316,-3.578,-3.6426,-3.6406,-3.554,-3.5572,-3.5669,-3.5803,-3.5799,-3.5877,-3.6016,-3.6699,-3.7565,-2.5587,-2.4918,-2.4081,-2.1275,-1.7232,-1.347,-1.1839,0.0,-0.6421,-0.4788,-0.3839,-0.3151,-0.2667,-0.1691,-0.1326,0.0,0.0,-0.2458,0.0,0.0,0.0,0.0,0.0,0.0,0.0,0.0,0.0,0.0,0.0,0.0,0.0,-1.4752,-1.5419,-1.5886,-1.6648,-1.7311,-1.7785,-1.8427,-1.8986,-1.9579,-1.8894,-1.8746,-1.9092,-1.9534,-1.9869,-2.0027,0.0,0.0,0.0,-2.2183,-2.2577,-2.2472,-2.3886,-2.4562,-2.4634,-2.4694,-2.537,-2.6483,-2.7786,-2.8421,-2.8784,-2.9546,-3.0164,-3.0614,-3.0614,-3.1021,-3.173,-3.2429,-3.2327,-3.2285,-3.3559,-3.341,-3.3157,-3.3945,-3.5522,-3.7258,-3.8394,-3.8668,-3.8297,-3.699,-3.7186,-3.7138,-3.6027,-3.6225,-3.6806,-3.7463,-3.763,-3.7793,-3.8158,-3.8241,-3.8307,-3.8322,-3.8529,-3.8904,-3.9626,-3.8904,-3.8841,-3.9902,-3.9112,-3.8143,-3.707,-3.7112,-3.6652,-3.5611,-3.5591,-3.5681,-3.5804,-3.5801,-3.5864,-3.5996,-3.6074,-3.7018,-1.8989,-1.8307,-1.7482,-1.585,-1.3305,-1.076,-0.8619,0.0,-0.474,-0.3565,-0.2692,-0.202,-0.1698,-0.1063,-0.0712,0.0,0.0,0.0,0.0,0.0,0.0,0.0,0.0,0.0,0.0,0.0,0.0,0.0,0.0,0.0,0.0,-1.3446,-1.4398,-1.4509,-1.5152,-1.5991,-1.6718,-1.7145,-1.7872,-1.891,-1.8796,-1.8912,-1.9239,-1.9405,-1.9907,-2.0595,0.0,0.0,0.0,-2.2155,-2.2308,-2.1655,-2.3779,-2.4683,-2.4886,-2.5001,-2.5538,-2.6483,-2.7603,-2.8312,-2.8757,-2.9617,-2.9995,-3.0114,-2.9954,-3.0417,-3.103,-3.161,-3.2081,-3.2482,-3.2665,-3.2811,-3.334,-3.4773,-3.5586,-3.6501,-3.8345,-3.8117,-3.7469,-3.7116,-3.6887,-3.6558,-3.5875,-3.6037,-3.6374,-3.686,-3.7339,-3.765,-3.7756,-3.8119,-3.8368,-3.8433,-3.8235,-3.8507,-3.9432,-3.8946,-3.8801,-3.9257,-3.8597,-3.7586,-3.6161,-3.6177,-3.604,-3.5608,-3.5639,-3.5689,-3.5728,-3.5823,-3.5892,-3.5937,-3.5976,-3.6658,-1.347,-1.2833,-1.2103,-1.0791,-0.9094,-0.7282,0.0,0.0,-0.2826,-0.2171,-0.146,-0.0888,-0.0532,-0.0198,0.0,0.0,0.0,-0.0055,-0.0542,0.0,0.0,0.0,0.0,0.0,0.0,0.0,0.0,0.0,0.0,0.0,0.0,-1.1979,-1.2836,-1.2839,-1.3662,-1.4481,-1.5171,-1.562,-1.6505,-1.7755,-1.7822,-1.8036,-1.8419,-1.8716,-1.9197,-1.9822,0.0,0.0,0.0,-2.1528,-2.1669,-2.0983,-2.3513,-2.479,-2.517,-2.529,-2.5697,-2.6264,-2.7233,-2.7761,-2.8099,-2.9045,-2.9512,-2.9614,-2.9226,-2.968,-3.0482,-3.0997,-3.184,-3.2426,-3.2009,-3.2507,-3.344,-3.469,-3.5565,-3.6382,-3.7442,-3.7376,-3.7079,-3.692,-3.6521,-3.6097,-3.5813,-3.581,-3.6028,-3.6457,-3.6995,-3.7339,-3.7542,-3.7948,-3.83,-3.8478,-3.818,-3.834,-3.916,-3.9016,-3.8925,-3.909,-3.8791,-3.7794,-3.6012,-3.6036,-3.5948,-3.5631,-3.5673,-3.5704,-3.5723,-3.581,-3.5895,-3.5937,-3.5976,-3.6328,-0.9973,-0.9554,-0.8984,-0.6702,-0.4433,-0.2769,0.0,0.0,-0.0661,-0.0467,-0.0213,0.0187,0.0859,0.0981,0.105,0.1251,0.0,0.0,0.0,0.0,0.0,0.0,0.0,0.0,0.0,0.0,0.0,0.0,0.0,0.0,0.0,-1.0301,-1.0584,-1.1037,-1.2215,-1.2848,-1.2945,-1.3825,-1.4872,-1.6139,-1.5701,-1.5648,-1.5984,-1.675,-1.6876,0.0,0.0,0.0,0.0,-1.9992,-2.0563,-2.0687,-2.321,-2.4641,-2.5325,-2.5324,-2.5453,-2.5734,-2.6332,-2.6515,-2.6678,-2.7657,-2.8556,-2.908,-2.8284,-2.9007,-3.0254,-3.107,-3.1579,-3.1941,-3.1916,-3.2712,-3.3412,-3.3108,-3.5559,-3.7448,-3.547,-3.6629,-3.7647,-3.629,-3.6107,-3.6067,-3.5564,-3.54,-3.5532,-3.6308,-3.6367,-3.6678,-3.7667,-3.7791,-3.7998,-3.846,-3.859,-3.8792,-3.9073,-3.9345,-3.9712,-4.0241,-4.0269,-3.9339,-3.7271,-3.725,-3.6786,-3.5723,-3.5704,-3.5723,-3.58,-3.5811,-3.5864,-3.5996,-3.5996,-3.5996,-0.3305,-0.2721,-0.229,-0.1546,-0.1139,-0.0808,-0.0551,0.0074,0.0587,0.0562,0.0857,0.1165,0.1378,0.1406,0.1417,0.1423,0.1253,0.0,0.0,0.0,0.0,0.0,0.0,0.0,0.0,0.0,0.0,0.0,0.0,0.0,0.0,-0.843,-0.9298,-1.0724,-1.0815,-1.1273,-1.2254,-1.2412,-1.3255,-1.4631,-1.5125,-1.5128,-1.4622,-1.6578,0.0,0.0,0.0,0.0,0.0,-1.9676,-2.0576,-2.0904,-2.3672,-2.4929,-2.5218,-2.5654,-2.5865,-2.5886,-2.6333,-2.6485,-2.6614,-2.7404,-2.7933,-2.8248,-2.8348,-2.9254,-3.0309,-3.051,-3.0841,-3.1156,-3.1122,-3.1777,-3.2526,-3.29,-3.4083,-3.5189,-3.5604,-3.6212,-3.6605,-3.6336,-3.6317,-3.6178,-3.558,-3.5446,-3.552,-3.5677,-3.6097,-3.6516,-3.6939,-3.7506,-3.798,-3.8263,-3.8572,-3.8881,-3.9156,-3.9245,-3.9607,-4.0323,-3.9719,-3.9057,-3.8396,-3.8026,-3.7405,-3.6465,-3.5956,-3.5678,-3.5662,-3.5751,-3.5864,-3.5996,-3.5996,-3.6641,0.0,0.1047,0.1639,0.1589,0.1608,0.0,0.0,0.1836,0.2007,0.2023,0.2092,0.2259,0.2552,0.2358,0.2183,0.225,0.1921,0.0,0.0,0.0,0.0,0.0,0.0,0.0,0.0,0.0,0.0,0.0,0.0,0.0,0.0,0.0,-0.8109,-0.9587,-1.0018,-1.0612,-1.1327,-1.1316,-1.1992,-1.3347,-1.4273,-1.4438,-1.4043,-1.6304,0.0,0.0,0.0,0.0,0.0,-1.8864,-1.9647,-2.0229,-2.2633,-2.383,-2.4402,-2.5591,-2.5968,-2.5943,-2.6052,-2.6261,-2.6502,-2.6649,-2.6973,-2.752,-2.8525,-2.9407,-3.019,-3.0447,-3.0642,-3.088,-3.1128,-3.1661,-3.2243,-3.2601,-3.3453,-3.4344,-3.4904,-3.5456,-3.5893,-3.6028,-3.6055,-3.6013,-3.565,-3.5566,-3.5566,-3.5711,-3.5941,-3.6266,-3.6661,-3.7285,-3.7825,-3.8147,-3.8585,-3.8939,-3.912,-3.921,-3.9533,-4.0106,-3.9681,-3.9273,-3.9016,-3.8724,-3.815,-3.7315,-3.6517,-3.5963,-3.5628,-3.5731,-3.5834,-3.6003,-3.5995,-3.6582,0.0,0.2264,0.3139,0.309,0.0,0.0,0.0,0.3397,0.0,0.3676,0.3411,0.3389,0.4141,0.366,0.3198,0.3451,0.2916,0.0,0.0,0.0,0.0,0.0,0.0,0.0,0.0,0.0,0.0,0.0,0.0,0.0,0.0,0.0,-0.6947,-0.7835,-0.9533,-1.0428,-1.0269,-1.0549,-1.1123,-1.2161,-1.3056,-1.3568,-1.377,-1.5777,0.0,0.0,0.0,0.0,0.0,-1.7635,-1.8183,-1.9056,-2.0452,-2.1756,-2.3062,-2.5054,-2.5763,-2.5775,-2.5573,-2.5895,-2.6377,-2.5647,-2.5927,-2.6856,-2.8675,-2.9428,-2.9803,-3.0495,-3.0748,-3.0894,-3.1555,-3.2079,-3.2407,-3.2243,-3.3493,-3.4516,-3.3572,-3.4538,-3.5547,-3.5404,-3.547,-3.5622,-3.5773,-3.5667,-3.5711,-3.6079,-3.5861,-3.5941,-3.6741,-3.7097,-3.7488,-3.8114,-3.8585,-3.8892,-3.8979,-3.9237,-3.9477,-3.9675,-4.0001,-3.9905,-3.9319,-3.9307,-3.895,-3.8202,-3.7276,-3.644,-3.5693,-3.5701,-3.5805,-3.5975,-3.5986,-3.5996,0.4403,0.0,0.4596,0.4898,0.4687,0.4357,0.0,0.0,0.0,0.0,0.0,0.39,0.4027,0.37,0.3357,0.3229,0.2784,0.2434,0.0,0.0,0.0,0.0,0.0,0.0,0.0,0.0,0.0,0.0,0.0,0.0,0.0,0.0,-0.5244,-0.7318,-0.7935,-0.8862,-1.0054,-0.9957,-1.0045,-1.0489,-1.1438,-1.1419,-1.0626,-1.3807,0.0,0.0,0.0,0.0,-1.7078,-1.7593,-1.8237,-1.9083,-1.9859,-2.091,-2.2165,-2.392,-2.4606,-2.4804,-2.5853,-2.6339,-2.6508,-2.6438,-2.6578,-2.7128,-2.8168,-2.8566,-2.877,-2.9448,-3.0075,-3.0594,-3.0743,-3.139,-3.1953,-3.1895,-3.2583,-3.3248,-3.3011,-3.3774,-3.4578,-3.4866,-3.5021,-3.5224,-3.5577,-3.5622,-3.5622,-3.5711,-3.5844,-3.6062,-3.6409,-3.6781,-3.7248,-3.7893,-3.8245,-3.8609,-3.9045,-3.9092,-3.9279,-3.975,-3.9859,-3.9967,-4.0185,-3.9619,-3.9196,-3.9018,-3.7558,-3.6446,-3.5712,-3.5704,-3.5716,-3.5776,-3.5929,-3.5996,0.5905,0.555,0.5372,0.6149,0.595,0.55,0.5301,0.0,0.0,0.0,0.0,0.4492,0.515,0.4773,0.4329,0.4355,0.3865,0.0,0.0,0.0,0.0,0.0,0.0,0.0,0.0,0.0,0.0,0.0,0.0,0.0,0.0,0.0,-0.391,-0.5758,-0.6637,-0.7919,-0.9723,-0.9489,-0.951,-0.9706,-1.0679,-1.0772,-1.0139,-1.2686,-1.3806,0.0,0.0,0.0,-1.642,-1.6507,-1.7185,-1.8211,-1.8644,-1.9704,-2.1265,-2.2514,-2.3447,-2.4268,-2.5219,-2.575,-2.6041,-2.6752,-2.6886,-2.6867,-2.7445,-2.7646,-2.7846,-2.8983,-2.971,-3.0159,-3.0338,-3.1098,-3.1799,-3.1799,-3.2247,-3.2695,-3.2986,-3.3491,-3.4134,-3.4927,-3.5115,-3.5316,-3.58,-3.58,-3.58,-3.5915,-3.5932,-3.6019,-3.636,-3.6719,-3.7173,-3.7825,-3.8227,-3.864,-3.9101,-3.9101,-3.9272,-3.9637,-3.9754,-3.9983,-4.0339,-3.9685,-3.8941,-3.8171,-3.725,-3.6414,-3.5651,-3.5693,-3.5704,-3.5715,-3.6248,-3.6593,0.663,0.6183,0.6065,0.7101,0.7075,0.678,0.6628,0.0,0.0,0.0,0.0,0.0,0.6555,0.6066,0.0,0.0,0.0,0.0,0.0,0.0,0.0,0.0,0.0,0.0,0.0,0.0,0.0,0.0,0.0,0.0,0.0,0.0,0.0,-0.3702,-0.5241,-0.6929,-0.869,-0.8904,-0.9011,-0.9231,-1.0163,-1.0467,-1.045,-1.1757,-1.2948,0.0,0.0,0.0,-1.5579,-1.5325,-1.6029,-1.7235,-1.7461,-1.8634,-2.0336,-2.1152,-2.2441,-2.3872,-2.4494,-2.5088,-2.573,-2.6985,-2.7077,-2.6674,-2.6893,-2.6907,-2.71,-2.8464,-2.9334,-2.9842,-3.0144,-3.1087,-3.1883,-3.1898,-3.215,-3.2602,-3.3145,-3.3455,-3.3949,-3.4927,-3.5178,-3.5424,-3.6036,-3.6019,-3.6045,-3.6259,-3.6105,-3.6079,-3.6461,-3.6799,-3.721,-3.7859,-3.8277,-3.87,-3.9183,-3.9229,-3.929,-3.9477,-3.9705,-3.9849,-3.9868,-3.9515,-3.845,-3.6639,-3.6755,-3.6402,-3.5591,-3.5662,-3.5695,-3.5704,-3.6519,-3.7097,0.6701,0.7169,0.7757,0.8062,0.7508,0.692,0.7072,0.0,0.0,0.0,0.0,0.0,0.0,0.6363,0.5868,0.0,0.0,0.0,0.0,0.0,0.0,0.0,0.0,0.0,0.0,0.0,0.0,0.0,0.0,0.0,0.0,0.0,0.0,-0.1964,-0.3473,-0.4716,-0.5627,-0.7371,-0.8308,-0.846,-0.8544,-0.8713,-0.8969,-1.0076,-1.0998,0.0,0.0,-1.4009,-1.4887,-1.5913,-1.6784,-1.7373,-1.7579,-1.8357,-1.941,-2.0452,-2.1706,-2.3212,-2.5473,-2.6438,-2.6763,-2.7499,-2.7802,-2.7774,-2.7447,-2.7072,-2.6837,-2.6877,-2.8491,-3.014,-3.0072,-3.1272,-3.2453,-3.2191,-3.2484,-3.2827,-3.2742,-3.2973,-3.3346,-3.3935,-3.4267,-3.4706,-3.5543,-3.5783,-3.5958,-3.6259,-3.6461,-3.6579,-3.6643,-3.6748,-3.7188,-3.8047,-3.8129,-3.8436,-3.9301,-3.9373,-3.9373,-3.9425,-3.9766,-3.9508,-3.8469,-3.9036,-3.824,-3.5842,-3.6504,-3.6446,-3.5591,-3.5665,-3.5667,-3.5626,-3.5889,-3.6054,0.7286,0.7906,0.8788,0.9773,0.9304,0.869,0.0,0.0,0.0,0.0,0.0,0.0,0.0,0.0,0.0,0.0,0.0,0.0,0.0,0.0,0.0,0.0,0.0,0.0,0.0,0.0,0.0,0.0,0.0,0.0,0.0,0.0,0.0,0.0,-0.2034,-0.2888,-0.3498,-0.5263,-0.6598,-0.7513,-0.7622,-0.7729,-0.7996,-0.8709,-0.9593,-1.0685,0.0,-1.2796,-1.4053,-1.5019,-1.6084,-1.7157,-1.7432,-1.8182,-1.9362,-2.061,-2.1713,-2.2819,-2.4668,-2.5256,-2.5397,-2.692,-2.6948,-2.6453,-2.6805,-2.6614,-2.6289,-2.6215,-2.7512,-2.9057,-2.9521,-3.0895,-3.2206,-3.236,-3.285,-3.3203,-3.3027,-3.3187,-3.3539,-3.4068,-3.4284,-3.4706,-3.5599,-3.5793,-3.6002,-3.6468,-3.6609,-3.669,-3.6891,-3.6891,-3.7264,-3.8147,-3.818,-3.848,-3.9369,-3.9451,-3.9476,-3.9564,-3.9854,-3.9412,-3.8046,-3.8458,-3.7726,-3.5635,-3.5987,-3.5987,-3.5612,-3.5665,-3.5678,-3.5669,-3.6231,-3.6522,0.7679,0.8208,0.9052,1.0456,0.0,0.0,0.0,0.0,0.0,0.0,0.0,0.0,0.0,0.0,0.0,0.0,0.0,0.0,0.0,0.0,0.0,0.0,0.0,0.0,0.0,0.0,0.0,0.0,0.0,0.0,0.0,0.0,0.0,0.0,-0.0846,-0.1446,-0.1565,-0.3057,-0.4648,-0.6301,-0.6634,-0.6927,-0.7177,-0.7586,-0.8472,-0.9628,-1.0172,-1.1407,-1.3165,-1.4063,-1.5433,-1.6941,-1.7304,-1.8192,-1.9462,-2.0933,-2.1815,-2.2444,-2.3762,-2.4078,-2.423,-2.6219,-2.614,-2.5427,-2.635,-2.6385,-2.612,-2.6027,-2.6846,-2.7969,-2.8987,-3.0423,-3.1789,-3.24,-3.2977,-3.3348,-3.3366,-3.3555,-3.3797,-3.425,-3.4349,-3.461,-3.5448,-3.5705,-3.5985,-3.6591,-3.6753,-3.6873,-3.7108,-3.7087,-3.7356,-3.8129,-3.8245,-3.8603,-3.9452,-3.9346,-3.9301,-3.9387,-3.9572,-3.9147,-3.7951,-3.7819,-3.7077,-3.562,-3.5612,-3.5623,-3.5604,-3.5665,-3.5697,-3.5718,-3.6445,-3.6784,0.7392,0.7787,0.8314,0.8633,0.8511,0.0,1.2378,1.0097,0.0,1.0593,0.0,0.0,0.0,0.0,0.0,0.0,0.0,0.0,0.0,0.0,0.0,0.0,0.0,0.0,0.0,0.0,0.0,0.0,0.0,0.0,0.0,0.0,0.0,0.0,0.0,-0.0219,0.051,-0.109,-0.2758,-0.4488,-0.5318,-0.5895,-0.6286,-0.6621,-0.715,-0.789,-0.9352,-1.0793,-1.2258,-1.3912,-1.5494,-1.6941,-1.7314,-1.8259,-1.9497,-2.1037,-2.1741,-2.2147,-2.3654,-2.4289,-2.4674,-2.61,-2.6505,-2.6539,-2.6874,-2.6962,-2.6806,-2.6363,-2.6779,-2.7638,-2.8829,-3.0093,-3.1299,-3.2183,-3.2651,-3.2994,-3.3411,-3.3607,-3.3694,-3.3745,-3.3848,-3.4084,-3.4625,-3.5249,-3.589,-3.6333,-3.6913,-3.7259,-3.7297,-3.7297,-3.7449,-3.7877,-3.8194,-3.8711,-3.9508,-3.8917,-3.8489,-3.8489,-3.8612,-3.8461,-3.792,-3.718,-3.6421,-3.562,-3.5654,-3.5662,-3.5604,-3.5665,-3.5707,-3.5688,-3.5776,-3.5863,0.7605,0.8239,0.924,1.0448,0.9579,0.0,0.0,1.0843,0.9942,1.19,1.1084,0.0,0.0,0.0,0.0,0.0,0.0,0.0,0.0,0.0,0.0,0.0,0.0,0.0,0.0,0.0,0.0,0.0,0.0,0.0,0.0,0.0,0.0,0.2767,0.1537,0.1109,0.1664,0.034,-0.0538,-0.0873,-0.3046,-0.4277,-0.4701,-0.5264,-0.5852,-0.6541,-0.7917,-0.905,-1.0082,-1.1697,-1.3576,-1.5651,-1.7813,-1.8998,-1.977,-2.0858,-2.1439,-2.1773,-2.2992,-2.3293,-2.3467,-2.5024,-2.524,-2.5124,-2.6339,-2.647,-2.6229,-2.6553,-2.693,-2.7506,-2.8803,-2.975,-3.0791,-3.2313,-3.2898,-3.3307,-3.3788,-3.405,-3.4151,-3.4101,-3.4101,-3.4284,-3.4785,-3.5005,-3.5357,-3.5977,-3.6099,-3.6159,-3.6292,-3.6516,-3.6684,-3.6735,-3.7661,-3.8186,-3.7928,-3.8286,-3.8301,-3.775,-3.7804,-3.7624,-3.7044,-3.6825,-3.6363,-3.5693,-3.5684,-3.5684,-3.5665,-3.5695,-3.5697,-3.5708,-3.627,-3.6241,0.7739,0.8435,0.9546,1.0941,0.0,0.0,1.2093,1.1457,1.0932,1.3163,1.2373,0.0,0.0,0.0,0.0,0.0,0.0,0.0,0.0,0.0,0.0,0.0,0.0,0.0,0.0,0.0,0.0,0.0,0.0,0.0,0.0,0.0,0.0,0.0,0.3002,0.2704,0.3091,0.1873,0.1476,0.1969,-0.0329,-0.198,-0.3031,-0.3646,-0.4356,-0.5165,-0.6252,-0.7257,-0.8173,-0.9585,-1.1665,-1.434,-1.7328,-1.8854,-1.9501,-2.0556,-2.1163,-2.1461,-2.237,-2.2506,-2.2591,-2.43,-2.44,-2.4125,-2.5938,-2.6048,-2.5731,-2.652,-2.6695,-2.6965,-2.8032,-2.8915,-2.9937,-3.1607,-3.2297,-3.2736,-3.3275,-3.3681,-3.3921,-3.3825,-3.3957,-3.4153,-3.4518,-3.4778,-3.522,-3.5873,-3.5948,-3.5945,-3.6019,-3.6469,-3.6838,-3.6869,-3.7357,-3.7598,-3.746,-3.7678,-3.7595,-3.7007,-3.6726,-3.6559,-3.6495,-3.6334,-3.6087,-3.5737,-3.5697,-3.5697,-3.5698,-3.5706,-3.5697,-3.5728,-3.6581,-3.6687,0.7768,0.8256,0.8906,0.9394,0.0,0.0,1.3606,1.1879,1.0552,1.4158,0.0,1.3244,0.0,0.0,0.0,0.0,0.0,0.0,0.0,0.0,0.0,0.0,0.0,0.0,0.0,0.0,0.0,0.0,0.0,0.0,0.0,0.0,0.0,0.0,0.4669,0.4426,0.489,0.3567,0.3181,0.3683,0.2644,0.089,-0.1475,-0.1888,-0.2676,-0.3699,-0.4534,-0.5561,-0.671,-0.7855,-1.017,-1.3281,-1.5731,-1.7397,-1.8648,-2.0114,-2.0912,-2.135,-2.2001,-2.2189,-2.2463,-2.3953,-2.4137,-2.4124,-2.5918,-2.5864,-2.5349,-2.6144,-2.6027,-2.5749,-2.6519,-2.7476,-2.8578,-2.9889,-3.0525,-3.1073,-3.1644,-3.2289,-3.2668,-3.2668,-3.3172,-3.3573,-3.359,-3.4585,-3.5565,-3.6079,-3.6666,-3.6998,-3.6716,-3.7377,-3.8101,-3.8693,-3.7396,-3.7051,-3.8436,-3.7126,-3.6217,-3.6177,-3.5323,-3.5305,-3.6439,-3.572,-3.5456,-3.5791,-3.5727,-3.5708,-3.5708,-3.5697,-3.5697,-3.5728,-3.6581,-3.7036,0.9401,0.9151,0.0,1.0175,0.0,0.0,0.0,1.2463,0.0,0.0,0.0,0.0,0.0,0.0,0.0,0.0,0.0,0.0,0.0,0.0,0.0,0.0,0.0,0.0,0.0,0.0,0.0,0.0,0.0,0.0,0.0,0.0,0.0,0.0,0.5469,0.5001,0.4737,0.4527,0.4241,0.3934,0.3692,0.2749,0.1185,-0.0062,-0.0955,-0.1496,-0.2249,-0.304,-0.4005,-0.606,-0.8054,-1.0159,-1.312,-1.5051,-1.643,-1.8679,-1.9681,-2.0067,-2.1339,-2.174,-2.1776,-2.2675,-2.2913,-2.301,-2.3994,-2.3891,-2.3702,-2.5387,-2.5405,-2.5228,-2.6382,-2.6886,-2.7365,-2.8709,-2.9702,-3.043,-3.0554,-3.1467,-3.2252,-3.2167,-3.229,-3.2519,-3.2973,-3.33,-3.3567,-3.3711,-3.4442,-3.5197,-3.5785,-3.5612,-3.5584,-3.6009,-3.6324,-3.6341,-3.5962,-3.6141,-3.6045,-3.553,-3.5153,-3.5166,-3.571,-3.5446,-3.5456,-3.5791,-3.5782,-3.5773,-3.5773,-3.5728,-3.5689,-3.5728,-3.6581,-3.6687,1.0333,1.0181,0.0,1.2152,1.2127,1.1958,1.3034,0.0,0.0,0.0,0.0,0.0,0.0,0.0,0.0,0.0,0.0,0.0,0.0,0.0,0.0,0.0,0.0,0.0,0.0,0.0,0.0,0.0,0.0,0.0,0.0,0.0,0.0,0.0,0.6365,0.5863,0.5622,0.547,0.5132,0.4609,0.4672,0.424,0.335,0.1895,0.0835,0.0,-0.0999,-0.1785,-0.252,-0.4355,-0.5938,-0.7394,-1.0194,-1.2297,-1.4061,-1.6329,-1.7627,-1.8482,-2.0109,-2.0578,-2.0673,-2.1678,-2.1891,-2.1929,-2.2978,-2.2802,-2.2583,-2.4297,-2.4496,-2.4468,-2.5279,-2.5606,-2.6063,-2.7411,-2.8326,-2.8978,-2.9114,-2.9947,-3.0677,-3.0796,-3.1015,-3.1288,-3.1666,-3.1892,-3.2152,-3.2328,-3.3097,-3.4163,-3.5515,-3.4726,-3.4291,-3.4954,-3.5428,-3.5469,-3.4849,-3.5474,-3.5711,-3.5234,-3.5108,-3.5203,-3.547,-3.5393,-3.5496,-3.5826,-3.583,-3.5842,-3.5842,-3.5782,-3.5745,-3.5754,-3.6627,-3.6763,1.0925,1.1347,1.2314,1.4485,1.4193,0.0,1.4222,1.4441,1.4928,1.6421,0.0,0.0,0.0,0.0,0.0,0.0,0.0,0.0,0.0,0.0,0.0,0.0,0.0,0.0,0.0,0.0,0.0,0.0,0.0,0.0,0.0,0.0,0.0,0.0,0.7209,0.6947,0.7025,0.6451,0.5933,0.0,0.5605,0.5387,0.4954,0.3792,0.2422,0.0937,-0.0294,-0.1209,-0.1868,-0.2741,-0.3792,-0.5035,-0.7063,-0.9198,-1.128,-1.3277,-1.4902,-1.6368,-1.8236,-1.8843,-1.9067,-2.0577,-2.0761,-2.0678,-2.2167,-2.196,-2.1469,-2.2772,-2.3157,-2.3204,-2.3443,-2.3975,-2.4756,-2.5998,-2.6616,-2.7073,-2.7494,-2.7993,-2.8565,-2.9038,-2.9547,-2.9966,-3.0017,-3.0514,-3.1159,-3.1773,-3.2343,-3.3435,-3.5442,-3.432,-3.3779,-3.4877,-3.4694,-3.4572,-3.4793,-3.5102,-3.527,-3.5207,-3.519,-3.5326,-3.5607,-3.5473,-3.5563,-3.5889,-3.5905,-3.5905,-3.5905,-3.5842,-3.5815,-3.5838,-3.6627,-3.6977,1.2709,1.2478,0.0,1.3398,1.3775,1.4616,1.7497,1.7019,1.5968,1.6028,0.0,0.0,0.0,0.0,0.0,0.0,0.0,0.0,0.0,0.0,0.0,0.0,0.0,0.0,0.0,0.0,0.0,0.0,0.0,0.0,0.0,0.0,0.0,0.7854,0.7861,0.7695,0.7251,0.7262,0.6887,0.0,0.6355,0.6162,0.558,0.4383,0.3079,0.1727,0.1237,0.0421,-0.0526,-0.1064,-0.1925,-0.3074,-0.4732,-0.6008,-0.7301,-1.0124,-1.1741,-1.2782,-1.5049,-1.6191,-1.6837,-1.7751,-1.7987,-1.8022,-1.8926,-1.8463,-1.7963,-1.9743,-2.0069,-2.0228,-2.1616,-2.2979,-2.4092,-2.4662,-2.5687,-2.6527,-2.6463,-2.7194,-2.799,-2.834,-2.8511,-2.8767,-2.9312,-2.9515,-3.0056,-3.1381,-3.1083,-3.1356,-3.303,-3.2848,-3.2775,-3.3346,-3.3953,-3.4508,-3.4851,-3.5105,-3.5239,-3.5285,-3.5223,-3.534,-3.5659,-3.5557,-3.5602,-3.5889,-3.5903,-3.5897,-3.5897,-3.5885,-3.5872,-3.5878,-3.6013,-3.6091,1.2673,0.0,0.0,1.4898,0.0,1.7125,1.8063,1.7998,1.7564,0.0,0.0,0.0,0.0,0.0,0.0,0.0,0.0,0.0,0.0,0.0,0.0,0.0,0.0,0.0,0.0,0.0,0.0,0.0,0.0,0.0,0.0,0.8729,0.8401,0.8117,0.8026,0.7858,0.7572,0.7774,0.7553,0.6881,0.6709,0.6233,0.5544,0.4503,0.3674,0.2903,0.1821,0.0956,0.0276,-0.0576,-0.1279,-0.1908,-0.2905,-0.3904,-0.504,-0.7273,-0.8986,-1.0469,-1.2799,-1.4144,-1.4979,-1.6048,-1.6323,-1.6415,-1.7155,-1.6973,-1.6705,-1.7987,-1.8564,-1.9144,-2.064,-2.1882,-2.2938,-2.3722,-2.4638,-2.5448,-2.5742,-2.6173,-2.6724,-2.7419,-2.7703,-2.7939,-2.8269,-2.8304,-2.8793,-3.0267,-3.0048,-3.027,-3.1858,-3.195,-3.181,-3.169,-3.2642,-3.3217,-3.2996,-3.3675,-3.4285,-3.4712,-3.4308,-3.4551,-3.566,-3.5233,-3.5288,-3.5943,-3.5924,-3.5899,-3.5899,-3.5897,-3.5905,-3.5905,-3.5853,-3.5853,1.1874,1.303,1.4679,1.7206,1.8643,0.0,1.8022,1.8312,1.8679,0.0,0.0,0.0,0.0,0.0,0.0,0.0,0.0,0.0,0.0,0.0,0.0,0.0,0.0,0.0,0.0,0.0,0.0,0.0,0.0,0.0,0.9385,0.9014,0.872,0.8423,0.8062,0.7912,0.7995,0.8167,0.8013,0.7561,0.6878,0.6212,0.5556,0.4661,0.4131,0.3874,0.2182,0.1244,0.0781,-0.0513,-0.109,-0.1166,-0.1689,-0.2525,-0.3555,-0.4883,-0.6542,-0.8432,-1.0613,-1.1972,-1.295,-1.4385,-1.4835,-1.4943,-1.5872,-1.5985,-1.6,-1.6598,-1.7388,-1.8321,-1.9436,-2.0444,-2.1465,-2.2583,-2.3326,-2.4068,-2.5005,-2.5056,-2.5211,-2.6248,-2.6891,-2.7195,-2.7074,-2.7082,-2.7522,-2.8639,-2.8783,-2.9286,-3.0765,-3.0894,-3.0698,-3.0365,-3.1329,-3.1751,-3.1186,-3.2218,-3.3185,-3.3884,-3.3229,-3.355,-3.5211,-3.4572,-3.4632,-3.5525,-3.5786,-3.5914,-3.5914,-3.5919,-3.5894,-3.5894,-3.5899,-3.5899,1.1292,0.0,1.5831,0.0,1.8159,1.7664,0.0,0.0,0.0,0.0,0.0,0.0,0.0,0.0,0.0,0.0,0.0,0.0,0.0,0.0,0.0,0.0,0.0,0.0,0.0,0.0,0.0,0.0,0.0,0.0,1.0252,0.9975,0.9551,0.8935,0.8748,0.8586,0.8439,0.8373,0.8222,0.792,0.7086,0.6697,0.6724,0.5387,0.4451,0.3805,0.307,0.2183,0.114,0.0037,-0.0413,-0.0542,-0.1515,-0.1866,-0.1979,-0.3439,-0.4413,-0.5313,-0.7414,-0.8803,-0.9938,-1.1347,-1.206,-1.2586,-1.3822,-1.3915,-1.3775,-1.4417,-1.5074,-1.5729,-1.633,-1.8055,-1.9716,-2.0115,-2.1194,-2.2485,-2.3836,-2.3827,-2.3875,-2.4957,-2.5941,-2.6405,-2.5775,-2.6138,-2.649,-2.6369,-2.6501,-2.7027,-2.8158,-2.8439,-2.9003,-3.0268,-3.0844,-3.1408,-3.2068,-3.2611,-3.2968,-3.314,-3.2968,-3.3079,-3.3524,-3.342,-3.3476,-3.374,-3.522,-3.5981,-3.5981,-3.5934,-3.5904,-3.5909,-3.5896,-3.5893,1.2184,1.3305,1.4829,0.0,1.7642,1.6439,1.9638,0.0,0.0,0.0,0.0,0.0,0.0,0.0,0.0,0.0,0.0,0.0,0.0,0.0,0.0,0.0,0.0,0.0,0.0,0.0,0.0,0.0,0.0,1.1052,1.0815,1.042,1.0118,0.9913,0.9549,0.9341,0.9293,0.9119,0.856,0.7621,0.7271,0.6882,0.6521,0.545,0.4609,0.3962,0.306,0.2265,0.1571,0.0693,0.022,0.0,-0.0897,-0.1173,-0.1281,-0.2762,-0.3822,-0.4739,-0.6195,-0.7673,-0.9062,-1.0291,-1.1042,-1.1639,-1.2746,-1.2937,-1.2862,-1.3461,-1.3964,-1.4647,-1.6043,-1.7227,-1.8314,-1.9393,-1.9743,-2.0129,-2.1154,-2.2378,-2.3575,-2.4718,-2.5509,-2.5887,-2.5516,-2.569,-2.5906,-2.6087,-2.6195,-2.6523,-2.7303,-2.7436,-2.7734,-2.8417,-2.8708,-2.9255,-3.0203,-3.0548,-3.1168,-3.2208,-3.1813,-3.2046,-3.3148,-3.277,-3.2803,-3.3396,-3.4159,-3.478,-3.5264,-3.524,-3.5466,-3.589,-3.5893,-3.5908,0.0,0.0,1.3372,1.7561,1.6389,1.5057,0.0,0.0,0.0,0.0,0.0,0.0,0.0,0.0,0.0,0.0,0.0,0.0,0.0,0.0,0.0,0.0,0.0,0.0,0.0,0.0,0.0,0.0,0.0,1.1362,1.1223,1.0888,1.0687,1.0582,1.0215,1.0011,1.004,0.9644,0.892,0.7886,0.7558,0.7086,0.6503,0.5611,0.4836,0.4142,0.3095,0.2469,0.2098,0.1246,0.0821,0.0647,-0.0302,-0.0725,-0.0972,-0.2338,-0.3376,-0.425,-0.5329,-0.6607,-0.7966,-0.912,-0.9908,-1.0598,-1.1549,-1.1931,-1.2174,-1.2741,-1.3137,-1.3794,-1.5336,-1.6114,-1.6786,-1.79,-1.8184,-1.8392,-1.9108,-2.1044,-2.2965,-2.4029,-2.4778,-2.5182,-2.5031,-2.5121,-2.5285,-2.5561,-2.5685,-2.597,-2.6563,-2.6673,-2.6803,-2.7009,-2.7368,-2.7839,-2.836,-2.8817,-2.9563,-3.07,-3.0402,-3.0814,-3.218,-3.1898,-3.2034,-3.2754,-3.2746,-3.3395,-3.4693,-3.4921,-3.5326,-3.5896,-3.5891,-3.5898,0.0,1.1537,0.0,1.423,1.3892,0.0,0.0,0.0,0.0,0.0,0.0,0.0,0.0,0.0,0.0,0.0,0.0,0.0,0.0,0.0,0.0,0.0,0.0,0.0,0.0,0.0,0.0,0.0,0.0,1.2054,1.1616,1.1542,1.1244,1.0621,1.0582,1.0495,1.038,0.9601,0.9309,0.9467,0.807,0.7425,0.7387,0.6328,0.5244,0.4183,0.3599,0.3154,0.2753,0.1648,0.1348,0.1466,-0.0032,-0.07,-0.093,-0.1952,-0.2532,-0.2978,-0.4157,-0.4857,-0.5408,-0.6823,-0.7856,-0.8723,-0.9734,-1.0555,-1.1279,-1.1903,-1.2332,-1.2698,-1.287,-1.387,-1.4734,-1.4284,-1.6093,-1.8081,-1.8692,-2.0009,-2.1326,-2.2019,-2.3284,-2.4151,-2.3766,-2.4212,-2.4421,-2.3754,-2.4024,-2.4559,-2.5312,-2.5707,-2.6253,-2.7024,-2.8078,-2.8427,-2.7727,-2.8655,-2.8971,-2.8227,-2.8922,-2.943,-2.9585,-3.0409,-3.0914,-3.1033,-3.0976,-3.2186,-3.4699,-3.5522,-3.5918,-3.5896,-3.5898,-3.5903,0.0,0.0,0.0,1.3652,1.2401,1.1147,0.0,0.0,0.0,0.0,0.0,0.0,0.0,0.0,0.0,0.0,0.0,0.0,0.0,0.0,0.0,0.0,0.0,0.0,0.0,0.0,0.0,0.0,0.0,0.0,1.2187,1.1331,1.1033,1.1409,1.1239,1.1012,1.0791,1.059,1.0261,0.9861,0.9019,0.8399,0.7924,0.7047,0.6189,0.5324,0.4978,0.397,0.2583,0.2459,0.2402,0.2296,0.1374,0.0619,-0.0066,-0.1003,-0.1928,-0.2786,-0.3474,-0.4193,-0.4992,-0.601,-0.7115,-0.8252,-0.9162,-0.9918,-1.0608,-1.1398,-1.1728,-1.1992,-1.2767,-1.3319,-1.3795,-1.4248,-1.5086,-1.5903,-1.633,-1.8442,-2.0391,-2.0876,-2.1919,-2.2741,-2.2829,-2.303,-2.3189,-2.3231,-2.2976,-2.3143,-2.4136,-2.4407,-2.4775,-2.5543,-2.6067,-2.6715,-2.7585,-2.7595,-2.7929,-2.8786,-2.9177,-2.9363,-2.9405,-3.0309,-3.0835,-3.0905,-3.1385,-3.2361,-3.3871,-3.414,-3.4824,-3.5898,-3.5868,-3.5866,1.0493,0.0,0.0,0.0,0.0,0.9663,0.0,0.0,0.0,0.0,0.0,0.0,0.0,0.0,0.0,0.0,0.0,0.0,0.0,0.0,0.0,0.0,0.0,0.0,0.0,0.0,0.0,0.0,0.0,0.0,1.3057,1.1981,1.1546,1.2031,1.1859,1.1649,1.1356,1.1282,1.0973,1.0438,0.9886,0.9194,0.8383,0.7788,0.6962,0.5952,0.586,0.4783,0.3057,0.3286,0.3261,0.3003,0.2347,0.1598,0.0761,0.0032,-0.1141,-0.2371,-0.2725,-0.3501,-0.4398,-0.5057,-0.6094,-0.7242,-0.7973,-0.8815,-0.9671,-1.0515,-1.0876,-1.1215,-1.2047,-1.2334,-1.2696,-1.3764,-1.4154,-1.4358,-1.4754,-1.6992,-1.9152,-1.9889,-2.0755,-2.162,-2.2317,-2.2237,-2.2179,-2.2483,-2.221,-2.2249,-2.3027,-2.322,-2.3486,-2.3977,-2.4632,-2.5416,-2.6387,-2.6815,-2.7321,-2.8005,-2.8926,-2.9294,-2.9008,-3.0156,-3.0838,-3.0899,-3.1421,-3.2129,-3.2961,-3.3471,-3.4471,-3.5899,-3.5836,-3.5814,0.0,0.0,0.0,0.0,0.0,0.0,0.0,0.0,0.0,0.0,0.0,0.0,0.0,0.0,0.0,0.0,0.0,0.0,0.0,0.0,0.0,0.0,0.0,0.0,0.0,0.0,0.0,0.0,0.0,1.4646,1.4251,1.3576,1.2941,1.233,1.2425,1.2365,1.2113,1.1568,1.1297,1.1287,1.0623,0.9797,0.8848,0.8535,0.7521,0.5991,0.6237,0.5595,0.4349,0.4039,0.3797,0.3547,0.2827,0.2159,0.1553,0.1026,-0.0158,-0.1597,-0.1854,-0.2616,-0.349,-0.3858,-0.4642,-0.5567,-0.6044,-0.7134,-0.8404,-0.9131,-0.977,-1.031,-1.0513,-1.082,-1.136,-1.2577,-1.3208,-1.368,-1.4163,-1.5767,-1.7531,-1.8925,-1.9779,-2.0735,-2.2108,-2.1799,-2.1331,-2.1329,-2.162,-2.1863,-2.1965,-2.2273,-2.2474,-2.2547,-2.4064,-2.4804,-2.4139,-2.6379,-2.7218,-2.577,-2.807,-2.9093,-2.8271,-2.9897,-3.0833,-3.0899,-3.0899,-3.1298,-3.2108,-3.3756,-3.5002,-3.5857,-3.5814,-3.5806,0.8928,0.0,0.0,0.0,0.0,0.0,0.0,0.0,0.0,0.0,0.0,0.0,0.0,0.0,0.0,0.0,0.0,0.0,0.0,0.0,0.0,0.0,0.0,0.0,0.0,0.0,0.0,0.0,1.5743,1.5168,1.4717,1.3796,1.3067,1.2684,1.2449,1.2354,1.2401,1.1663,1.1306,1.1306,1.0384,0.9893,0.9765,0.8696,0.8042,0.7766,0.7302,0.6604,0.5743,0.4625,0.4156,0.4065,0.3501,0.2852,0.2137,0.1797,0.0881,-0.0231,-0.0726,-0.1432,-0.2199,-0.2676,-0.3764,-0.4914,-0.5359,-0.6082,-0.6916,-0.7608,-0.8249,-0.8889,-0.9719,-1.0011,-1.0379,-1.1532,-1.1882,-1.2201,-1.3227,-1.4174,-1.5197,-1.6512,-1.7328,-1.8061,-1.8896,-1.9381,-1.9721,-1.9853,-2.0078,-2.0511,-2.1249,-2.1514,-2.2119,-2.3373,-2.4024,-2.4801,-2.5862,-2.6126,-2.6598,-2.7426,-2.8162,-2.873,-2.9121,-3.022,-3.0804,-3.083,-3.0877,-3.1296,-3.2107,-3.3158,-3.412,-3.4962,-3.5484,-3.5754,0.0,0.0,0.0,0.0,0.0,0.0,0.8869,1.0699,0.0,0.0,0.0,0.0,0.0,0.0,0.0,0.0,0.0,0.0,0.0,0.0,0.0,0.0,0.0,0.0,0.0,0.0,0.0,1.7626,1.7139,1.6403,1.5413,1.4379,1.3609,1.3182,1.301,1.2766,1.2532,1.2095,1.1664,1.1285,1.0945,1.0587,1.0178,0.9582,0.9009,0.8467,0.8025,0.739,0.6595,0.5519,0.496,0.4744,0.421,0.3672,0.3119,0.2743,0.187,0.0765,0.0369,-0.0418,-0.1356,-0.1949,-0.2871,-0.3872,-0.4369,-0.5024,-0.5675,-0.6218,-0.7197,-0.8299,-0.9151,-0.9589,-0.9983,-1.0586,-1.0903,-1.1227,-1.1835,-1.2336,-1.3284,-1.5316,-1.6102,-1.6688,-1.7487,-1.7887,-1.8104,-1.8158,-1.8697,-1.9295,-1.9856,-2.0435,-2.1206,-2.2278,-2.3072,-2.3959,-2.5066,-2.5699,-2.6518,-2.759,-2.835,-2.8964,-2.9471,-3.0342,-3.0794,-3.0794,-3.0833,-3.1256,-3.2069,-3.251,-3.3349,-3.4533,-3.532,-3.5728,0.0,0.0,0.0,0.0,0.0,0.0,0.8816,1.0766,1.2898,0.0,0.0,0.0,0.0,0.0,0.0,0.0,0.0,0.0,0.0,0.0,0.0,0.0,0.0,0.0,0.0,1.9621,1.9405,1.9489,1.8957,1.7878,1.6207,1.5223,1.441,1.3802,1.3735,1.3399,1.2731,1.2648,1.221,1.1455,1.1827,1.1468,1.0428,1.0699,1.0091,0.8806,0.864,0.8071,0.7209,0.6615,0.6067,0.5522,0.4915,0.452,0.421,0.3699,0.269,0.1548,0.1407,0.0488,-0.074,-0.138,-0.2007,-0.2627,-0.3274,-0.3962,-0.4608,-0.5019,-0.6461,-0.7976,-0.8549,-0.9231,-0.973,-0.9679,-1.0112,-1.0477,-1.036,-1.0647,-1.1772,-1.4579,-1.5344,-1.5871,-1.6922,-1.6861,-1.6631,-1.6501,-1.7562,-1.8385,-1.8323,-1.9349,-2.019,-2.0407,-2.1735,-2.2709,-2.2987,-2.5111,-2.6532,-2.6744,-2.8397,-2.9393,-2.9508,-3.0333,-3.0806,-3.0799,-3.0798,-3.112,-3.1809,-3.1859,-3.2745,-3.4417,-3.5076,-3.5494,0.0,0.0,0.0,0.0,0.0,0.0,0.8947,0.9431,1.0369,0.0,0.0,0.0,0.0,0.0,0.0,0.0,0.0,0.0,0.0,0.0,0.0,0.0,0.0,0.0,0.0,1.9767,1.9512,1.8842,1.8663,1.813,1.7015,1.6229,1.5322,1.4356,1.3934,1.3669,1.3656,1.2966,1.2544,1.2392,1.1339,1.1204,1.1858,1.0444,1.014,1.0721,1.0048,0.9171,0.8224,0.8143,0.7337,0.6091,0.5484,0.5004,0.4595,0.3853,0.3169,0.2527,0.1982,0.1214,0.0411,-0.0054,-0.0958,-0.1976,-0.2469,-0.3009,-0.3607,-0.4531,-0.5524,-0.6489,-0.7248,-0.783,-0.8348,-0.8792,-0.9088,-0.9369,-0.981,-1.0219,-1.0822,-1.1862,-1.269,-1.3526,-1.4447,-1.5235,-1.5737,-1.5723,-1.7243,-1.8397,-1.8385,-1.9438,-2.0466,-2.1188,-2.1647,-2.2204,-2.294,-2.4092,-2.5078,-2.5805,-2.7497,-2.8769,-2.9466,-3.0336,-3.081,-3.0804,-3.0697,-3.0632,-3.0635,-3.138,-3.2651,-3.4388,-3.3797,-3.4276,0.0,0.0,0.0,0.8705,0.0,0.0,0.0,0.93,1.0081,1.1596,0.0,0.0,0.0,0.0,0.0,0.0,0.0,0.0,0.0,0.0,0.0,0.0,0.0,0.0,0.0,2.0459,2.0206,1.988,1.9375,1.889,1.8409,1.7503,1.6518,1.5487,1.5105,1.4629,1.4071,1.3513,1.3064,1.269,1.219,1.1908,1.1839,1.1383,1.0921,1.0423,1.0263,0.9486,0.8318,0.8367,0.7802,0.6824,0.6091,0.572,0.5498,0.4762,0.3997,0.3241,0.2799,0.1958,0.0952,0.0418,-0.0218,-0.097,-0.1842,-0.2465,-0.3079,-0.3995,-0.4751,-0.5485,-0.6249,-0.7024,-0.7665,-0.7891,-0.8236,-0.8578,-0.8834,-0.9181,-0.9555,-1.0091,-1.1258,-1.2486,-1.3526,-1.467,-1.5497,-1.5636,-1.6883,-1.7839,-1.7882,-1.8878,-1.9738,-2.0255,-2.1114,-2.1842,-2.2364,-2.3562,-2.4667,-2.5547,-2.6835,-2.8138,-2.9455,-2.992,-3.0341,-3.0728,-3.0602,-3.0442,-3.0359,-3.0759,-3.1642,-3.2949,-3.339,-3.3832,0.0,0.0,0.0,0.0,0.0,0.883,0.0,0.0,0.0,1.1088,0.0,0.0,0.0,0.0,0.0,0.0,0.0,0.0,0.0,0.0,0.0,0.0,0.0,0.0,0.0,2.0529,2.0622,2.1071,2.0432,1.9878,1.9578,1.8701,1.7666,1.6574,1.6358,1.5693,1.4571,1.4301,1.3861,1.3223,1.3337,1.2897,1.2012,1.2614,1.1903,1.0182,1.0579,0.9858,0.8421,0.8496,0.8208,0.7618,0.6811,0.6457,0.6313,0.5654,0.4769,0.3846,0.3585,0.2645,0.146,0.0881,0.0426,-0.0155,-0.1367,-0.2098,-0.2644,-0.3391,-0.3987,-0.4595,-0.5291,-0.6232,-0.7002,-0.6936,-0.7384,-0.7809,-0.7843,-0.8075,-0.848,-0.9109,-1.0548,-1.2061,-1.3129,-1.4378,-1.5291,-1.5521,-1.6388,-1.7046,-1.7177,-1.8075,-1.8724,-1.8822,-2.0214,-2.1182,-2.129,-2.2987,-2.4353,-2.5045,-2.6217,-2.7527,-2.8929,-2.9308,-2.9836,-3.0616,-3.046,-3.0364,-3.0328,-3.0207,-3.0633,-3.1552,-3.284,-3.3231,0.0,0.0,0.0,0.0,0.888,0.0,0.0,0.0,0.9128,0.9355,0.0,0.0,0.0,0.0,0.0,0.0,0.0,0.0,0.0,0.0,0.0,0.0,0.0,0.0,0.0,0.0,1.9595,2.1006,2.1303,2.087,1.9481,1.9277,1.8532,1.7059,1.6879,1.6486,1.5805,1.5433,1.5197,1.5079,1.3951,1.3632,1.4029,1.3337,1.2703,1.2165,1.2348,1.132,0.9543,0.966,0.918,0.8344,0.7763,0.7059,0.6342,0.5713,0.5118,0.4511,0.4005,0.3221,0.2408,0.223,0.1193,-0.0178,-0.1211,-0.1614,-0.1883,-0.2622,-0.3135,-0.3598,-0.4138,-0.496,-0.5678,-0.5911,-0.6372,-0.6854,-0.7207,-0.765,-0.8221,-0.9116,-1.0582,-1.1913,-1.2591,-1.3766,-1.4644,-1.4724,-1.5593,-1.6278,-1.6418,-1.7291,-1.7902,-1.7863,-1.8828,-1.9476,-1.9495,-2.1736,-2.3191,-2.3291,-2.5517,-2.6929,-2.7187,-2.8618,-2.9717,-3.0333,-3.0311,-3.0228,-3.0049,-3.0019,-3.0577,-3.1572,-3.1009,-3.1488,0.0,0.0,0.0,0.0,0.0,0.0,1.0641,0.0,0.9067,0.0,0.0,0.0,0.0,0.0,0.0,0.0,0.0,0.0,0.0,0.0,0.0,0.0,0.0,0.0,0.0,0.0,0.0,0.0,0.0,1.9326,1.8187,1.8869,1.8765,1.7653,1.7446,1.7018,1.6309,1.5707,1.5462,1.558,1.489,1.4347,1.3946,1.4029,1.3442,1.2367,1.241,1.1764,1.0634,1.0237,0.9644,0.8935,0.8546,0.7915,0.7121,0.65,0.5779,0.5054,0.4753,0.4028,0.3114,0.2441,0.1204,-0.0089,-0.0553,-0.1172,-0.1792,-0.2141,-0.2591,-0.3018,-0.3334,-0.3986,-0.4673,-0.502,-0.5569,-0.6147,-0.657,-0.7055,-0.7576,-0.824,-0.9544,-1.0871,-1.1955,-1.3829,-1.5256,-1.5382,-1.58,-1.6149,-1.628,-1.6747,-1.705,-1.7062,-1.8313,-1.9161,-1.9246,-2.1559,-2.3001,-2.299,-2.5324,-2.6646,-2.6563,-2.7682,-2.8675,-2.9467,-2.8951,-2.9153,-3.0104,-2.9578,-2.9798,-3.0724,-3.0835,-3.1011,1.194,0.0,0.0,0.0,0.0,0.0,0.0,0.0,0.0,0.0,0.0,0.0,0.0,0.0,0.0,0.0,0.0,0.0,0.0,0.0,0.0,0.0,0.0,0.0,0.0,0.0,0.0,1.6915,1.8076,1.8325,1.7232,1.8518,1.8892,1.8125,1.8156,1.7722,1.6773,1.6283,1.6017,1.595,1.5681,1.5096,1.4298,1.4786,1.411,1.2554,1.2428,1.1926,1.1121,1.0543,0.9983,0.9468,0.9108,0.859,0.7925,0.7166,0.6449,0.5789,0.5502,0.4627,0.3525,0.2545,0.1349,0.0267,0.0089,-0.0597,-0.1367,-0.1567,-0.2011,-0.2454,-0.2639,-0.3279,-0.3994,-0.4514,-0.5049,-0.5679,-0.6426,-0.6865,-0.7279,-0.7889,-0.906,-1.0337,-1.156,-1.3586,-1.5169,-1.5659,-1.5776,-1.5861,-1.6003,-1.6101,-1.62,-1.6239,-1.7787,-1.8835,-1.8945,-2.1227,-2.2825,-2.3218,-2.4904,-2.5985,-2.623,-2.6823,-2.7567,-2.8433,-2.7823,-2.8132,-2.9436,-2.8909,-2.8995,-2.963,-3.0481,-3.0541,0.0,0.0,0.0,1.362,0.0,0.0,0.0,0.0,1.0415,0.0,0.0,0.0,0.0,0.0,0.0,0.0,0.0,0.0,0.0,0.0,0.0,0.0,0.0,0.0,0.0,0.0,0.0,1.6972,1.8566,1.8829,1.7191,1.8575,1.905,1.831,1.899,1.8736,1.7479,1.763,1.7379,1.667,1.6145,1.5922,1.6009,1.571,1.474,1.324,1.3006,1.1975,1.0521,1.0567,1.0347,0.9906,0.9401,0.8935,0.8462,0.7462,0.7029,0.685,0.6137,0.4863,0.3493,0.2795,0.1896,0.0981,0.0531,0.0133,-0.0266,-0.0797,-0.1309,-0.1796,-0.2064,-0.2826,-0.3708,-0.4503,-0.4904,-0.5526,-0.7038,-0.7372,-0.7661,-0.8591,-0.9749,-1.0803,-1.1567,-1.2575,-1.3679,-1.4863,-1.5028,-1.5101,-1.5315,-1.5345,-1.534,-1.5341,-1.6962,-1.8042,-1.8046,-2.0328,-2.2344,-2.3784,-2.4005,-2.4689,-2.6048,-2.62,-2.6584,-2.7346,-2.7445,-2.7498,-2.749,-2.8046,-2.8333,-2.8371,-2.9322,-2.9698,0.0,0.0,1.7078,1.6397,0.0,0.0,0.0,0.0,0.0,0.0,0.0,0.0,0.0,0.0,0.0,0.0,0.0,0.0,0.0,0.0,0.0,0.0,0.0,0.0,0.0,0.0,0.0,1.4149,1.481,1.4717,0.0,1.5543,1.667,1.6519,1.7922,1.8487,1.8104,1.7781,1.7519,1.7352,1.6597,1.6203,1.6176,1.6231,1.5545,1.4284,1.3775,1.291,1.1797,1.1552,1.1388,1.1197,1.0355,1.0399,1.0632,0.84,0.752,0.7364,0.6678,0.5744,0.474,0.4065,0.3,0.1916,0.1676,0.0829,-0.0066,-0.0199,-0.0686,-0.1284,-0.1727,-0.2112,-0.2677,-0.3879,-0.4512,-0.5126,-0.6176,-0.6579,-0.6994,-0.785,-0.8403,-0.9198,-1.0588,-1.1714,-1.2941,-1.4494,-1.4896,-1.5004,-1.5018,-1.5197,-1.5315,-1.5363,-1.6907,-1.7929,-1.7929,-2.0243,-2.2274,-2.3618,-2.377,-2.4151,-2.4935,-2.5038,-2.5477,-2.6373,-2.5898,-2.6223,-2.7396,-2.6851,-2.7176,-2.8297,-2.8307,-2.8695,1.9017,1.9497,0.0,1.8678,1.7625,0.0,1.5737,0.0,0.0,0.0,0.0,0.0,0.0,0.0,0.0,0.0,0.0,0.0,0.0,1.0023,0.0,0.0,0.0,0.0,0.0,0.0,1.3731,1.2289,1.3066,1.3051,0.0,0.0,1.5663,1.5663,1.7766,1.8743,1.8363,1.83,1.8173,1.8011,1.7141,1.6765,1.6796,1.6653,1.6072,1.5119,1.4623,1.3959,1.3184,1.2779,1.2538,1.2317,1.1519,1.1544,1.1696,0.8894,0.7715,0.7452,0.7029,0.6389,0.5656,0.504,0.4047,0.2999,0.2552,0.1581,0.0617,0.0493,-0.0089,-0.0775,-0.1331,-0.1614,-0.2103,-0.3612,-0.4192,-0.4711,-0.592,-0.6301,-0.6655,-0.7533,-0.7832,-0.8444,-1.0047,-1.0941,-1.2091,-1.3999,-1.4687,-1.5005,-1.5036,-1.5218,-1.5323,-1.5332,-1.6851,-1.812,-1.8701,-2.0274,-2.1796,-2.3087,-2.3208,-2.3601,-2.4392,-2.4481,-2.4625,-2.4864,-2.4657,-2.4968,-2.5764,-2.5523,-2.5984,-2.7137,-2.7328,-2.7848]}]]